<?xml version="1.0" encoding="UTF-8" standalone="no" ?>
<gpx xmlns="http://www.topografix.com/GPX/1/1" xmlns:xsi="http://www.w3.org/2001/XMLSchema-instance" xsi:schemaLocation="http://www.topografix.com/GPX/1/1 http://www.topografix.com/GPX/1/1/gpx.xsd" version="1.1" creator="VisuGPX - https://www.visugpx.com">
  <metadata>
    <name>Sumit to sea</name>
    <desc><![CDATA[Itinéraire de descente depuis le plus haut sommet de l'Alagarve (Montchique) jusqu'a la plage d'Alvor. Un mix de single et de piste dans un décor splendide.]]></desc>
  </metadata>
  <trk>
    <name><![CDATA[2020-07-20 13:37:04]]></name>
    <trkseg>
      <trkpt lat="37.31637" lon="-8.59416">
        <ele>933.58</ele>
        <time>2020-07-20T09:21:04Z</time>
      </trkpt>
      <trkpt lat="37.31637" lon="-8.59416">
        <ele>933.58</ele>
        <time>2020-07-20T09:21:07Z</time>
      </trkpt>
      <trkpt lat="37.31637" lon="-8.59416">
        <ele>897.05</ele>
        <time>2020-07-20T09:21:08Z</time>
      </trkpt>
      <trkpt lat="37.31638" lon="-8.59416">
        <ele>897.53</ele>
        <time>2020-07-20T09:21:14Z</time>
      </trkpt>
      <trkpt lat="37.31637" lon="-8.59416">
        <ele>897.53</ele>
        <time>2020-07-20T09:21:28Z</time>
      </trkpt>
      <trkpt lat="37.31638" lon="-8.59417">
        <ele>897.53</ele>
        <time>2020-07-20T09:21:41Z</time>
      </trkpt>
      <trkpt lat="37.31638" lon="-8.59417">
        <ele>897.05</ele>
        <time>2020-07-20T09:21:49Z</time>
      </trkpt>
      <trkpt lat="37.31638" lon="-8.59418">
        <ele>897.53</ele>
        <time>2020-07-20T09:21:56Z</time>
      </trkpt>
      <trkpt lat="37.31637" lon="-8.59418">
        <ele>897.05</ele>
        <time>2020-07-20T09:22:03Z</time>
      </trkpt>
      <trkpt lat="37.31638" lon="-8.59425">
        <ele>897.05</ele>
        <time>2020-07-20T09:22:08Z</time>
      </trkpt>
      <trkpt lat="37.31644" lon="-8.59432">
        <ele>897.05</ele>
        <time>2020-07-20T09:22:13Z</time>
      </trkpt>
      <trkpt lat="37.31663" lon="-8.59438">
        <ele>895.61</ele>
        <time>2020-07-20T09:22:20Z</time>
      </trkpt>
      <trkpt lat="37.31696" lon="-8.59446">
        <ele>892.72</ele>
        <time>2020-07-20T09:22:26Z</time>
      </trkpt>
      <trkpt lat="37.31702" lon="-8.59448">
        <ele>892.72</ele>
        <time>2020-07-20T09:22:27Z</time>
      </trkpt>
      <trkpt lat="37.31708" lon="-8.59452">
        <ele>891.76</ele>
        <time>2020-07-20T09:22:28Z</time>
      </trkpt>
      <trkpt lat="37.31713" lon="-8.59458">
        <ele>891.76</ele>
        <time>2020-07-20T09:22:29Z</time>
      </trkpt>
      <trkpt lat="37.31716" lon="-8.59466">
        <ele>891.28</ele>
        <time>2020-07-20T09:22:30Z</time>
      </trkpt>
      <trkpt lat="37.31719" lon="-8.59475">
        <ele>890.32</ele>
        <time>2020-07-20T09:22:31Z</time>
      </trkpt>
      <trkpt lat="37.31721" lon="-8.59484">
        <ele>889.84</ele>
        <time>2020-07-20T09:22:32Z</time>
      </trkpt>
      <trkpt lat="37.31725" lon="-8.59505">
        <ele>888.4</ele>
        <time>2020-07-20T09:22:34Z</time>
      </trkpt>
      <trkpt lat="37.31725" lon="-8.59516">
        <ele>887.43</ele>
        <time>2020-07-20T09:22:35Z</time>
      </trkpt>
      <trkpt lat="37.31724" lon="-8.59528">
        <ele>886.95</ele>
        <time>2020-07-20T09:22:36Z</time>
      </trkpt>
      <trkpt lat="37.31721" lon="-8.5954">
        <ele>886.95</ele>
        <time>2020-07-20T09:22:37Z</time>
      </trkpt>
      <trkpt lat="37.31712" lon="-8.59587">
        <ele>884.07</ele>
        <time>2020-07-20T09:22:41Z</time>
      </trkpt>
      <trkpt lat="37.31696" lon="-8.59657">
        <ele>880.22</ele>
        <time>2020-07-20T09:22:47Z</time>
      </trkpt>
      <trkpt lat="37.31694" lon="-8.59669">
        <ele>879.74</ele>
        <time>2020-07-20T09:22:48Z</time>
      </trkpt>
      <trkpt lat="37.3169" lon="-8.59679">
        <ele>879.26</ele>
        <time>2020-07-20T09:22:49Z</time>
      </trkpt>
      <trkpt lat="37.31685" lon="-8.5969">
        <ele>878.3</ele>
        <time>2020-07-20T09:22:50Z</time>
      </trkpt>
      <trkpt lat="37.3168" lon="-8.597">
        <ele>877.82</ele>
        <time>2020-07-20T09:22:51Z</time>
      </trkpt>
      <trkpt lat="37.31673" lon="-8.5971">
        <ele>877.34</ele>
        <time>2020-07-20T09:22:52Z</time>
      </trkpt>
      <trkpt lat="37.31652" lon="-8.59748">
        <ele>875.42</ele>
        <time>2020-07-20T09:22:56Z</time>
      </trkpt>
      <trkpt lat="37.31641" lon="-8.59774">
        <ele>873.5</ele>
        <time>2020-07-20T09:23:00Z</time>
      </trkpt>
      <trkpt lat="37.31638" lon="-8.59782">
        <ele>873.5</ele>
        <time>2020-07-20T09:23:02Z</time>
      </trkpt>
      <trkpt lat="37.31639" lon="-8.59785">
        <ele>873.01</ele>
        <time>2020-07-20T09:23:03Z</time>
      </trkpt>
      <trkpt lat="37.31644" lon="-8.59786">
        <ele>872.53</ele>
        <time>2020-07-20T09:23:05Z</time>
      </trkpt>
      <trkpt lat="37.31647" lon="-8.59783">
        <ele>872.05</ele>
        <time>2020-07-20T09:23:06Z</time>
      </trkpt>
      <trkpt lat="37.31649" lon="-8.59781">
        <ele>872.05</ele>
        <time>2020-07-20T09:23:07Z</time>
      </trkpt>
      <trkpt lat="37.31651" lon="-8.59777">
        <ele>872.05</ele>
        <time>2020-07-20T09:23:08Z</time>
      </trkpt>
      <trkpt lat="37.31653" lon="-8.59772">
        <ele>871.09</ele>
        <time>2020-07-20T09:23:09Z</time>
      </trkpt>
      <trkpt lat="37.31656" lon="-8.59766">
        <ele>870.61</ele>
        <time>2020-07-20T09:23:10Z</time>
      </trkpt>
      <trkpt lat="37.31659" lon="-8.5976">
        <ele>870.13</ele>
        <time>2020-07-20T09:23:11Z</time>
      </trkpt>
      <trkpt lat="37.31664" lon="-8.59755">
        <ele>869.17</ele>
        <time>2020-07-20T09:23:12Z</time>
      </trkpt>
      <trkpt lat="37.31668" lon="-8.59749">
        <ele>868.21</ele>
        <time>2020-07-20T09:23:13Z</time>
      </trkpt>
      <trkpt lat="37.3168" lon="-8.59737">
        <ele>867.25</ele>
        <time>2020-07-20T09:23:15Z</time>
      </trkpt>
      <trkpt lat="37.31687" lon="-8.59732">
        <ele>866.77</ele>
        <time>2020-07-20T09:23:16Z</time>
      </trkpt>
      <trkpt lat="37.31695" lon="-8.59727">
        <ele>865.8</ele>
        <time>2020-07-20T09:23:17Z</time>
      </trkpt>
      <trkpt lat="37.31702" lon="-8.59721">
        <ele>864.84</ele>
        <time>2020-07-20T09:23:18Z</time>
      </trkpt>
      <trkpt lat="37.31709" lon="-8.59713">
        <ele>863.88</ele>
        <time>2020-07-20T09:23:19Z</time>
      </trkpt>
      <trkpt lat="37.31716" lon="-8.59705">
        <ele>862.92</ele>
        <time>2020-07-20T09:23:20Z</time>
      </trkpt>
      <trkpt lat="37.31723" lon="-8.59695">
        <ele>861.96</ele>
        <time>2020-07-20T09:23:21Z</time>
      </trkpt>
      <trkpt lat="37.31749" lon="-8.59659">
        <ele>858.59</ele>
        <time>2020-07-20T09:23:25Z</time>
      </trkpt>
      <trkpt lat="37.31777" lon="-8.59624">
        <ele>855.23</ele>
        <time>2020-07-20T09:23:29Z</time>
      </trkpt>
      <trkpt lat="37.31802" lon="-8.59602">
        <ele>853.31</ele>
        <time>2020-07-20T09:23:32Z</time>
      </trkpt>
      <trkpt lat="37.31811" lon="-8.59597">
        <ele>852.35</ele>
        <time>2020-07-20T09:23:33Z</time>
      </trkpt>
      <trkpt lat="37.3182" lon="-8.59594">
        <ele>852.35</ele>
        <time>2020-07-20T09:23:34Z</time>
      </trkpt>
      <trkpt lat="37.3183" lon="-8.59593">
        <ele>851.38</ele>
        <time>2020-07-20T09:23:35Z</time>
      </trkpt>
      <trkpt lat="37.3184" lon="-8.59592">
        <ele>850.9</ele>
        <time>2020-07-20T09:23:36Z</time>
      </trkpt>
      <trkpt lat="37.31889" lon="-8.5958">
        <ele>847.54</ele>
        <time>2020-07-20T09:23:41Z</time>
      </trkpt>
      <trkpt lat="37.31935" lon="-8.59555">
        <ele>844.66</ele>
        <time>2020-07-20T09:23:46Z</time>
      </trkpt>
      <trkpt lat="37.31951" lon="-8.59544">
        <ele>843.69</ele>
        <time>2020-07-20T09:23:48Z</time>
      </trkpt>
      <trkpt lat="37.31957" lon="-8.59538">
        <ele>843.21</ele>
        <time>2020-07-20T09:23:49Z</time>
      </trkpt>
      <trkpt lat="37.31962" lon="-8.59531">
        <ele>842.73</ele>
        <time>2020-07-20T09:23:50Z</time>
      </trkpt>
      <trkpt lat="37.31966" lon="-8.59522">
        <ele>842.73</ele>
        <time>2020-07-20T09:23:51Z</time>
      </trkpt>
      <trkpt lat="37.31968" lon="-8.59513">
        <ele>841.77</ele>
        <time>2020-07-20T09:23:52Z</time>
      </trkpt>
      <trkpt lat="37.3197" lon="-8.59504">
        <ele>841.29</ele>
        <time>2020-07-20T09:23:53Z</time>
      </trkpt>
      <trkpt lat="37.31978" lon="-8.59479">
        <ele>838.89</ele>
        <time>2020-07-20T09:23:57Z</time>
      </trkpt>
      <trkpt lat="37.31981" lon="-8.59476">
        <ele>838.89</ele>
        <time>2020-07-20T09:23:58Z</time>
      </trkpt>
      <trkpt lat="37.31984" lon="-8.59475">
        <ele>838.89</ele>
        <time>2020-07-20T09:23:59Z</time>
      </trkpt>
      <trkpt lat="37.31987" lon="-8.59477">
        <ele>838.41</ele>
        <time>2020-07-20T09:24:00Z</time>
      </trkpt>
      <trkpt lat="37.31989" lon="-8.5948">
        <ele>838.41</ele>
        <time>2020-07-20T09:24:01Z</time>
      </trkpt>
      <trkpt lat="37.31991" lon="-8.59485">
        <ele>838.41</ele>
        <time>2020-07-20T09:24:02Z</time>
      </trkpt>
      <trkpt lat="37.31991" lon="-8.59489">
        <ele>838.41</ele>
        <time>2020-07-20T09:24:03Z</time>
      </trkpt>
      <trkpt lat="37.31991" lon="-8.59494">
        <ele>838.41</ele>
        <time>2020-07-20T09:24:04Z</time>
      </trkpt>
      <trkpt lat="37.31991" lon="-8.59499">
        <ele>838.41</ele>
        <time>2020-07-20T09:24:05Z</time>
      </trkpt>
      <trkpt lat="37.31991" lon="-8.5951">
        <ele>837.45</ele>
        <time>2020-07-20T09:24:07Z</time>
      </trkpt>
      <trkpt lat="37.31992" lon="-8.59528">
        <ele>836.96</ele>
        <time>2020-07-20T09:24:10Z</time>
      </trkpt>
      <trkpt lat="37.31987" lon="-8.5958">
        <ele>834.56</ele>
        <time>2020-07-20T09:24:17Z</time>
      </trkpt>
      <trkpt lat="37.31985" lon="-8.59589">
        <ele>834.08</ele>
        <time>2020-07-20T09:24:18Z</time>
      </trkpt>
      <trkpt lat="37.31982" lon="-8.59597">
        <ele>833.6</ele>
        <time>2020-07-20T09:24:19Z</time>
      </trkpt>
      <trkpt lat="37.31979" lon="-8.59606">
        <ele>833.12</ele>
        <time>2020-07-20T09:24:20Z</time>
      </trkpt>
      <trkpt lat="37.31974" lon="-8.59614">
        <ele>833.12</ele>
        <time>2020-07-20T09:24:21Z</time>
      </trkpt>
      <trkpt lat="37.31969" lon="-8.59623">
        <ele>832.64</ele>
        <time>2020-07-20T09:24:22Z</time>
      </trkpt>
      <trkpt lat="37.31964" lon="-8.5963">
        <ele>831.68</ele>
        <time>2020-07-20T09:24:23Z</time>
      </trkpt>
      <trkpt lat="37.31958" lon="-8.59638">
        <ele>831.2</ele>
        <time>2020-07-20T09:24:24Z</time>
      </trkpt>
      <trkpt lat="37.31952" lon="-8.59644">
        <ele>831.2</ele>
        <time>2020-07-20T09:24:25Z</time>
      </trkpt>
      <trkpt lat="37.31921" lon="-8.59672">
        <ele>829.27</ele>
        <time>2020-07-20T09:24:31Z</time>
      </trkpt>
      <trkpt lat="37.31918" lon="-8.59677">
        <ele>829.27</ele>
        <time>2020-07-20T09:24:32Z</time>
      </trkpt>
      <trkpt lat="37.31918" lon="-8.59683">
        <ele>828.79</ele>
        <time>2020-07-20T09:24:33Z</time>
      </trkpt>
      <trkpt lat="37.3192" lon="-8.59689">
        <ele>827.35</ele>
        <time>2020-07-20T09:24:34Z</time>
      </trkpt>
      <trkpt lat="37.31925" lon="-8.59693">
        <ele>826.39</ele>
        <time>2020-07-20T09:24:35Z</time>
      </trkpt>
      <trkpt lat="37.31931" lon="-8.59694">
        <ele>825.91</ele>
        <time>2020-07-20T09:24:36Z</time>
      </trkpt>
      <trkpt lat="37.31937" lon="-8.59693">
        <ele>825.91</ele>
        <time>2020-07-20T09:24:37Z</time>
      </trkpt>
      <trkpt lat="37.31944" lon="-8.5969">
        <ele>824.95</ele>
        <time>2020-07-20T09:24:38Z</time>
      </trkpt>
      <trkpt lat="37.31999" lon="-8.59669">
        <ele>822.55</ele>
        <time>2020-07-20T09:24:46Z</time>
      </trkpt>
      <trkpt lat="37.32045" lon="-8.59641">
        <ele>819.18</ele>
        <time>2020-07-20T09:24:52Z</time>
      </trkpt>
      <trkpt lat="37.32079" lon="-8.59619">
        <ele>815.82</ele>
        <time>2020-07-20T09:24:56Z</time>
      </trkpt>
      <trkpt lat="37.32125" lon="-8.59594">
        <ele>812.93</ele>
        <time>2020-07-20T09:25:01Z</time>
      </trkpt>
      <trkpt lat="37.32161" lon="-8.5956">
        <ele>810.05</ele>
        <time>2020-07-20T09:25:06Z</time>
      </trkpt>
      <trkpt lat="37.32205" lon="-8.59509">
        <ele>805.72</ele>
        <time>2020-07-20T09:25:13Z</time>
      </trkpt>
      <trkpt lat="37.32239" lon="-8.59471">
        <ele>802.36</ele>
        <time>2020-07-20T09:25:18Z</time>
      </trkpt>
      <trkpt lat="37.32279" lon="-8.59424">
        <ele>798.99</ele>
        <time>2020-07-20T09:25:24Z</time>
      </trkpt>
      <trkpt lat="37.32286" lon="-8.59417">
        <ele>798.99</ele>
        <time>2020-07-20T09:25:25Z</time>
      </trkpt>
      <trkpt lat="37.32305" lon="-8.59391">
        <ele>798.99</ele>
        <time>2020-07-20T09:25:29Z</time>
      </trkpt>
      <trkpt lat="37.3231" lon="-8.59387">
        <ele>798.99</ele>
        <time>2020-07-20T09:25:30Z</time>
      </trkpt>
      <trkpt lat="37.32314" lon="-8.59386">
        <ele>798.99</ele>
        <time>2020-07-20T09:25:31Z</time>
      </trkpt>
      <trkpt lat="37.32318" lon="-8.59387">
        <ele>799.47</ele>
        <time>2020-07-20T09:25:32Z</time>
      </trkpt>
      <trkpt lat="37.3232" lon="-8.59388">
        <ele>798.99</ele>
        <time>2020-07-20T09:25:33Z</time>
      </trkpt>
      <trkpt lat="37.32322" lon="-8.5939">
        <ele>798.99</ele>
        <time>2020-07-20T09:25:34Z</time>
      </trkpt>
      <trkpt lat="37.32324" lon="-8.59392">
        <ele>798.99</ele>
        <time>2020-07-20T09:25:35Z</time>
      </trkpt>
      <trkpt lat="37.32325" lon="-8.59394">
        <ele>798.99</ele>
        <time>2020-07-20T09:25:36Z</time>
      </trkpt>
      <trkpt lat="37.32326" lon="-8.59396">
        <ele>798.99</ele>
        <time>2020-07-20T09:25:37Z</time>
      </trkpt>
      <trkpt lat="37.32326" lon="-8.59396">
        <ele>798.99</ele>
        <time>2020-07-20T09:25:42Z</time>
      </trkpt>
      <trkpt lat="37.32327" lon="-8.594">
        <ele>798.99</ele>
        <time>2020-07-20T09:25:53Z</time>
      </trkpt>
      <trkpt lat="37.32327" lon="-8.59403">
        <ele>798.99</ele>
        <time>2020-07-20T09:25:54Z</time>
      </trkpt>
      <trkpt lat="37.32328" lon="-8.59407">
        <ele>798.51</ele>
        <time>2020-07-20T09:25:55Z</time>
      </trkpt>
      <trkpt lat="37.32332" lon="-8.5944">
        <ele>797.55</ele>
        <time>2020-07-20T09:26:01Z</time>
      </trkpt>
      <trkpt lat="37.32333" lon="-8.59447">
        <ele>797.07</ele>
        <time>2020-07-20T09:26:02Z</time>
      </trkpt>
      <trkpt lat="37.32335" lon="-8.59454">
        <ele>796.11</ele>
        <time>2020-07-20T09:26:03Z</time>
      </trkpt>
      <trkpt lat="37.32337" lon="-8.59462">
        <ele>795.63</ele>
        <time>2020-07-20T09:26:04Z</time>
      </trkpt>
      <trkpt lat="37.32339" lon="-8.59477">
        <ele>795.15</ele>
        <time>2020-07-20T09:26:06Z</time>
      </trkpt>
      <trkpt lat="37.32339" lon="-8.59485">
        <ele>794.67</ele>
        <time>2020-07-20T09:26:07Z</time>
      </trkpt>
      <trkpt lat="37.32333" lon="-8.5954">
        <ele>791.3</ele>
        <time>2020-07-20T09:26:13Z</time>
      </trkpt>
      <trkpt lat="37.32333" lon="-8.59584">
        <ele>789.86</ele>
        <time>2020-07-20T09:26:18Z</time>
      </trkpt>
      <trkpt lat="37.32333" lon="-8.59592">
        <ele>789.38</ele>
        <time>2020-07-20T09:26:19Z</time>
      </trkpt>
      <trkpt lat="37.32338" lon="-8.59616">
        <ele>787.94</ele>
        <time>2020-07-20T09:26:22Z</time>
      </trkpt>
      <trkpt lat="37.32338" lon="-8.59625">
        <ele>787.46</ele>
        <time>2020-07-20T09:26:23Z</time>
      </trkpt>
      <trkpt lat="37.32338" lon="-8.59633">
        <ele>787.46</ele>
        <time>2020-07-20T09:26:24Z</time>
      </trkpt>
      <trkpt lat="37.32334" lon="-8.59683">
        <ele>785.53</ele>
        <time>2020-07-20T09:26:30Z</time>
      </trkpt>
      <trkpt lat="37.32332" lon="-8.59707">
        <ele>784.09</ele>
        <time>2020-07-20T09:26:33Z</time>
      </trkpt>
      <trkpt lat="37.32332" lon="-8.59722">
        <ele>782.65</ele>
        <time>2020-07-20T09:26:35Z</time>
      </trkpt>
      <trkpt lat="37.32331" lon="-8.59738">
        <ele>781.69</ele>
        <time>2020-07-20T09:26:37Z</time>
      </trkpt>
      <trkpt lat="37.32331" lon="-8.5977">
        <ele>778.32</ele>
        <time>2020-07-20T09:26:41Z</time>
      </trkpt>
      <trkpt lat="37.32332" lon="-8.59798">
        <ele>774.96</ele>
        <time>2020-07-20T09:26:45Z</time>
      </trkpt>
      <trkpt lat="37.32333" lon="-8.59804">
        <ele>774</ele>
        <time>2020-07-20T09:26:46Z</time>
      </trkpt>
      <trkpt lat="37.32336" lon="-8.59811">
        <ele>773.04</ele>
        <time>2020-07-20T09:26:47Z</time>
      </trkpt>
      <trkpt lat="37.32352" lon="-8.59855">
        <ele>771.6</ele>
        <time>2020-07-20T09:26:53Z</time>
      </trkpt>
      <trkpt lat="37.32357" lon="-8.59895">
        <ele>772.56</ele>
        <time>2020-07-20T09:26:59Z</time>
      </trkpt>
      <trkpt lat="37.32357" lon="-8.59902">
        <ele>772.56</ele>
        <time>2020-07-20T09:27:00Z</time>
      </trkpt>
      <trkpt lat="37.32356" lon="-8.59909">
        <ele>772.56</ele>
        <time>2020-07-20T09:27:01Z</time>
      </trkpt>
      <trkpt lat="37.32354" lon="-8.59916">
        <ele>772.56</ele>
        <time>2020-07-20T09:27:02Z</time>
      </trkpt>
      <trkpt lat="37.32352" lon="-8.59922">
        <ele>772.56</ele>
        <time>2020-07-20T09:27:03Z</time>
      </trkpt>
      <trkpt lat="37.32348" lon="-8.59929">
        <ele>772.56</ele>
        <time>2020-07-20T09:27:04Z</time>
      </trkpt>
      <trkpt lat="37.32326" lon="-8.5996">
        <ele>771.11</ele>
        <time>2020-07-20T09:27:09Z</time>
      </trkpt>
      <trkpt lat="37.32318" lon="-8.59973">
        <ele>771.11</ele>
        <time>2020-07-20T09:27:11Z</time>
      </trkpt>
      <trkpt lat="37.32315" lon="-8.59979">
        <ele>771.11</ele>
        <time>2020-07-20T09:27:12Z</time>
      </trkpt>
      <trkpt lat="37.32312" lon="-8.59986">
        <ele>770.63</ele>
        <time>2020-07-20T09:27:13Z</time>
      </trkpt>
      <trkpt lat="37.3231" lon="-8.59993">
        <ele>770.63</ele>
        <time>2020-07-20T09:27:14Z</time>
      </trkpt>
      <trkpt lat="37.32308" lon="-8.6">
        <ele>770.63</ele>
        <time>2020-07-20T09:27:15Z</time>
      </trkpt>
      <trkpt lat="37.32305" lon="-8.60015">
        <ele>770.63</ele>
        <time>2020-07-20T09:27:17Z</time>
      </trkpt>
      <trkpt lat="37.32293" lon="-8.60069">
        <ele>769.67</ele>
        <time>2020-07-20T09:27:25Z</time>
      </trkpt>
      <trkpt lat="37.32271" lon="-8.60123">
        <ele>768.71</ele>
        <time>2020-07-20T09:27:34Z</time>
      </trkpt>
      <trkpt lat="37.32261" lon="-8.60165">
        <ele>769.67</ele>
        <time>2020-07-20T09:27:42Z</time>
      </trkpt>
      <trkpt lat="37.32259" lon="-8.60169">
        <ele>770.15</ele>
        <time>2020-07-20T09:27:43Z</time>
      </trkpt>
      <trkpt lat="37.32257" lon="-8.60174">
        <ele>770.15</ele>
        <time>2020-07-20T09:27:44Z</time>
      </trkpt>
      <trkpt lat="37.32237" lon="-8.60217">
        <ele>769.67</ele>
        <time>2020-07-20T09:27:53Z</time>
      </trkpt>
      <trkpt lat="37.32225" lon="-8.60239">
        <ele>767.27</ele>
        <time>2020-07-20T09:27:57Z</time>
      </trkpt>
      <trkpt lat="37.32222" lon="-8.60246">
        <ele>766.31</ele>
        <time>2020-07-20T09:27:58Z</time>
      </trkpt>
      <trkpt lat="37.32215" lon="-8.60261">
        <ele>764.87</ele>
        <time>2020-07-20T09:28:00Z</time>
      </trkpt>
      <trkpt lat="37.32213" lon="-8.60269">
        <ele>764.87</ele>
        <time>2020-07-20T09:28:01Z</time>
      </trkpt>
      <trkpt lat="37.32211" lon="-8.60278">
        <ele>764.39</ele>
        <time>2020-07-20T09:28:02Z</time>
      </trkpt>
      <trkpt lat="37.32207" lon="-8.60296">
        <ele>763.9</ele>
        <time>2020-07-20T09:28:04Z</time>
      </trkpt>
      <trkpt lat="37.32206" lon="-8.60319">
        <ele>762.46</ele>
        <time>2020-07-20T09:28:07Z</time>
      </trkpt>
      <trkpt lat="37.32207" lon="-8.60326">
        <ele>761.5</ele>
        <time>2020-07-20T09:28:08Z</time>
      </trkpt>
      <trkpt lat="37.32208" lon="-8.60333">
        <ele>761.02</ele>
        <time>2020-07-20T09:28:09Z</time>
      </trkpt>
      <trkpt lat="37.32209" lon="-8.60341">
        <ele>760.54</ele>
        <time>2020-07-20T09:28:10Z</time>
      </trkpt>
      <trkpt lat="37.3221" lon="-8.6035">
        <ele>759.58</ele>
        <time>2020-07-20T09:28:11Z</time>
      </trkpt>
      <trkpt lat="37.32214" lon="-8.60385">
        <ele>756.69</ele>
        <time>2020-07-20T09:28:16Z</time>
      </trkpt>
      <trkpt lat="37.32216" lon="-8.60399">
        <ele>755.73</ele>
        <time>2020-07-20T09:28:18Z</time>
      </trkpt>
      <trkpt lat="37.32218" lon="-8.60422">
        <ele>753.33</ele>
        <time>2020-07-20T09:28:21Z</time>
      </trkpt>
      <trkpt lat="37.32218" lon="-8.60428">
        <ele>753.33</ele>
        <time>2020-07-20T09:28:22Z</time>
      </trkpt>
      <trkpt lat="37.32216" lon="-8.60435">
        <ele>753.33</ele>
        <time>2020-07-20T09:28:23Z</time>
      </trkpt>
      <trkpt lat="37.32203" lon="-8.6047">
        <ele>749.49</ele>
        <time>2020-07-20T09:28:29Z</time>
      </trkpt>
      <trkpt lat="37.322" lon="-8.60473">
        <ele>749</ele>
        <time>2020-07-20T09:28:30Z</time>
      </trkpt>
      <trkpt lat="37.32196" lon="-8.60478">
        <ele>748.52</ele>
        <time>2020-07-20T09:28:31Z</time>
      </trkpt>
      <trkpt lat="37.32193" lon="-8.60483">
        <ele>747.56</ele>
        <time>2020-07-20T09:28:32Z</time>
      </trkpt>
      <trkpt lat="37.32179" lon="-8.60506">
        <ele>745.64</ele>
        <time>2020-07-20T09:28:36Z</time>
      </trkpt>
      <trkpt lat="37.32158" lon="-8.60533">
        <ele>742.76</ele>
        <time>2020-07-20T09:28:41Z</time>
      </trkpt>
      <trkpt lat="37.32135" lon="-8.60564">
        <ele>738.91</ele>
        <time>2020-07-20T09:28:46Z</time>
      </trkpt>
      <trkpt lat="37.32129" lon="-8.6057">
        <ele>737.95</ele>
        <time>2020-07-20T09:28:47Z</time>
      </trkpt>
      <trkpt lat="37.32123" lon="-8.60574">
        <ele>737.47</ele>
        <time>2020-07-20T09:28:48Z</time>
      </trkpt>
      <trkpt lat="37.32118" lon="-8.60578">
        <ele>736.51</ele>
        <time>2020-07-20T09:28:49Z</time>
      </trkpt>
      <trkpt lat="37.32113" lon="-8.60581">
        <ele>736.03</ele>
        <time>2020-07-20T09:28:50Z</time>
      </trkpt>
      <trkpt lat="37.32109" lon="-8.60582">
        <ele>735.55</ele>
        <time>2020-07-20T09:28:51Z</time>
      </trkpt>
      <trkpt lat="37.32105" lon="-8.60582">
        <ele>734.58</ele>
        <time>2020-07-20T09:28:52Z</time>
      </trkpt>
      <trkpt lat="37.32102" lon="-8.6058">
        <ele>733.62</ele>
        <time>2020-07-20T09:28:53Z</time>
      </trkpt>
      <trkpt lat="37.32101" lon="-8.60576">
        <ele>733.62</ele>
        <time>2020-07-20T09:28:54Z</time>
      </trkpt>
      <trkpt lat="37.32101" lon="-8.60572">
        <ele>733.62</ele>
        <time>2020-07-20T09:28:55Z</time>
      </trkpt>
      <trkpt lat="37.32103" lon="-8.6057">
        <ele>733.62</ele>
        <time>2020-07-20T09:28:56Z</time>
      </trkpt>
      <trkpt lat="37.32105" lon="-8.60567">
        <ele>733.14</ele>
        <time>2020-07-20T09:28:57Z</time>
      </trkpt>
      <trkpt lat="37.32107" lon="-8.60565">
        <ele>733.14</ele>
        <time>2020-07-20T09:28:58Z</time>
      </trkpt>
      <trkpt lat="37.32124" lon="-8.6054">
        <ele>733.14</ele>
        <time>2020-07-20T09:29:05Z</time>
      </trkpt>
      <trkpt lat="37.32134" lon="-8.60523">
        <ele>734.58</ele>
        <time>2020-07-20T09:29:10Z</time>
      </trkpt>
      <trkpt lat="37.32147" lon="-8.60502">
        <ele>735.55</ele>
        <time>2020-07-20T09:29:18Z</time>
      </trkpt>
      <trkpt lat="37.32158" lon="-8.60483">
        <ele>736.03</ele>
        <time>2020-07-20T09:29:26Z</time>
      </trkpt>
      <trkpt lat="37.32168" lon="-8.60458">
        <ele>736.99</ele>
        <time>2020-07-20T09:29:36Z</time>
      </trkpt>
      <trkpt lat="37.32176" lon="-8.60436">
        <ele>737.47</ele>
        <time>2020-07-20T09:29:44Z</time>
      </trkpt>
      <trkpt lat="37.32171" lon="-8.60416">
        <ele>737.95</ele>
        <time>2020-07-20T09:29:50Z</time>
      </trkpt>
      <trkpt lat="37.32156" lon="-8.60388">
        <ele>737.95</ele>
        <time>2020-07-20T09:29:59Z</time>
      </trkpt>
      <trkpt lat="37.32149" lon="-8.60362">
        <ele>737.95</ele>
        <time>2020-07-20T09:30:06Z</time>
      </trkpt>
      <trkpt lat="37.32145" lon="-8.60335">
        <ele>738.43</ele>
        <time>2020-07-20T09:30:13Z</time>
      </trkpt>
      <trkpt lat="37.32138" lon="-8.60309">
        <ele>738.91</ele>
        <time>2020-07-20T09:30:20Z</time>
      </trkpt>
      <trkpt lat="37.32137" lon="-8.60284">
        <ele>738.91</ele>
        <time>2020-07-20T09:30:26Z</time>
      </trkpt>
      <trkpt lat="37.32147" lon="-8.60256">
        <ele>738.91</ele>
        <time>2020-07-20T09:30:33Z</time>
      </trkpt>
      <trkpt lat="37.32157" lon="-8.60229">
        <ele>739.39</ele>
        <time>2020-07-20T09:30:40Z</time>
      </trkpt>
      <trkpt lat="37.32163" lon="-8.60201">
        <ele>739.39</ele>
        <time>2020-07-20T09:30:47Z</time>
      </trkpt>
      <trkpt lat="37.32173" lon="-8.60171">
        <ele>739.87</ele>
        <time>2020-07-20T09:30:55Z</time>
      </trkpt>
      <trkpt lat="37.32182" lon="-8.60144">
        <ele>739.87</ele>
        <time>2020-07-20T09:31:03Z</time>
      </trkpt>
      <trkpt lat="37.32181" lon="-8.6014">
        <ele>739.87</ele>
        <time>2020-07-20T09:31:04Z</time>
      </trkpt>
      <trkpt lat="37.3218" lon="-8.60138">
        <ele>739.87</ele>
        <time>2020-07-20T09:31:05Z</time>
      </trkpt>
      <trkpt lat="37.32177" lon="-8.60136">
        <ele>739.87</ele>
        <time>2020-07-20T09:31:06Z</time>
      </trkpt>
      <trkpt lat="37.32175" lon="-8.60135">
        <ele>739.87</ele>
        <time>2020-07-20T09:31:07Z</time>
      </trkpt>
      <trkpt lat="37.32172" lon="-8.60135">
        <ele>739.87</ele>
        <time>2020-07-20T09:31:08Z</time>
      </trkpt>
      <trkpt lat="37.3217" lon="-8.60136">
        <ele>739.87</ele>
        <time>2020-07-20T09:31:09Z</time>
      </trkpt>
      <trkpt lat="37.32167" lon="-8.60136">
        <ele>739.87</ele>
        <time>2020-07-20T09:31:10Z</time>
      </trkpt>
      <trkpt lat="37.32164" lon="-8.60137">
        <ele>739.87</ele>
        <time>2020-07-20T09:31:11Z</time>
      </trkpt>
      <trkpt lat="37.32138" lon="-8.60146">
        <ele>739.87</ele>
        <time>2020-07-20T09:31:20Z</time>
      </trkpt>
      <trkpt lat="37.32101" lon="-8.60152">
        <ele>739.87</ele>
        <time>2020-07-20T09:31:32Z</time>
      </trkpt>
      <trkpt lat="37.32073" lon="-8.60155">
        <ele>740.35</ele>
        <time>2020-07-20T09:31:41Z</time>
      </trkpt>
      <trkpt lat="37.3205" lon="-8.60147">
        <ele>740.83</ele>
        <time>2020-07-20T09:31:49Z</time>
      </trkpt>
      <trkpt lat="37.3203" lon="-8.6014">
        <ele>741.31</ele>
        <time>2020-07-20T09:31:57Z</time>
      </trkpt>
      <trkpt lat="37.32007" lon="-8.60141">
        <ele>741.79</ele>
        <time>2020-07-20T09:32:05Z</time>
      </trkpt>
      <trkpt lat="37.31972" lon="-8.60138">
        <ele>742.28</ele>
        <time>2020-07-20T09:32:17Z</time>
      </trkpt>
      <trkpt lat="37.31944" lon="-8.60129">
        <ele>742.76</ele>
        <time>2020-07-20T09:32:27Z</time>
      </trkpt>
      <trkpt lat="37.31914" lon="-8.60118">
        <ele>743.24</ele>
        <time>2020-07-20T09:32:37Z</time>
      </trkpt>
      <trkpt lat="37.31892" lon="-8.60096">
        <ele>743.24</ele>
        <time>2020-07-20T09:32:45Z</time>
      </trkpt>
      <trkpt lat="37.3188" lon="-8.60088">
        <ele>743.24</ele>
        <time>2020-07-20T09:32:49Z</time>
      </trkpt>
      <trkpt lat="37.31876" lon="-8.60089">
        <ele>742.28</ele>
        <time>2020-07-20T09:32:50Z</time>
      </trkpt>
      <trkpt lat="37.31873" lon="-8.60091">
        <ele>742.28</ele>
        <time>2020-07-20T09:32:51Z</time>
      </trkpt>
      <trkpt lat="37.3187" lon="-8.60094">
        <ele>742.28</ele>
        <time>2020-07-20T09:32:52Z</time>
      </trkpt>
      <trkpt lat="37.31866" lon="-8.60097">
        <ele>742.28</ele>
        <time>2020-07-20T09:32:53Z</time>
      </trkpt>
      <trkpt lat="37.31853" lon="-8.6012">
        <ele>742.28</ele>
        <time>2020-07-20T09:33:00Z</time>
      </trkpt>
      <trkpt lat="37.31851" lon="-8.60146">
        <ele>744.2</ele>
        <time>2020-07-20T09:33:07Z</time>
      </trkpt>
      <trkpt lat="37.31844" lon="-8.60182">
        <ele>744.2</ele>
        <time>2020-07-20T09:33:17Z</time>
      </trkpt>
      <trkpt lat="37.3184" lon="-8.60211">
        <ele>746.12</ele>
        <time>2020-07-20T09:33:25Z</time>
      </trkpt>
      <trkpt lat="37.31833" lon="-8.60238">
        <ele>747.08</ele>
        <time>2020-07-20T09:33:33Z</time>
      </trkpt>
      <trkpt lat="37.31826" lon="-8.60269">
        <ele>747.56</ele>
        <time>2020-07-20T09:33:42Z</time>
      </trkpt>
      <trkpt lat="37.31817" lon="-8.60307">
        <ele>748.52</ele>
        <time>2020-07-20T09:33:52Z</time>
      </trkpt>
      <trkpt lat="37.31808" lon="-8.60352">
        <ele>749</ele>
        <time>2020-07-20T09:34:03Z</time>
      </trkpt>
      <trkpt lat="37.31801" lon="-8.60392">
        <ele>749.97</ele>
        <time>2020-07-20T09:34:14Z</time>
      </trkpt>
      <trkpt lat="37.31788" lon="-8.6042">
        <ele>749.97</ele>
        <time>2020-07-20T09:34:22Z</time>
      </trkpt>
      <trkpt lat="37.31765" lon="-8.60443">
        <ele>749.97</ele>
        <time>2020-07-20T09:34:31Z</time>
      </trkpt>
      <trkpt lat="37.31731" lon="-8.60472">
        <ele>750.45</ele>
        <time>2020-07-20T09:34:44Z</time>
      </trkpt>
      <trkpt lat="37.31702" lon="-8.60485">
        <ele>751.41</ele>
        <time>2020-07-20T09:34:54Z</time>
      </trkpt>
      <trkpt lat="37.31667" lon="-8.60503">
        <ele>751.41</ele>
        <time>2020-07-20T09:35:05Z</time>
      </trkpt>
      <trkpt lat="37.31633" lon="-8.60521">
        <ele>751.41</ele>
        <time>2020-07-20T09:35:15Z</time>
      </trkpt>
      <trkpt lat="37.3161" lon="-8.60529">
        <ele>751.89</ele>
        <time>2020-07-20T09:35:23Z</time>
      </trkpt>
      <trkpt lat="37.3159" lon="-8.60533">
        <ele>751.41</ele>
        <time>2020-07-20T09:35:29Z</time>
      </trkpt>
      <trkpt lat="37.31556" lon="-8.60534">
        <ele>751.89</ele>
        <time>2020-07-20T09:35:39Z</time>
      </trkpt>
      <trkpt lat="37.31531" lon="-8.60538">
        <ele>752.85</ele>
        <time>2020-07-20T09:35:48Z</time>
      </trkpt>
      <trkpt lat="37.31502" lon="-8.60544">
        <ele>753.81</ele>
        <time>2020-07-20T09:35:58Z</time>
      </trkpt>
      <trkpt lat="37.31471" lon="-8.60549">
        <ele>753.33</ele>
        <time>2020-07-20T09:36:08Z</time>
      </trkpt>
      <trkpt lat="37.31446" lon="-8.60553">
        <ele>753.33</ele>
        <time>2020-07-20T09:36:16Z</time>
      </trkpt>
      <trkpt lat="37.31415" lon="-8.60554">
        <ele>753.33</ele>
        <time>2020-07-20T09:36:26Z</time>
      </trkpt>
      <trkpt lat="37.31398" lon="-8.60561">
        <ele>753.81</ele>
        <time>2020-07-20T09:36:33Z</time>
      </trkpt>
      <trkpt lat="37.31379" lon="-8.60579">
        <ele>753.81</ele>
        <time>2020-07-20T09:36:40Z</time>
      </trkpt>
      <trkpt lat="37.31359" lon="-8.60605">
        <ele>753.81</ele>
        <time>2020-07-20T09:36:48Z</time>
      </trkpt>
      <trkpt lat="37.31346" lon="-8.60624">
        <ele>753.81</ele>
        <time>2020-07-20T09:36:54Z</time>
      </trkpt>
      <trkpt lat="37.31321" lon="-8.60653">
        <ele>753.81</ele>
        <time>2020-07-20T09:37:03Z</time>
      </trkpt>
      <trkpt lat="37.31299" lon="-8.6068">
        <ele>753.81</ele>
        <time>2020-07-20T09:37:11Z</time>
      </trkpt>
      <trkpt lat="37.31281" lon="-8.60707">
        <ele>754.29</ele>
        <time>2020-07-20T09:37:19Z</time>
      </trkpt>
      <trkpt lat="37.31265" lon="-8.60729">
        <ele>754.29</ele>
        <time>2020-07-20T09:37:27Z</time>
      </trkpt>
      <trkpt lat="37.31249" lon="-8.60753">
        <ele>754.29</ele>
        <time>2020-07-20T09:37:35Z</time>
      </trkpt>
      <trkpt lat="37.31231" lon="-8.60781">
        <ele>754.29</ele>
        <time>2020-07-20T09:37:43Z</time>
      </trkpt>
      <trkpt lat="37.31218" lon="-8.60812">
        <ele>754.29</ele>
        <time>2020-07-20T09:37:51Z</time>
      </trkpt>
      <trkpt lat="37.31196" lon="-8.60841">
        <ele>754.29</ele>
        <time>2020-07-20T09:38:00Z</time>
      </trkpt>
      <trkpt lat="37.31173" lon="-8.60858">
        <ele>754.77</ele>
        <time>2020-07-20T09:38:08Z</time>
      </trkpt>
      <trkpt lat="37.31153" lon="-8.60888">
        <ele>754.77</ele>
        <time>2020-07-20T09:38:17Z</time>
      </trkpt>
      <trkpt lat="37.31146" lon="-8.60924">
        <ele>754.77</ele>
        <time>2020-07-20T09:38:25Z</time>
      </trkpt>
      <trkpt lat="37.3114" lon="-8.60962">
        <ele>755.25</ele>
        <time>2020-07-20T09:38:34Z</time>
      </trkpt>
      <trkpt lat="37.31139" lon="-8.60997">
        <ele>756.69</ele>
        <time>2020-07-20T09:38:43Z</time>
      </trkpt>
      <trkpt lat="37.31145" lon="-8.61027">
        <ele>756.69</ele>
        <time>2020-07-20T09:38:51Z</time>
      </trkpt>
      <trkpt lat="37.31151" lon="-8.61042">
        <ele>756.69</ele>
        <time>2020-07-20T09:38:57Z</time>
      </trkpt>
      <trkpt lat="37.31155" lon="-8.61054">
        <ele>756.69</ele>
        <time>2020-07-20T09:39:03Z</time>
      </trkpt>
      <trkpt lat="37.31163" lon="-8.61071">
        <ele>757.18</ele>
        <time>2020-07-20T09:39:10Z</time>
      </trkpt>
      <trkpt lat="37.31162" lon="-8.61081">
        <ele>757.18</ele>
        <time>2020-07-20T09:39:14Z</time>
      </trkpt>
      <trkpt lat="37.31156" lon="-8.6108">
        <ele>757.18</ele>
        <time>2020-07-20T09:39:18Z</time>
      </trkpt>
      <trkpt lat="37.31154" lon="-8.61078">
        <ele>757.66</ele>
        <time>2020-07-20T09:39:19Z</time>
      </trkpt>
      <trkpt lat="37.31154" lon="-8.61076">
        <ele>757.66</ele>
        <time>2020-07-20T09:39:20Z</time>
      </trkpt>
      <trkpt lat="37.31153" lon="-8.61074">
        <ele>757.66</ele>
        <time>2020-07-20T09:39:21Z</time>
      </trkpt>
      <trkpt lat="37.31152" lon="-8.61072">
        <ele>758.14</ele>
        <time>2020-07-20T09:39:22Z</time>
      </trkpt>
      <trkpt lat="37.31151" lon="-8.61069">
        <ele>758.14</ele>
        <time>2020-07-20T09:39:23Z</time>
      </trkpt>
      <trkpt lat="37.3115" lon="-8.61068">
        <ele>758.62</ele>
        <time>2020-07-20T09:39:24Z</time>
      </trkpt>
      <trkpt lat="37.3114" lon="-8.61053">
        <ele>760.54</ele>
        <time>2020-07-20T09:39:32Z</time>
      </trkpt>
      <trkpt lat="37.31126" lon="-8.61037">
        <ele>762.46</ele>
        <time>2020-07-20T09:39:42Z</time>
      </trkpt>
      <trkpt lat="37.31113" lon="-8.61027">
        <ele>763.9</ele>
        <time>2020-07-20T09:39:50Z</time>
      </trkpt>
      <trkpt lat="37.31103" lon="-8.6101">
        <ele>766.79</ele>
        <time>2020-07-20T09:40:00Z</time>
      </trkpt>
      <trkpt lat="37.31098" lon="-8.60995">
        <ele>768.23</ele>
        <time>2020-07-20T09:40:07Z</time>
      </trkpt>
      <trkpt lat="37.31096" lon="-8.6098">
        <ele>770.15</ele>
        <time>2020-07-20T09:40:14Z</time>
      </trkpt>
      <trkpt lat="37.31091" lon="-8.6097">
        <ele>771.6</ele>
        <time>2020-07-20T09:40:20Z</time>
      </trkpt>
      <trkpt lat="37.31089" lon="-8.6097">
        <ele>772.08</ele>
        <time>2020-07-20T09:40:21Z</time>
      </trkpt>
      <trkpt lat="37.31088" lon="-8.60972">
        <ele>772.08</ele>
        <time>2020-07-20T09:40:22Z</time>
      </trkpt>
      <trkpt lat="37.31088" lon="-8.60973">
        <ele>772.08</ele>
        <time>2020-07-20T09:40:23Z</time>
      </trkpt>
      <trkpt lat="37.31088" lon="-8.60976">
        <ele>772.08</ele>
        <time>2020-07-20T09:40:24Z</time>
      </trkpt>
      <trkpt lat="37.31088" lon="-8.60979">
        <ele>772.08</ele>
        <time>2020-07-20T09:40:25Z</time>
      </trkpt>
      <trkpt lat="37.31088" lon="-8.60982">
        <ele>772.08</ele>
        <time>2020-07-20T09:40:26Z</time>
      </trkpt>
      <trkpt lat="37.31086" lon="-8.60998">
        <ele>772.08</ele>
        <time>2020-07-20T09:40:33Z</time>
      </trkpt>
      <trkpt lat="37.31085" lon="-8.61">
        <ele>772.08</ele>
        <time>2020-07-20T09:40:34Z</time>
      </trkpt>
      <trkpt lat="37.31085" lon="-8.61001">
        <ele>772.08</ele>
        <time>2020-07-20T09:40:35Z</time>
      </trkpt>
      <trkpt lat="37.31085" lon="-8.61017">
        <ele>772.08</ele>
        <time>2020-07-20T09:40:43Z</time>
      </trkpt>
      <trkpt lat="37.31084" lon="-8.61037">
        <ele>772.08</ele>
        <time>2020-07-20T09:40:53Z</time>
      </trkpt>
      <trkpt lat="37.31082" lon="-8.61053">
        <ele>772.56</ele>
        <time>2020-07-20T09:41:00Z</time>
      </trkpt>
      <trkpt lat="37.31081" lon="-8.6108">
        <ele>773.52</ele>
        <time>2020-07-20T09:41:11Z</time>
      </trkpt>
      <trkpt lat="37.31078" lon="-8.61108">
        <ele>774.48</ele>
        <time>2020-07-20T09:41:22Z</time>
      </trkpt>
      <trkpt lat="37.31073" lon="-8.61135">
        <ele>774.96</ele>
        <time>2020-07-20T09:41:32Z</time>
      </trkpt>
      <trkpt lat="37.31068" lon="-8.61159">
        <ele>776.4</ele>
        <time>2020-07-20T09:41:41Z</time>
      </trkpt>
      <trkpt lat="37.31064" lon="-8.61181">
        <ele>778.32</ele>
        <time>2020-07-20T09:41:50Z</time>
      </trkpt>
      <trkpt lat="37.31059" lon="-8.61204">
        <ele>779.29</ele>
        <time>2020-07-20T09:41:59Z</time>
      </trkpt>
      <trkpt lat="37.31048" lon="-8.61231">
        <ele>779.77</ele>
        <time>2020-07-20T09:42:09Z</time>
      </trkpt>
      <trkpt lat="37.31034" lon="-8.61254">
        <ele>779.77</ele>
        <time>2020-07-20T09:42:17Z</time>
      </trkpt>
      <trkpt lat="37.31021" lon="-8.61276">
        <ele>780.25</ele>
        <time>2020-07-20T09:42:25Z</time>
      </trkpt>
      <trkpt lat="37.31013" lon="-8.61298">
        <ele>781.69</ele>
        <time>2020-07-20T09:42:33Z</time>
      </trkpt>
      <trkpt lat="37.31008" lon="-8.61316">
        <ele>782.17</ele>
        <time>2020-07-20T09:42:41Z</time>
      </trkpt>
      <trkpt lat="37.31009" lon="-8.61315">
        <ele>782.17</ele>
        <time>2020-07-20T09:42:49Z</time>
      </trkpt>
      <trkpt lat="37.3101" lon="-8.61319">
        <ele>782.17</ele>
        <time>2020-07-20T09:43:06Z</time>
      </trkpt>
      <trkpt lat="37.31007" lon="-8.61332">
        <ele>782.17</ele>
        <time>2020-07-20T09:43:09Z</time>
      </trkpt>
      <trkpt lat="37.31004" lon="-8.61345">
        <ele>779.77</ele>
        <time>2020-07-20T09:43:11Z</time>
      </trkpt>
      <trkpt lat="37.31003" lon="-8.61353">
        <ele>779.29</ele>
        <time>2020-07-20T09:43:12Z</time>
      </trkpt>
      <trkpt lat="37.30999" lon="-8.61397">
        <ele>775.44</ele>
        <time>2020-07-20T09:43:16Z</time>
      </trkpt>
      <trkpt lat="37.30997" lon="-8.61431">
        <ele>772.08</ele>
        <time>2020-07-20T09:43:19Z</time>
      </trkpt>
      <trkpt lat="37.30989" lon="-8.61466">
        <ele>768.23</ele>
        <time>2020-07-20T09:43:22Z</time>
      </trkpt>
      <trkpt lat="37.30985" lon="-8.61477">
        <ele>767.27</ele>
        <time>2020-07-20T09:43:23Z</time>
      </trkpt>
      <trkpt lat="37.30979" lon="-8.61489">
        <ele>766.31</ele>
        <time>2020-07-20T09:43:24Z</time>
      </trkpt>
      <trkpt lat="37.30972" lon="-8.615">
        <ele>764.87</ele>
        <time>2020-07-20T09:43:25Z</time>
      </trkpt>
      <trkpt lat="37.30966" lon="-8.6151">
        <ele>763.42</ele>
        <time>2020-07-20T09:43:26Z</time>
      </trkpt>
      <trkpt lat="37.30958" lon="-8.6152">
        <ele>762.94</ele>
        <time>2020-07-20T09:43:27Z</time>
      </trkpt>
      <trkpt lat="37.30925" lon="-8.61557">
        <ele>759.1</ele>
        <time>2020-07-20T09:43:31Z</time>
      </trkpt>
      <trkpt lat="37.30906" lon="-8.61573">
        <ele>757.18</ele>
        <time>2020-07-20T09:43:33Z</time>
      </trkpt>
      <trkpt lat="37.30875" lon="-8.61592">
        <ele>753.81</ele>
        <time>2020-07-20T09:43:36Z</time>
      </trkpt>
      <trkpt lat="37.30838" lon="-8.61615">
        <ele>749.97</ele>
        <time>2020-07-20T09:43:40Z</time>
      </trkpt>
      <trkpt lat="37.3081" lon="-8.61629">
        <ele>746.6</ele>
        <time>2020-07-20T09:43:43Z</time>
      </trkpt>
      <trkpt lat="37.30781" lon="-8.61641">
        <ele>743.24</ele>
        <time>2020-07-20T09:43:46Z</time>
      </trkpt>
      <trkpt lat="37.30772" lon="-8.61643">
        <ele>741.79</ele>
        <time>2020-07-20T09:43:47Z</time>
      </trkpt>
      <trkpt lat="37.30762" lon="-8.61644">
        <ele>740.83</ele>
        <time>2020-07-20T09:43:48Z</time>
      </trkpt>
      <trkpt lat="37.30753" lon="-8.61644">
        <ele>739.39</ele>
        <time>2020-07-20T09:43:49Z</time>
      </trkpt>
      <trkpt lat="37.30736" lon="-8.61643">
        <ele>737.95</ele>
        <time>2020-07-20T09:43:51Z</time>
      </trkpt>
      <trkpt lat="37.30729" lon="-8.61645">
        <ele>737.47</ele>
        <time>2020-07-20T09:43:52Z</time>
      </trkpt>
      <trkpt lat="37.30723" lon="-8.61649">
        <ele>736.51</ele>
        <time>2020-07-20T09:43:53Z</time>
      </trkpt>
      <trkpt lat="37.30719" lon="-8.61654">
        <ele>735.55</ele>
        <time>2020-07-20T09:43:54Z</time>
      </trkpt>
      <trkpt lat="37.30716" lon="-8.61661">
        <ele>734.58</ele>
        <time>2020-07-20T09:43:55Z</time>
      </trkpt>
      <trkpt lat="37.30715" lon="-8.6167">
        <ele>734.1</ele>
        <time>2020-07-20T09:43:56Z</time>
      </trkpt>
      <trkpt lat="37.30715" lon="-8.61679">
        <ele>733.14</ele>
        <time>2020-07-20T09:43:57Z</time>
      </trkpt>
      <trkpt lat="37.30717" lon="-8.61688">
        <ele>732.18</ele>
        <time>2020-07-20T09:43:58Z</time>
      </trkpt>
      <trkpt lat="37.3072" lon="-8.61697">
        <ele>731.7</ele>
        <time>2020-07-20T09:43:59Z</time>
      </trkpt>
      <trkpt lat="37.30723" lon="-8.61705">
        <ele>731.22</ele>
        <time>2020-07-20T09:44:00Z</time>
      </trkpt>
      <trkpt lat="37.30724" lon="-8.61715">
        <ele>731.22</ele>
        <time>2020-07-20T09:44:01Z</time>
      </trkpt>
      <trkpt lat="37.30723" lon="-8.61724">
        <ele>730.74</ele>
        <time>2020-07-20T09:44:02Z</time>
      </trkpt>
      <trkpt lat="37.30721" lon="-8.61734">
        <ele>729.78</ele>
        <time>2020-07-20T09:44:03Z</time>
      </trkpt>
      <trkpt lat="37.30718" lon="-8.61743">
        <ele>728.82</ele>
        <time>2020-07-20T09:44:04Z</time>
      </trkpt>
      <trkpt lat="37.30714" lon="-8.61753">
        <ele>727.86</ele>
        <time>2020-07-20T09:44:05Z</time>
      </trkpt>
      <trkpt lat="37.3071" lon="-8.61763">
        <ele>726.41</ele>
        <time>2020-07-20T09:44:06Z</time>
      </trkpt>
      <trkpt lat="37.30701" lon="-8.61783">
        <ele>722.57</ele>
        <time>2020-07-20T09:44:08Z</time>
      </trkpt>
      <trkpt lat="37.30697" lon="-8.61795">
        <ele>720.65</ele>
        <time>2020-07-20T09:44:09Z</time>
      </trkpt>
      <trkpt lat="37.30694" lon="-8.61807">
        <ele>718.24</ele>
        <time>2020-07-20T09:44:10Z</time>
      </trkpt>
      <trkpt lat="37.30692" lon="-8.61821">
        <ele>716.32</ele>
        <time>2020-07-20T09:44:11Z</time>
      </trkpt>
      <trkpt lat="37.30689" lon="-8.61851">
        <ele>712.95</ele>
        <time>2020-07-20T09:44:13Z</time>
      </trkpt>
      <trkpt lat="37.30686" lon="-8.61881">
        <ele>709.59</ele>
        <time>2020-07-20T09:44:15Z</time>
      </trkpt>
      <trkpt lat="37.30684" lon="-8.61911">
        <ele>709.11</ele>
        <time>2020-07-20T09:44:17Z</time>
      </trkpt>
      <trkpt lat="37.30685" lon="-8.61942">
        <ele>707.19</ele>
        <time>2020-07-20T09:44:19Z</time>
      </trkpt>
      <trkpt lat="37.30688" lon="-8.62004">
        <ele>706.71</ele>
        <time>2020-07-20T09:44:24Z</time>
      </trkpt>
      <trkpt lat="37.30687" lon="-8.62019">
        <ele>706.71</ele>
        <time>2020-07-20T09:44:26Z</time>
      </trkpt>
      <trkpt lat="37.30686" lon="-8.62025">
        <ele>707.19</ele>
        <time>2020-07-20T09:44:27Z</time>
      </trkpt>
      <trkpt lat="37.30682" lon="-8.6203">
        <ele>707.19</ele>
        <time>2020-07-20T09:44:28Z</time>
      </trkpt>
      <trkpt lat="37.30678" lon="-8.62033">
        <ele>707.19</ele>
        <time>2020-07-20T09:44:29Z</time>
      </trkpt>
      <trkpt lat="37.30676" lon="-8.62034">
        <ele>707.19</ele>
        <time>2020-07-20T09:44:30Z</time>
      </trkpt>
      <trkpt lat="37.30657" lon="-8.62057">
        <ele>707.19</ele>
        <time>2020-07-20T09:44:37Z</time>
      </trkpt>
      <trkpt lat="37.30649" lon="-8.62082">
        <ele>707.19</ele>
        <time>2020-07-20T09:44:43Z</time>
      </trkpt>
      <trkpt lat="37.30644" lon="-8.62115">
        <ele>706.23</ele>
        <time>2020-07-20T09:44:49Z</time>
      </trkpt>
      <trkpt lat="37.30642" lon="-8.6212">
        <ele>706.23</ele>
        <time>2020-07-20T09:44:50Z</time>
      </trkpt>
      <trkpt lat="37.30639" lon="-8.62124">
        <ele>705.26</ele>
        <time>2020-07-20T09:44:51Z</time>
      </trkpt>
      <trkpt lat="37.3062" lon="-8.62156">
        <ele>703.34</ele>
        <time>2020-07-20T09:44:58Z</time>
      </trkpt>
      <trkpt lat="37.30609" lon="-8.62176">
        <ele>700.94</ele>
        <time>2020-07-20T09:45:04Z</time>
      </trkpt>
      <trkpt lat="37.30593" lon="-8.62185">
        <ele>699.5</ele>
        <time>2020-07-20T09:45:09Z</time>
      </trkpt>
      <trkpt lat="37.30589" lon="-8.62187">
        <ele>699.5</ele>
        <time>2020-07-20T09:45:10Z</time>
      </trkpt>
      <trkpt lat="37.30585" lon="-8.62188">
        <ele>699.5</ele>
        <time>2020-07-20T09:45:11Z</time>
      </trkpt>
      <trkpt lat="37.30582" lon="-8.6219">
        <ele>699.5</ele>
        <time>2020-07-20T09:45:12Z</time>
      </trkpt>
      <trkpt lat="37.30579" lon="-8.62192">
        <ele>699.5</ele>
        <time>2020-07-20T09:45:13Z</time>
      </trkpt>
      <trkpt lat="37.30576" lon="-8.62195">
        <ele>699.5</ele>
        <time>2020-07-20T09:45:14Z</time>
      </trkpt>
      <trkpt lat="37.30573" lon="-8.62198">
        <ele>698.53</ele>
        <time>2020-07-20T09:45:15Z</time>
      </trkpt>
      <trkpt lat="37.30569" lon="-8.62202">
        <ele>698.53</ele>
        <time>2020-07-20T09:45:16Z</time>
      </trkpt>
      <trkpt lat="37.30551" lon="-8.62216">
        <ele>697.09</ele>
        <time>2020-07-20T09:45:21Z</time>
      </trkpt>
      <trkpt lat="37.30547" lon="-8.62218">
        <ele>696.13</ele>
        <time>2020-07-20T09:45:22Z</time>
      </trkpt>
      <trkpt lat="37.30538" lon="-8.62222">
        <ele>695.65</ele>
        <time>2020-07-20T09:45:24Z</time>
      </trkpt>
      <trkpt lat="37.30517" lon="-8.62233">
        <ele>693.73</ele>
        <time>2020-07-20T09:45:29Z</time>
      </trkpt>
      <trkpt lat="37.305" lon="-8.62241">
        <ele>691.81</ele>
        <time>2020-07-20T09:45:34Z</time>
      </trkpt>
      <trkpt lat="37.30489" lon="-8.62245">
        <ele>689.88</ele>
        <time>2020-07-20T09:45:37Z</time>
      </trkpt>
      <trkpt lat="37.30485" lon="-8.62244">
        <ele>689.4</ele>
        <time>2020-07-20T09:45:38Z</time>
      </trkpt>
      <trkpt lat="37.30481" lon="-8.62243">
        <ele>688.92</ele>
        <time>2020-07-20T09:45:39Z</time>
      </trkpt>
      <trkpt lat="37.30473" lon="-8.62244">
        <ele>688.44</ele>
        <time>2020-07-20T09:45:41Z</time>
      </trkpt>
      <trkpt lat="37.30469" lon="-8.62244">
        <ele>687</ele>
        <time>2020-07-20T09:45:42Z</time>
      </trkpt>
      <trkpt lat="37.30465" lon="-8.62244">
        <ele>686.52</ele>
        <time>2020-07-20T09:45:43Z</time>
      </trkpt>
      <trkpt lat="37.30462" lon="-8.62244">
        <ele>686.04</ele>
        <time>2020-07-20T09:45:44Z</time>
      </trkpt>
      <trkpt lat="37.3046" lon="-8.62245">
        <ele>686.04</ele>
        <time>2020-07-20T09:45:48Z</time>
      </trkpt>
      <trkpt lat="37.3046" lon="-8.62246">
        <ele>686.04</ele>
        <time>2020-07-20T09:45:50Z</time>
      </trkpt>
      <trkpt lat="37.30464" lon="-8.62248">
        <ele>686.04</ele>
        <time>2020-07-20T09:45:53Z</time>
      </trkpt>
      <trkpt lat="37.30482" lon="-8.62264">
        <ele>685.56</ele>
        <time>2020-07-20T09:46:01Z</time>
      </trkpt>
      <trkpt lat="37.305" lon="-8.62276">
        <ele>685.56</ele>
        <time>2020-07-20T09:46:07Z</time>
      </trkpt>
      <trkpt lat="37.30505" lon="-8.62276">
        <ele>685.56</ele>
        <time>2020-07-20T09:46:08Z</time>
      </trkpt>
      <trkpt lat="37.30509" lon="-8.62277">
        <ele>685.56</ele>
        <time>2020-07-20T09:46:09Z</time>
      </trkpt>
      <trkpt lat="37.30514" lon="-8.62278">
        <ele>685.56</ele>
        <time>2020-07-20T09:46:10Z</time>
      </trkpt>
      <trkpt lat="37.30519" lon="-8.6228">
        <ele>684.6</ele>
        <time>2020-07-20T09:46:11Z</time>
      </trkpt>
      <trkpt lat="37.30555" lon="-8.62293">
        <ele>683.63</ele>
        <time>2020-07-20T09:46:19Z</time>
      </trkpt>
      <trkpt lat="37.30564" lon="-8.62308">
        <ele>683.63</ele>
        <time>2020-07-20T09:46:24Z</time>
      </trkpt>
      <trkpt lat="37.30566" lon="-8.62311">
        <ele>683.63</ele>
        <time>2020-07-20T09:46:29Z</time>
      </trkpt>
      <trkpt lat="37.3057" lon="-8.62315">
        <ele>683.15</ele>
        <time>2020-07-20T09:46:37Z</time>
      </trkpt>
      <trkpt lat="37.30579" lon="-8.62325">
        <ele>683.15</ele>
        <time>2020-07-20T09:46:43Z</time>
      </trkpt>
      <trkpt lat="37.30593" lon="-8.6234">
        <ele>683.15</ele>
        <time>2020-07-20T09:46:49Z</time>
      </trkpt>
      <trkpt lat="37.3061" lon="-8.62363">
        <ele>683.15</ele>
        <time>2020-07-20T09:46:56Z</time>
      </trkpt>
      <trkpt lat="37.30632" lon="-8.62377">
        <ele>683.15</ele>
        <time>2020-07-20T09:47:03Z</time>
      </trkpt>
      <trkpt lat="37.30659" lon="-8.62384">
        <ele>683.15</ele>
        <time>2020-07-20T09:47:10Z</time>
      </trkpt>
      <trkpt lat="37.30688" lon="-8.62395">
        <ele>682.67</ele>
        <time>2020-07-20T09:47:18Z</time>
      </trkpt>
      <trkpt lat="37.30714" lon="-8.62413">
        <ele>680.27</ele>
        <time>2020-07-20T09:47:25Z</time>
      </trkpt>
      <trkpt lat="37.30718" lon="-8.62415">
        <ele>680.27</ele>
        <time>2020-07-20T09:47:26Z</time>
      </trkpt>
      <trkpt lat="37.30724" lon="-8.62421">
        <ele>679.31</ele>
        <time>2020-07-20T09:47:28Z</time>
      </trkpt>
      <trkpt lat="37.30726" lon="-8.62427">
        <ele>678.83</ele>
        <time>2020-07-20T09:47:30Z</time>
      </trkpt>
      <trkpt lat="37.30725" lon="-8.6243">
        <ele>677.87</ele>
        <time>2020-07-20T09:47:32Z</time>
      </trkpt>
      <trkpt lat="37.30724" lon="-8.62432">
        <ele>677.39</ele>
        <time>2020-07-20T09:47:33Z</time>
      </trkpt>
      <trkpt lat="37.30722" lon="-8.62434">
        <ele>677.39</ele>
        <time>2020-07-20T09:47:39Z</time>
      </trkpt>
      <trkpt lat="37.30717" lon="-8.62439">
        <ele>676.91</ele>
        <time>2020-07-20T09:47:47Z</time>
      </trkpt>
      <trkpt lat="37.30703" lon="-8.62449">
        <ele>673.54</ele>
        <time>2020-07-20T09:47:51Z</time>
      </trkpt>
      <trkpt lat="37.30684" lon="-8.62456">
        <ele>670.66</ele>
        <time>2020-07-20T09:47:56Z</time>
      </trkpt>
      <trkpt lat="37.30669" lon="-8.6246">
        <ele>666.81</ele>
        <time>2020-07-20T09:48:00Z</time>
      </trkpt>
      <trkpt lat="37.30663" lon="-8.62467">
        <ele>664.89</ele>
        <time>2020-07-20T09:48:03Z</time>
      </trkpt>
      <trkpt lat="37.30663" lon="-8.62472">
        <ele>663.93</ele>
        <time>2020-07-20T09:48:04Z</time>
      </trkpt>
      <trkpt lat="37.30664" lon="-8.62475">
        <ele>663.93</ele>
        <time>2020-07-20T09:48:05Z</time>
      </trkpt>
      <trkpt lat="37.30673" lon="-8.62495">
        <ele>660.56</ele>
        <time>2020-07-20T09:48:09Z</time>
      </trkpt>
      <trkpt lat="37.30684" lon="-8.62516">
        <ele>656.72</ele>
        <time>2020-07-20T09:48:13Z</time>
      </trkpt>
      <trkpt lat="37.30687" lon="-8.6252">
        <ele>656.24</ele>
        <time>2020-07-20T09:48:14Z</time>
      </trkpt>
      <trkpt lat="37.30695" lon="-8.62528">
        <ele>654.8</ele>
        <time>2020-07-20T09:48:16Z</time>
      </trkpt>
      <trkpt lat="37.30703" lon="-8.62536">
        <ele>652.87</ele>
        <time>2020-07-20T09:48:18Z</time>
      </trkpt>
      <trkpt lat="37.30715" lon="-8.62552">
        <ele>648.55</ele>
        <time>2020-07-20T09:48:23Z</time>
      </trkpt>
      <trkpt lat="37.30706" lon="-8.6256">
        <ele>647.59</ele>
        <time>2020-07-20T09:48:26Z</time>
      </trkpt>
      <trkpt lat="37.30677" lon="-8.62568">
        <ele>644.7</ele>
        <time>2020-07-20T09:48:32Z</time>
      </trkpt>
      <trkpt lat="37.30654" lon="-8.62582">
        <ele>639.41</ele>
        <time>2020-07-20T09:48:37Z</time>
      </trkpt>
      <trkpt lat="37.30649" lon="-8.62585">
        <ele>638.45</ele>
        <time>2020-07-20T09:48:38Z</time>
      </trkpt>
      <trkpt lat="37.30635" lon="-8.62588">
        <ele>635.57</ele>
        <time>2020-07-20T09:48:41Z</time>
      </trkpt>
      <trkpt lat="37.30625" lon="-8.62601">
        <ele>632.68</ele>
        <time>2020-07-20T09:48:45Z</time>
      </trkpt>
      <trkpt lat="37.30628" lon="-8.62618">
        <ele>629.32</ele>
        <time>2020-07-20T09:48:48Z</time>
      </trkpt>
      <trkpt lat="37.30632" lon="-8.62629">
        <ele>626.92</ele>
        <time>2020-07-20T09:48:50Z</time>
      </trkpt>
      <trkpt lat="37.30637" lon="-8.62647">
        <ele>624.51</ele>
        <time>2020-07-20T09:48:55Z</time>
      </trkpt>
      <trkpt lat="37.30654" lon="-8.62659">
        <ele>621.63</ele>
        <time>2020-07-20T09:49:00Z</time>
      </trkpt>
      <trkpt lat="37.30678" lon="-8.62683">
        <ele>619.71</ele>
        <time>2020-07-20T09:49:06Z</time>
      </trkpt>
      <trkpt lat="37.30696" lon="-8.62708">
        <ele>619.23</ele>
        <time>2020-07-20T09:49:13Z</time>
      </trkpt>
      <trkpt lat="37.30707" lon="-8.62724">
        <ele>617.78</ele>
        <time>2020-07-20T09:49:20Z</time>
      </trkpt>
      <trkpt lat="37.30717" lon="-8.6274">
        <ele>617.3</ele>
        <time>2020-07-20T09:49:27Z</time>
      </trkpt>
      <trkpt lat="37.30724" lon="-8.62759">
        <ele>615.38</ele>
        <time>2020-07-20T09:49:33Z</time>
      </trkpt>
      <trkpt lat="37.30726" lon="-8.62764">
        <ele>614.42</ele>
        <time>2020-07-20T09:49:35Z</time>
      </trkpt>
      <trkpt lat="37.30717" lon="-8.62763">
        <ele>613.46</ele>
        <time>2020-07-20T09:49:40Z</time>
      </trkpt>
      <trkpt lat="37.3071" lon="-8.62756">
        <ele>611.54</ele>
        <time>2020-07-20T09:49:42Z</time>
      </trkpt>
      <trkpt lat="37.30702" lon="-8.62764">
        <ele>609.13</ele>
        <time>2020-07-20T09:49:46Z</time>
      </trkpt>
      <trkpt lat="37.30703" lon="-8.62769">
        <ele>608.65</ele>
        <time>2020-07-20T09:49:47Z</time>
      </trkpt>
      <trkpt lat="37.30711" lon="-8.62799">
        <ele>602.88</ele>
        <time>2020-07-20T09:49:52Z</time>
      </trkpt>
      <trkpt lat="37.30711" lon="-8.62808">
        <ele>601.44</ele>
        <time>2020-07-20T09:49:54Z</time>
      </trkpt>
      <trkpt lat="37.30705" lon="-8.62818">
        <ele>600</ele>
        <time>2020-07-20T09:49:57Z</time>
      </trkpt>
      <trkpt lat="37.3069" lon="-8.62815">
        <ele>597.6</ele>
        <time>2020-07-20T09:50:01Z</time>
      </trkpt>
      <trkpt lat="37.30681" lon="-8.62809">
        <ele>596.15</ele>
        <time>2020-07-20T09:50:03Z</time>
      </trkpt>
      <trkpt lat="37.30672" lon="-8.62802">
        <ele>594.71</ele>
        <time>2020-07-20T09:50:05Z</time>
      </trkpt>
      <trkpt lat="37.3065" lon="-8.62801">
        <ele>590.87</ele>
        <time>2020-07-20T09:50:10Z</time>
      </trkpt>
      <trkpt lat="37.30634" lon="-8.62811">
        <ele>587.02</ele>
        <time>2020-07-20T09:50:13Z</time>
      </trkpt>
      <trkpt lat="37.30615" lon="-8.62817">
        <ele>582.22</ele>
        <time>2020-07-20T09:50:16Z</time>
      </trkpt>
      <trkpt lat="37.30597" lon="-8.62833">
        <ele>581.73</ele>
        <time>2020-07-20T09:50:20Z</time>
      </trkpt>
      <trkpt lat="37.30597" lon="-8.62839">
        <ele>581.73</ele>
        <time>2020-07-20T09:50:21Z</time>
      </trkpt>
      <trkpt lat="37.30596" lon="-8.62852">
        <ele>581.73</ele>
        <time>2020-07-20T09:50:23Z</time>
      </trkpt>
      <trkpt lat="37.30594" lon="-8.62866">
        <ele>581.73</ele>
        <time>2020-07-20T09:50:25Z</time>
      </trkpt>
      <trkpt lat="37.30579" lon="-8.629">
        <ele>576.93</ele>
        <time>2020-07-20T09:50:31Z</time>
      </trkpt>
      <trkpt lat="37.30575" lon="-8.62905">
        <ele>576.45</ele>
        <time>2020-07-20T09:50:32Z</time>
      </trkpt>
      <trkpt lat="37.30557" lon="-8.6292">
        <ele>571.64</ele>
        <time>2020-07-20T09:50:36Z</time>
      </trkpt>
      <trkpt lat="37.30533" lon="-8.62927">
        <ele>566.83</ele>
        <time>2020-07-20T09:50:41Z</time>
      </trkpt>
      <trkpt lat="37.30526" lon="-8.62926">
        <ele>566.35</ele>
        <time>2020-07-20T09:50:42Z</time>
      </trkpt>
      <trkpt lat="37.30513" lon="-8.62924">
        <ele>566.35</ele>
        <time>2020-07-20T09:50:44Z</time>
      </trkpt>
      <trkpt lat="37.30495" lon="-8.62918">
        <ele>565.87</ele>
        <time>2020-07-20T09:50:47Z</time>
      </trkpt>
      <trkpt lat="37.30471" lon="-8.62923">
        <ele>565.87</ele>
        <time>2020-07-20T09:50:52Z</time>
      </trkpt>
      <trkpt lat="37.30447" lon="-8.62941">
        <ele>565.87</ele>
        <time>2020-07-20T09:51:00Z</time>
      </trkpt>
      <trkpt lat="37.30423" lon="-8.62966">
        <ele>565.39</ele>
        <time>2020-07-20T09:51:09Z</time>
      </trkpt>
      <trkpt lat="37.30406" lon="-8.6298">
        <ele>564.43</ele>
        <time>2020-07-20T09:51:14Z</time>
      </trkpt>
      <trkpt lat="37.30398" lon="-8.6298">
        <ele>564.43</ele>
        <time>2020-07-20T09:51:16Z</time>
      </trkpt>
      <trkpt lat="37.30396" lon="-8.62977">
        <ele>564.43</ele>
        <time>2020-07-20T09:51:17Z</time>
      </trkpt>
      <trkpt lat="37.30395" lon="-8.62975">
        <ele>564.43</ele>
        <time>2020-07-20T09:51:18Z</time>
      </trkpt>
      <trkpt lat="37.30394" lon="-8.62973">
        <ele>564.43</ele>
        <time>2020-07-20T09:51:19Z</time>
      </trkpt>
      <trkpt lat="37.30392" lon="-8.6297">
        <ele>564.43</ele>
        <time>2020-07-20T09:51:20Z</time>
      </trkpt>
      <trkpt lat="37.30391" lon="-8.62967">
        <ele>564.43</ele>
        <time>2020-07-20T09:51:21Z</time>
      </trkpt>
      <trkpt lat="37.3039" lon="-8.62964">
        <ele>564.43</ele>
        <time>2020-07-20T09:51:22Z</time>
      </trkpt>
      <trkpt lat="37.30387" lon="-8.62962">
        <ele>564.43</ele>
        <time>2020-07-20T09:51:23Z</time>
      </trkpt>
      <trkpt lat="37.30375" lon="-8.62957">
        <ele>563.95</ele>
        <time>2020-07-20T09:51:27Z</time>
      </trkpt>
      <trkpt lat="37.3035" lon="-8.62951">
        <ele>562.51</ele>
        <time>2020-07-20T09:51:33Z</time>
      </trkpt>
      <trkpt lat="37.30343" lon="-8.62947">
        <ele>562.03</ele>
        <time>2020-07-20T09:51:35Z</time>
      </trkpt>
      <trkpt lat="37.30328" lon="-8.62935">
        <ele>561.55</ele>
        <time>2020-07-20T09:51:42Z</time>
      </trkpt>
      <trkpt lat="37.30311" lon="-8.62915">
        <ele>561.55</ele>
        <time>2020-07-20T09:51:50Z</time>
      </trkpt>
      <trkpt lat="37.30293" lon="-8.62897">
        <ele>561.55</ele>
        <time>2020-07-20T09:51:57Z</time>
      </trkpt>
      <trkpt lat="37.30278" lon="-8.62881">
        <ele>561.07</ele>
        <time>2020-07-20T09:52:04Z</time>
      </trkpt>
      <trkpt lat="37.30265" lon="-8.62862">
        <ele>560.59</ele>
        <time>2020-07-20T09:52:10Z</time>
      </trkpt>
      <trkpt lat="37.30255" lon="-8.62846">
        <ele>560.59</ele>
        <time>2020-07-20T09:52:16Z</time>
      </trkpt>
      <trkpt lat="37.30246" lon="-8.62828">
        <ele>560.59</ele>
        <time>2020-07-20T09:52:22Z</time>
      </trkpt>
      <trkpt lat="37.30238" lon="-8.62812">
        <ele>560.59</ele>
        <time>2020-07-20T09:52:27Z</time>
      </trkpt>
      <trkpt lat="37.30236" lon="-8.62793">
        <ele>562.03</ele>
        <time>2020-07-20T09:52:33Z</time>
      </trkpt>
      <trkpt lat="37.30237" lon="-8.62777">
        <ele>563.95</ele>
        <time>2020-07-20T09:52:39Z</time>
      </trkpt>
      <trkpt lat="37.30239" lon="-8.62761">
        <ele>565.87</ele>
        <time>2020-07-20T09:52:45Z</time>
      </trkpt>
      <trkpt lat="37.30239" lon="-8.62752">
        <ele>566.35</ele>
        <time>2020-07-20T09:52:49Z</time>
      </trkpt>
      <trkpt lat="37.30236" lon="-8.6273">
        <ele>566.83</ele>
        <time>2020-07-20T09:52:56Z</time>
      </trkpt>
      <trkpt lat="37.30233" lon="-8.62718">
        <ele>564.91</ele>
        <time>2020-07-20T09:52:58Z</time>
      </trkpt>
      <trkpt lat="37.30227" lon="-8.62692">
        <ele>562.51</ele>
        <time>2020-07-20T09:53:01Z</time>
      </trkpt>
      <trkpt lat="37.30223" lon="-8.62654">
        <ele>559.62</ele>
        <time>2020-07-20T09:53:05Z</time>
      </trkpt>
      <trkpt lat="37.30206" lon="-8.62636">
        <ele>556.74</ele>
        <time>2020-07-20T09:53:09Z</time>
      </trkpt>
      <trkpt lat="37.302" lon="-8.62638">
        <ele>556.74</ele>
        <time>2020-07-20T09:53:10Z</time>
      </trkpt>
      <trkpt lat="37.30173" lon="-8.6265">
        <ele>557.7</ele>
        <time>2020-07-20T09:53:16Z</time>
      </trkpt>
      <trkpt lat="37.30154" lon="-8.62664">
        <ele>557.7</ele>
        <time>2020-07-20T09:53:21Z</time>
      </trkpt>
      <trkpt lat="37.30138" lon="-8.62684">
        <ele>555.3</ele>
        <time>2020-07-20T09:53:24Z</time>
      </trkpt>
      <trkpt lat="37.3012" lon="-8.62696">
        <ele>553.38</ele>
        <time>2020-07-20T09:53:27Z</time>
      </trkpt>
      <trkpt lat="37.30114" lon="-8.62696">
        <ele>553.38</ele>
        <time>2020-07-20T09:53:28Z</time>
      </trkpt>
      <trkpt lat="37.30066" lon="-8.62682">
        <ele>555.3</ele>
        <time>2020-07-20T09:53:37Z</time>
      </trkpt>
      <trkpt lat="37.30047" lon="-8.62673">
        <ele>556.26</ele>
        <time>2020-07-20T09:53:44Z</time>
      </trkpt>
      <trkpt lat="37.30029" lon="-8.62662">
        <ele>557.7</ele>
        <time>2020-07-20T09:53:51Z</time>
      </trkpt>
      <trkpt lat="37.30008" lon="-8.62654">
        <ele>559.14</ele>
        <time>2020-07-20T09:54:00Z</time>
      </trkpt>
      <trkpt lat="37.29985" lon="-8.62642">
        <ele>561.07</ele>
        <time>2020-07-20T09:54:11Z</time>
      </trkpt>
      <trkpt lat="37.29965" lon="-8.62632">
        <ele>562.03</ele>
        <time>2020-07-20T09:54:20Z</time>
      </trkpt>
      <trkpt lat="37.29943" lon="-8.62617">
        <ele>564.43</ele>
        <time>2020-07-20T09:54:30Z</time>
      </trkpt>
      <trkpt lat="37.29927" lon="-8.62601">
        <ele>564.91</ele>
        <time>2020-07-20T09:54:39Z</time>
      </trkpt>
      <trkpt lat="37.29911" lon="-8.62582">
        <ele>564.91</ele>
        <time>2020-07-20T09:54:48Z</time>
      </trkpt>
      <trkpt lat="37.29894" lon="-8.62559">
        <ele>564.91</ele>
        <time>2020-07-20T09:54:56Z</time>
      </trkpt>
      <trkpt lat="37.29876" lon="-8.62539">
        <ele>564.91</ele>
        <time>2020-07-20T09:55:03Z</time>
      </trkpt>
      <trkpt lat="37.29859" lon="-8.62542">
        <ele>564.91</ele>
        <time>2020-07-20T09:55:08Z</time>
      </trkpt>
      <trkpt lat="37.29838" lon="-8.62557">
        <ele>564.91</ele>
        <time>2020-07-20T09:55:15Z</time>
      </trkpt>
      <trkpt lat="37.29811" lon="-8.62574">
        <ele>563.47</ele>
        <time>2020-07-20T09:55:23Z</time>
      </trkpt>
      <trkpt lat="37.29798" lon="-8.62579">
        <ele>562.99</ele>
        <time>2020-07-20T09:55:26Z</time>
      </trkpt>
      <trkpt lat="37.29765" lon="-8.62596">
        <ele>562.51</ele>
        <time>2020-07-20T09:55:33Z</time>
      </trkpt>
      <trkpt lat="37.29724" lon="-8.62612">
        <ele>561.07</ele>
        <time>2020-07-20T09:55:41Z</time>
      </trkpt>
      <trkpt lat="37.29694" lon="-8.6262">
        <ele>560.11</ele>
        <time>2020-07-20T09:55:47Z</time>
      </trkpt>
      <trkpt lat="37.29684" lon="-8.62622">
        <ele>559.62</ele>
        <time>2020-07-20T09:55:49Z</time>
      </trkpt>
      <trkpt lat="37.29678" lon="-8.6262">
        <ele>559.62</ele>
        <time>2020-07-20T09:55:50Z</time>
      </trkpt>
      <trkpt lat="37.29675" lon="-8.62618">
        <ele>559.62</ele>
        <time>2020-07-20T09:55:51Z</time>
      </trkpt>
      <trkpt lat="37.29672" lon="-8.62615">
        <ele>559.62</ele>
        <time>2020-07-20T09:55:52Z</time>
      </trkpt>
      <trkpt lat="37.29669" lon="-8.62611">
        <ele>559.62</ele>
        <time>2020-07-20T09:55:53Z</time>
      </trkpt>
      <trkpt lat="37.29659" lon="-8.62601">
        <ele>561.07</ele>
        <time>2020-07-20T09:55:57Z</time>
      </trkpt>
      <trkpt lat="37.29641" lon="-8.62588">
        <ele>562.03</ele>
        <time>2020-07-20T09:56:04Z</time>
      </trkpt>
      <trkpt lat="37.29625" lon="-8.62573">
        <ele>563.95</ele>
        <time>2020-07-20T09:56:13Z</time>
      </trkpt>
      <trkpt lat="37.2961" lon="-8.62556">
        <ele>566.35</ele>
        <time>2020-07-20T09:56:22Z</time>
      </trkpt>
      <trkpt lat="37.29594" lon="-8.62542">
        <ele>568.28</ele>
        <time>2020-07-20T09:56:31Z</time>
      </trkpt>
      <trkpt lat="37.29574" lon="-8.62528">
        <ele>569.72</ele>
        <time>2020-07-20T09:56:41Z</time>
      </trkpt>
      <trkpt lat="37.29563" lon="-8.62514">
        <ele>570.68</ele>
        <time>2020-07-20T09:56:48Z</time>
      </trkpt>
      <trkpt lat="37.29548" lon="-8.62496">
        <ele>570.68</ele>
        <time>2020-07-20T09:56:57Z</time>
      </trkpt>
      <trkpt lat="37.2954" lon="-8.62482">
        <ele>571.64</ele>
        <time>2020-07-20T09:57:05Z</time>
      </trkpt>
      <trkpt lat="37.29536" lon="-8.62476">
        <ele>571.64</ele>
        <time>2020-07-20T09:57:10Z</time>
      </trkpt>
      <trkpt lat="37.29531" lon="-8.62468">
        <ele>571.16</ele>
        <time>2020-07-20T09:57:18Z</time>
      </trkpt>
      <trkpt lat="37.29528" lon="-8.62462">
        <ele>570.2</ele>
        <time>2020-07-20T09:57:20Z</time>
      </trkpt>
      <trkpt lat="37.29528" lon="-8.62459">
        <ele>570.2</ele>
        <time>2020-07-20T09:57:21Z</time>
      </trkpt>
      <trkpt lat="37.29527" lon="-8.62455">
        <ele>569.24</ele>
        <time>2020-07-20T09:57:22Z</time>
      </trkpt>
      <trkpt lat="37.29522" lon="-8.62447">
        <ele>568.28</ele>
        <time>2020-07-20T09:57:25Z</time>
      </trkpt>
      <trkpt lat="37.29518" lon="-8.62443">
        <ele>567.8</ele>
        <time>2020-07-20T09:57:30Z</time>
      </trkpt>
      <trkpt lat="37.29512" lon="-8.62434">
        <ele>566.83</ele>
        <time>2020-07-20T09:57:35Z</time>
      </trkpt>
      <trkpt lat="37.29501" lon="-8.62419">
        <ele>564.91</ele>
        <time>2020-07-20T09:57:40Z</time>
      </trkpt>
      <trkpt lat="37.29481" lon="-8.62412">
        <ele>562.99</ele>
        <time>2020-07-20T09:57:45Z</time>
      </trkpt>
      <trkpt lat="37.29472" lon="-8.6241">
        <ele>562.51</ele>
        <time>2020-07-20T09:57:47Z</time>
      </trkpt>
      <trkpt lat="37.29452" lon="-8.62405">
        <ele>560.59</ele>
        <time>2020-07-20T09:57:51Z</time>
      </trkpt>
      <trkpt lat="37.29442" lon="-8.62402">
        <ele>559.62</ele>
        <time>2020-07-20T09:57:53Z</time>
      </trkpt>
      <trkpt lat="37.29429" lon="-8.62394">
        <ele>558.18</ele>
        <time>2020-07-20T09:57:56Z</time>
      </trkpt>
      <trkpt lat="37.29414" lon="-8.62378">
        <ele>554.82</ele>
        <time>2020-07-20T09:58:00Z</time>
      </trkpt>
      <trkpt lat="37.29403" lon="-8.62371">
        <ele>552.9</ele>
        <time>2020-07-20T09:58:03Z</time>
      </trkpt>
      <trkpt lat="37.2939" lon="-8.62383">
        <ele>550.49</ele>
        <time>2020-07-20T09:58:07Z</time>
      </trkpt>
      <trkpt lat="37.29389" lon="-8.6239">
        <ele>550.01</ele>
        <time>2020-07-20T09:58:09Z</time>
      </trkpt>
      <trkpt lat="37.29388" lon="-8.62416">
        <ele>550.01</ele>
        <time>2020-07-20T09:58:15Z</time>
      </trkpt>
      <trkpt lat="37.29388" lon="-8.62453">
        <ele>550.01</ele>
        <time>2020-07-20T09:58:22Z</time>
      </trkpt>
      <trkpt lat="37.29388" lon="-8.62464">
        <ele>549.53</ele>
        <time>2020-07-20T09:58:24Z</time>
      </trkpt>
      <trkpt lat="37.29386" lon="-8.62491">
        <ele>545.2</ele>
        <time>2020-07-20T09:58:29Z</time>
      </trkpt>
      <trkpt lat="37.29386" lon="-8.62511">
        <ele>541.36</ele>
        <time>2020-07-20T09:58:33Z</time>
      </trkpt>
      <trkpt lat="37.29386" lon="-8.62524">
        <ele>538.96</ele>
        <time>2020-07-20T09:58:36Z</time>
      </trkpt>
      <trkpt lat="37.29409" lon="-8.62557">
        <ele>537.99</ele>
        <time>2020-07-20T09:58:44Z</time>
      </trkpt>
      <trkpt lat="37.29424" lon="-8.62586">
        <ele>536.07</ele>
        <time>2020-07-20T09:58:49Z</time>
      </trkpt>
      <trkpt lat="37.29456" lon="-8.62628">
        <ele>533.67</ele>
        <time>2020-07-20T09:58:57Z</time>
      </trkpt>
      <trkpt lat="37.29471" lon="-8.62644">
        <ele>535.11</ele>
        <time>2020-07-20T09:59:02Z</time>
      </trkpt>
      <trkpt lat="37.29488" lon="-8.6266">
        <ele>535.11</ele>
        <time>2020-07-20T09:59:08Z</time>
      </trkpt>
      <trkpt lat="37.29494" lon="-8.62666">
        <ele>535.11</ele>
        <time>2020-07-20T09:59:10Z</time>
      </trkpt>
      <trkpt lat="37.2951" lon="-8.62683">
        <ele>533.67</ele>
        <time>2020-07-20T09:59:15Z</time>
      </trkpt>
      <trkpt lat="37.29528" lon="-8.62704">
        <ele>533.19</ele>
        <time>2020-07-20T09:59:22Z</time>
      </trkpt>
      <trkpt lat="37.29532" lon="-8.6272">
        <ele>532.71</ele>
        <time>2020-07-20T09:59:27Z</time>
      </trkpt>
      <trkpt lat="37.29521" lon="-8.62723">
        <ele>531.27</ele>
        <time>2020-07-20T09:59:31Z</time>
      </trkpt>
      <trkpt lat="37.29512" lon="-8.62728">
        <ele>528.86</ele>
        <time>2020-07-20T09:59:35Z</time>
      </trkpt>
      <trkpt lat="37.29511" lon="-8.62733">
        <ele>527.9</ele>
        <time>2020-07-20T09:59:37Z</time>
      </trkpt>
      <trkpt lat="37.29512" lon="-8.62742">
        <ele>527.42</ele>
        <time>2020-07-20T09:59:41Z</time>
      </trkpt>
      <trkpt lat="37.29504" lon="-8.62765">
        <ele>525.5</ele>
        <time>2020-07-20T09:59:46Z</time>
      </trkpt>
      <trkpt lat="37.29495" lon="-8.62792">
        <ele>523.09</ele>
        <time>2020-07-20T09:59:51Z</time>
      </trkpt>
      <trkpt lat="37.29481" lon="-8.62815">
        <ele>520.21</ele>
        <time>2020-07-20T09:59:56Z</time>
      </trkpt>
      <trkpt lat="37.29478" lon="-8.62819">
        <ele>519.73</ele>
        <time>2020-07-20T09:59:57Z</time>
      </trkpt>
      <trkpt lat="37.29466" lon="-8.62834">
        <ele>515.88</ele>
        <time>2020-07-20T10:00:02Z</time>
      </trkpt>
      <trkpt lat="37.29456" lon="-8.62845">
        <ele>512.52</ele>
        <time>2020-07-20T10:00:06Z</time>
      </trkpt>
      <trkpt lat="37.29448" lon="-8.62853">
        <ele>509.64</ele>
        <time>2020-07-20T10:00:09Z</time>
      </trkpt>
      <trkpt lat="37.29445" lon="-8.62866">
        <ele>507.71</ele>
        <time>2020-07-20T10:00:11Z</time>
      </trkpt>
      <trkpt lat="37.29444" lon="-8.62876">
        <ele>506.75</ele>
        <time>2020-07-20T10:00:13Z</time>
      </trkpt>
      <trkpt lat="37.29443" lon="-8.62886">
        <ele>506.27</ele>
        <time>2020-07-20T10:00:14Z</time>
      </trkpt>
      <trkpt lat="37.29443" lon="-8.62893">
        <ele>505.79</ele>
        <time>2020-07-20T10:00:15Z</time>
      </trkpt>
      <trkpt lat="37.29441" lon="-8.62905">
        <ele>504.35</ele>
        <time>2020-07-20T10:00:18Z</time>
      </trkpt>
      <trkpt lat="37.29439" lon="-8.62906">
        <ele>504.35</ele>
        <time>2020-07-20T10:00:19Z</time>
      </trkpt>
      <trkpt lat="37.29437" lon="-8.62907">
        <ele>504.35</ele>
        <time>2020-07-20T10:00:25Z</time>
      </trkpt>
      <trkpt lat="37.29432" lon="-8.62904">
        <ele>504.35</ele>
        <time>2020-07-20T10:00:36Z</time>
      </trkpt>
      <trkpt lat="37.29426" lon="-8.62884">
        <ele>503.87</ele>
        <time>2020-07-20T10:00:43Z</time>
      </trkpt>
      <trkpt lat="37.29423" lon="-8.62835">
        <ele>501.95</ele>
        <time>2020-07-20T10:00:52Z</time>
      </trkpt>
      <trkpt lat="37.29419" lon="-8.62786">
        <ele>499.54</ele>
        <time>2020-07-20T10:00:59Z</time>
      </trkpt>
      <trkpt lat="37.29417" lon="-8.62778">
        <ele>499.54</ele>
        <time>2020-07-20T10:01:00Z</time>
      </trkpt>
      <trkpt lat="37.29415" lon="-8.6277">
        <ele>499.06</ele>
        <time>2020-07-20T10:01:01Z</time>
      </trkpt>
      <trkpt lat="37.29412" lon="-8.62762">
        <ele>499.06</ele>
        <time>2020-07-20T10:01:02Z</time>
      </trkpt>
      <trkpt lat="37.29409" lon="-8.62755">
        <ele>498.58</ele>
        <time>2020-07-20T10:01:03Z</time>
      </trkpt>
      <trkpt lat="37.29405" lon="-8.62747">
        <ele>498.58</ele>
        <time>2020-07-20T10:01:04Z</time>
      </trkpt>
      <trkpt lat="37.294" lon="-8.6274">
        <ele>498.1</ele>
        <time>2020-07-20T10:01:05Z</time>
      </trkpt>
      <trkpt lat="37.29395" lon="-8.62733">
        <ele>497.62</ele>
        <time>2020-07-20T10:01:06Z</time>
      </trkpt>
      <trkpt lat="37.2939" lon="-8.62726">
        <ele>497.62</ele>
        <time>2020-07-20T10:01:07Z</time>
      </trkpt>
      <trkpt lat="37.29348" lon="-8.62689">
        <ele>494.74</ele>
        <time>2020-07-20T10:01:14Z</time>
      </trkpt>
      <trkpt lat="37.29294" lon="-8.62647">
        <ele>491.85</ele>
        <time>2020-07-20T10:01:22Z</time>
      </trkpt>
      <trkpt lat="37.2926" lon="-8.62609">
        <ele>490.41</ele>
        <time>2020-07-20T10:01:28Z</time>
      </trkpt>
      <trkpt lat="37.29237" lon="-8.62572">
        <ele>488.01</ele>
        <time>2020-07-20T10:01:34Z</time>
      </trkpt>
      <trkpt lat="37.2923" lon="-8.62565">
        <ele>488.01</ele>
        <time>2020-07-20T10:01:37Z</time>
      </trkpt>
      <trkpt lat="37.2923" lon="-8.6257">
        <ele>487.53</ele>
        <time>2020-07-20T10:01:39Z</time>
      </trkpt>
      <trkpt lat="37.29232" lon="-8.62575">
        <ele>487.05</ele>
        <time>2020-07-20T10:01:40Z</time>
      </trkpt>
      <trkpt lat="37.29233" lon="-8.62577">
        <ele>487.05</ele>
        <time>2020-07-20T10:01:41Z</time>
      </trkpt>
      <trkpt lat="37.29235" lon="-8.6258">
        <ele>487.05</ele>
        <time>2020-07-20T10:01:42Z</time>
      </trkpt>
      <trkpt lat="37.29243" lon="-8.62592">
        <ele>486.56</ele>
        <time>2020-07-20T10:01:45Z</time>
      </trkpt>
      <trkpt lat="37.29245" lon="-8.62597">
        <ele>486.56</ele>
        <time>2020-07-20T10:01:46Z</time>
      </trkpt>
      <trkpt lat="37.29261" lon="-8.62643">
        <ele>483.68</ele>
        <time>2020-07-20T10:01:54Z</time>
      </trkpt>
      <trkpt lat="37.29264" lon="-8.62649">
        <ele>483.2</ele>
        <time>2020-07-20T10:01:55Z</time>
      </trkpt>
      <trkpt lat="37.29267" lon="-8.62655">
        <ele>483.2</ele>
        <time>2020-07-20T10:01:56Z</time>
      </trkpt>
      <trkpt lat="37.29273" lon="-8.62666">
        <ele>481.76</ele>
        <time>2020-07-20T10:01:58Z</time>
      </trkpt>
      <trkpt lat="37.29279" lon="-8.62685">
        <ele>479.35</ele>
        <time>2020-07-20T10:02:01Z</time>
      </trkpt>
      <trkpt lat="37.29283" lon="-8.62706">
        <ele>477.43</ele>
        <time>2020-07-20T10:02:04Z</time>
      </trkpt>
      <trkpt lat="37.29296" lon="-8.62733">
        <ele>472.63</ele>
        <time>2020-07-20T10:02:09Z</time>
      </trkpt>
      <trkpt lat="37.29305" lon="-8.62747">
        <ele>469.74</ele>
        <time>2020-07-20T10:02:12Z</time>
      </trkpt>
      <trkpt lat="37.29314" lon="-8.62765">
        <ele>466.38</ele>
        <time>2020-07-20T10:02:16Z</time>
      </trkpt>
      <trkpt lat="37.29315" lon="-8.62768">
        <ele>465.9</ele>
        <time>2020-07-20T10:02:17Z</time>
      </trkpt>
      <trkpt lat="37.29303" lon="-8.62771">
        <ele>463.49</ele>
        <time>2020-07-20T10:02:21Z</time>
      </trkpt>
      <trkpt lat="37.29299" lon="-8.62768">
        <ele>462.53</ele>
        <time>2020-07-20T10:02:22Z</time>
      </trkpt>
      <trkpt lat="37.29275" lon="-8.62749">
        <ele>459.17</ele>
        <time>2020-07-20T10:02:27Z</time>
      </trkpt>
      <trkpt lat="37.29258" lon="-8.6274">
        <ele>457.24</ele>
        <time>2020-07-20T10:02:30Z</time>
      </trkpt>
      <trkpt lat="37.29244" lon="-8.62726">
        <ele>455.32</ele>
        <time>2020-07-20T10:02:33Z</time>
      </trkpt>
      <trkpt lat="37.2922" lon="-8.62705">
        <ele>451</ele>
        <time>2020-07-20T10:02:38Z</time>
      </trkpt>
      <trkpt lat="37.29208" lon="-8.62697">
        <ele>448.59</ele>
        <time>2020-07-20T10:02:41Z</time>
      </trkpt>
      <trkpt lat="37.29204" lon="-8.62704">
        <ele>446.67</ele>
        <time>2020-07-20T10:02:45Z</time>
      </trkpt>
      <trkpt lat="37.29212" lon="-8.62718">
        <ele>444.75</ele>
        <time>2020-07-20T10:02:48Z</time>
      </trkpt>
      <trkpt lat="37.29222" lon="-8.62755">
        <ele>441.38</ele>
        <time>2020-07-20T10:02:53Z</time>
      </trkpt>
      <trkpt lat="37.29227" lon="-8.62777">
        <ele>439.46</ele>
        <time>2020-07-20T10:02:57Z</time>
      </trkpt>
      <trkpt lat="37.29216" lon="-8.62782">
        <ele>436.58</ele>
        <time>2020-07-20T10:03:01Z</time>
      </trkpt>
      <trkpt lat="37.29212" lon="-8.62778">
        <ele>435.61</ele>
        <time>2020-07-20T10:03:02Z</time>
      </trkpt>
      <trkpt lat="37.29188" lon="-8.62748">
        <ele>431.29</ele>
        <time>2020-07-20T10:03:07Z</time>
      </trkpt>
      <trkpt lat="37.29179" lon="-8.6273">
        <ele>429.37</ele>
        <time>2020-07-20T10:03:10Z</time>
      </trkpt>
      <trkpt lat="37.29158" lon="-8.62719">
        <ele>426.96</ele>
        <time>2020-07-20T10:03:15Z</time>
      </trkpt>
      <trkpt lat="37.29149" lon="-8.62732">
        <ele>426</ele>
        <time>2020-07-20T10:03:18Z</time>
      </trkpt>
      <trkpt lat="37.29148" lon="-8.62738">
        <ele>426</ele>
        <time>2020-07-20T10:03:19Z</time>
      </trkpt>
      <trkpt lat="37.29145" lon="-8.62786">
        <ele>423.6</ele>
        <time>2020-07-20T10:03:27Z</time>
      </trkpt>
      <trkpt lat="37.29144" lon="-8.62817">
        <ele>420.23</ele>
        <time>2020-07-20T10:03:32Z</time>
      </trkpt>
      <trkpt lat="37.29144" lon="-8.62825">
        <ele>419.27</ele>
        <time>2020-07-20T10:03:33Z</time>
      </trkpt>
      <trkpt lat="37.29139" lon="-8.62845">
        <ele>417.35</ele>
        <time>2020-07-20T10:03:36Z</time>
      </trkpt>
      <trkpt lat="37.29136" lon="-8.62851">
        <ele>417.35</ele>
        <time>2020-07-20T10:03:37Z</time>
      </trkpt>
      <trkpt lat="37.29131" lon="-8.62862">
        <ele>417.35</ele>
        <time>2020-07-20T10:03:39Z</time>
      </trkpt>
      <trkpt lat="37.29116" lon="-8.6291">
        <ele>415.91</ele>
        <time>2020-07-20T10:03:46Z</time>
      </trkpt>
      <trkpt lat="37.29106" lon="-8.62931">
        <ele>413.98</ele>
        <time>2020-07-20T10:03:49Z</time>
      </trkpt>
      <trkpt lat="37.29098" lon="-8.62947">
        <ele>413.02</ele>
        <time>2020-07-20T10:03:51Z</time>
      </trkpt>
      <trkpt lat="37.29095" lon="-8.62955">
        <ele>412.54</ele>
        <time>2020-07-20T10:03:52Z</time>
      </trkpt>
      <trkpt lat="37.2908" lon="-8.62979">
        <ele>412.54</ele>
        <time>2020-07-20T10:03:56Z</time>
      </trkpt>
      <trkpt lat="37.29056" lon="-8.63008">
        <ele>412.54</ele>
        <time>2020-07-20T10:04:03Z</time>
      </trkpt>
      <trkpt lat="37.29048" lon="-8.63021">
        <ele>413.98</ele>
        <time>2020-07-20T10:04:07Z</time>
      </trkpt>
      <trkpt lat="37.29048" lon="-8.63023">
        <ele>413.98</ele>
        <time>2020-07-20T10:04:08Z</time>
      </trkpt>
      <trkpt lat="37.29048" lon="-8.63035">
        <ele>414.47</ele>
        <time>2020-07-20T10:04:13Z</time>
      </trkpt>
      <trkpt lat="37.29048" lon="-8.63051">
        <ele>411.1</ele>
        <time>2020-07-20T10:04:16Z</time>
      </trkpt>
      <trkpt lat="37.29044" lon="-8.63078">
        <ele>406.77</ele>
        <time>2020-07-20T10:04:21Z</time>
      </trkpt>
      <trkpt lat="37.29039" lon="-8.63098">
        <ele>403.41</ele>
        <time>2020-07-20T10:04:24Z</time>
      </trkpt>
      <trkpt lat="37.29032" lon="-8.63126">
        <ele>399.57</ele>
        <time>2020-07-20T10:04:28Z</time>
      </trkpt>
      <trkpt lat="37.29024" lon="-8.63148">
        <ele>396.2</ele>
        <time>2020-07-20T10:04:31Z</time>
      </trkpt>
      <trkpt lat="37.29001" lon="-8.63184">
        <ele>392.36</ele>
        <time>2020-07-20T10:04:37Z</time>
      </trkpt>
      <trkpt lat="37.28989" lon="-8.63199">
        <ele>390.43</ele>
        <time>2020-07-20T10:04:40Z</time>
      </trkpt>
      <trkpt lat="37.28976" lon="-8.63211">
        <ele>387.55</ele>
        <time>2020-07-20T10:04:43Z</time>
      </trkpt>
      <trkpt lat="37.2896" lon="-8.63244">
        <ele>383.22</ele>
        <time>2020-07-20T10:04:49Z</time>
      </trkpt>
      <trkpt lat="37.2894" lon="-8.63269">
        <ele>378.9</ele>
        <time>2020-07-20T10:04:54Z</time>
      </trkpt>
      <trkpt lat="37.28924" lon="-8.63287">
        <ele>375.05</ele>
        <time>2020-07-20T10:04:57Z</time>
      </trkpt>
      <trkpt lat="37.28908" lon="-8.63303">
        <ele>373.13</ele>
        <time>2020-07-20T10:05:00Z</time>
      </trkpt>
      <trkpt lat="37.28887" lon="-8.63328">
        <ele>369.76</ele>
        <time>2020-07-20T10:05:05Z</time>
      </trkpt>
      <trkpt lat="37.28878" lon="-8.63341">
        <ele>368.32</ele>
        <time>2020-07-20T10:05:07Z</time>
      </trkpt>
      <trkpt lat="37.28871" lon="-8.63355">
        <ele>367.84</ele>
        <time>2020-07-20T10:05:09Z</time>
      </trkpt>
      <trkpt lat="37.28853" lon="-8.63397">
        <ele>366.4</ele>
        <time>2020-07-20T10:05:15Z</time>
      </trkpt>
      <trkpt lat="37.28841" lon="-8.63404">
        <ele>365.92</ele>
        <time>2020-07-20T10:05:17Z</time>
      </trkpt>
      <trkpt lat="37.28806" lon="-8.63422">
        <ele>364</ele>
        <time>2020-07-20T10:05:22Z</time>
      </trkpt>
      <trkpt lat="37.28799" lon="-8.63427">
        <ele>364</ele>
        <time>2020-07-20T10:05:23Z</time>
      </trkpt>
      <trkpt lat="37.28775" lon="-8.63448">
        <ele>363.04</ele>
        <time>2020-07-20T10:05:27Z</time>
      </trkpt>
      <trkpt lat="37.28736" lon="-8.6347">
        <ele>363.04</ele>
        <time>2020-07-20T10:05:34Z</time>
      </trkpt>
      <trkpt lat="37.28723" lon="-8.63479">
        <ele>362.07</ele>
        <time>2020-07-20T10:05:37Z</time>
      </trkpt>
      <trkpt lat="37.28692" lon="-8.63506">
        <ele>357.75</ele>
        <time>2020-07-20T10:05:43Z</time>
      </trkpt>
      <trkpt lat="37.28688" lon="-8.6351">
        <ele>356.79</ele>
        <time>2020-07-20T10:05:44Z</time>
      </trkpt>
      <trkpt lat="37.28657" lon="-8.63522">
        <ele>353.9</ele>
        <time>2020-07-20T10:05:49Z</time>
      </trkpt>
      <trkpt lat="37.28638" lon="-8.63516">
        <ele>352.46</ele>
        <time>2020-07-20T10:05:52Z</time>
      </trkpt>
      <trkpt lat="37.28597" lon="-8.63487">
        <ele>352.46</ele>
        <time>2020-07-20T10:06:00Z</time>
      </trkpt>
      <trkpt lat="37.28588" lon="-8.6348">
        <ele>352.46</ele>
        <time>2020-07-20T10:06:02Z</time>
      </trkpt>
      <trkpt lat="37.28566" lon="-8.63476">
        <ele>352.46</ele>
        <time>2020-07-20T10:06:06Z</time>
      </trkpt>
      <trkpt lat="37.28547" lon="-8.63468">
        <ele>352.46</ele>
        <time>2020-07-20T10:06:10Z</time>
      </trkpt>
      <trkpt lat="37.28544" lon="-8.63456">
        <ele>351.98</ele>
        <time>2020-07-20T10:06:12Z</time>
      </trkpt>
      <trkpt lat="37.28536" lon="-8.63426">
        <ele>351.98</ele>
        <time>2020-07-20T10:06:17Z</time>
      </trkpt>
      <trkpt lat="37.28527" lon="-8.63406">
        <ele>351.98</ele>
        <time>2020-07-20T10:06:21Z</time>
      </trkpt>
      <trkpt lat="37.2852" lon="-8.63376">
        <ele>351.5</ele>
        <time>2020-07-20T10:06:26Z</time>
      </trkpt>
      <trkpt lat="37.28501" lon="-8.63344">
        <ele>351.5</ele>
        <time>2020-07-20T10:06:34Z</time>
      </trkpt>
      <trkpt lat="37.28491" lon="-8.63314">
        <ele>352.46</ele>
        <time>2020-07-20T10:06:41Z</time>
      </trkpt>
      <trkpt lat="37.28483" lon="-8.63295">
        <ele>352.46</ele>
        <time>2020-07-20T10:06:45Z</time>
      </trkpt>
      <trkpt lat="37.28468" lon="-8.63263">
        <ele>353.42</ele>
        <time>2020-07-20T10:06:53Z</time>
      </trkpt>
      <trkpt lat="37.28467" lon="-8.63254">
        <ele>353.9</ele>
        <time>2020-07-20T10:06:55Z</time>
      </trkpt>
      <trkpt lat="37.28463" lon="-8.63229">
        <ele>353.42</ele>
        <time>2020-07-20T10:07:00Z</time>
      </trkpt>
      <trkpt lat="37.28459" lon="-8.63226">
        <ele>353.42</ele>
        <time>2020-07-20T10:07:01Z</time>
      </trkpt>
      <trkpt lat="37.28447" lon="-8.63218">
        <ele>352.46</ele>
        <time>2020-07-20T10:07:04Z</time>
      </trkpt>
      <trkpt lat="37.28439" lon="-8.63213">
        <ele>352.46</ele>
        <time>2020-07-20T10:07:06Z</time>
      </trkpt>
      <trkpt lat="37.28411" lon="-8.63187">
        <ele>351.5</ele>
        <time>2020-07-20T10:07:14Z</time>
      </trkpt>
      <trkpt lat="37.28407" lon="-8.63179">
        <ele>351.5</ele>
        <time>2020-07-20T10:07:16Z</time>
      </trkpt>
      <trkpt lat="37.28408" lon="-8.63175">
        <ele>351.5</ele>
        <time>2020-07-20T10:07:17Z</time>
      </trkpt>
      <trkpt lat="37.28409" lon="-8.63171">
        <ele>351.5</ele>
        <time>2020-07-20T10:07:18Z</time>
      </trkpt>
      <trkpt lat="37.28411" lon="-8.63168">
        <ele>352.94</ele>
        <time>2020-07-20T10:07:19Z</time>
      </trkpt>
      <trkpt lat="37.28413" lon="-8.63165">
        <ele>352.94</ele>
        <time>2020-07-20T10:07:20Z</time>
      </trkpt>
      <trkpt lat="37.28415" lon="-8.63162">
        <ele>353.42</ele>
        <time>2020-07-20T10:07:21Z</time>
      </trkpt>
      <trkpt lat="37.28417" lon="-8.63159">
        <ele>353.42</ele>
        <time>2020-07-20T10:07:22Z</time>
      </trkpt>
      <trkpt lat="37.28419" lon="-8.63156">
        <ele>353.42</ele>
        <time>2020-07-20T10:07:23Z</time>
      </trkpt>
      <trkpt lat="37.28421" lon="-8.63153">
        <ele>353.42</ele>
        <time>2020-07-20T10:07:24Z</time>
      </trkpt>
      <trkpt lat="37.28437" lon="-8.63132">
        <ele>353.42</ele>
        <time>2020-07-20T10:07:32Z</time>
      </trkpt>
      <trkpt lat="37.28457" lon="-8.63121">
        <ele>353.9</ele>
        <time>2020-07-20T10:07:40Z</time>
      </trkpt>
      <trkpt lat="37.28486" lon="-8.63119">
        <ele>354.86</ele>
        <time>2020-07-20T10:07:49Z</time>
      </trkpt>
      <trkpt lat="37.28515" lon="-8.63114">
        <ele>355.34</ele>
        <time>2020-07-20T10:07:57Z</time>
      </trkpt>
      <trkpt lat="37.28528" lon="-8.63095">
        <ele>355.34</ele>
        <time>2020-07-20T10:08:03Z</time>
      </trkpt>
      <trkpt lat="37.28528" lon="-8.63081">
        <ele>355.34</ele>
        <time>2020-07-20T10:08:06Z</time>
      </trkpt>
      <trkpt lat="37.28527" lon="-8.63075">
        <ele>354.86</ele>
        <time>2020-07-20T10:08:07Z</time>
      </trkpt>
      <trkpt lat="37.28526" lon="-8.6307">
        <ele>354.86</ele>
        <time>2020-07-20T10:08:08Z</time>
      </trkpt>
      <trkpt lat="37.28524" lon="-8.63064">
        <ele>353.9</ele>
        <time>2020-07-20T10:08:09Z</time>
      </trkpt>
      <trkpt lat="37.28521" lon="-8.63059">
        <ele>353.9</ele>
        <time>2020-07-20T10:08:10Z</time>
      </trkpt>
      <trkpt lat="37.28518" lon="-8.63055">
        <ele>353.9</ele>
        <time>2020-07-20T10:08:11Z</time>
      </trkpt>
      <trkpt lat="37.28502" lon="-8.63031">
        <ele>351.98</ele>
        <time>2020-07-20T10:08:16Z</time>
      </trkpt>
      <trkpt lat="37.28499" lon="-8.63026">
        <ele>351.98</ele>
        <time>2020-07-20T10:08:17Z</time>
      </trkpt>
      <trkpt lat="37.28496" lon="-8.6302">
        <ele>351.5</ele>
        <time>2020-07-20T10:08:18Z</time>
      </trkpt>
      <trkpt lat="37.28494" lon="-8.63013">
        <ele>351.02</ele>
        <time>2020-07-20T10:08:19Z</time>
      </trkpt>
      <trkpt lat="37.28492" lon="-8.63006">
        <ele>350.54</ele>
        <time>2020-07-20T10:08:20Z</time>
      </trkpt>
      <trkpt lat="37.28491" lon="-8.62998">
        <ele>350.06</ele>
        <time>2020-07-20T10:08:21Z</time>
      </trkpt>
      <trkpt lat="37.2849" lon="-8.62989">
        <ele>349.1</ele>
        <time>2020-07-20T10:08:22Z</time>
      </trkpt>
      <trkpt lat="37.2849" lon="-8.6298">
        <ele>349.1</ele>
        <time>2020-07-20T10:08:23Z</time>
      </trkpt>
      <trkpt lat="37.28491" lon="-8.62971">
        <ele>348.62</ele>
        <time>2020-07-20T10:08:24Z</time>
      </trkpt>
      <trkpt lat="37.28492" lon="-8.62962">
        <ele>348.62</ele>
        <time>2020-07-20T10:08:25Z</time>
      </trkpt>
      <trkpt lat="37.28495" lon="-8.62954">
        <ele>348.13</ele>
        <time>2020-07-20T10:08:26Z</time>
      </trkpt>
      <trkpt lat="37.28497" lon="-8.62946">
        <ele>348.13</ele>
        <time>2020-07-20T10:08:27Z</time>
      </trkpt>
      <trkpt lat="37.28507" lon="-8.62923">
        <ele>349.1</ele>
        <time>2020-07-20T10:08:31Z</time>
      </trkpt>
      <trkpt lat="37.28517" lon="-8.62895">
        <ele>349.1</ele>
        <time>2020-07-20T10:08:36Z</time>
      </trkpt>
      <trkpt lat="37.28518" lon="-8.62888">
        <ele>348.13</ele>
        <time>2020-07-20T10:08:37Z</time>
      </trkpt>
      <trkpt lat="37.28519" lon="-8.62881">
        <ele>347.65</ele>
        <time>2020-07-20T10:08:38Z</time>
      </trkpt>
      <trkpt lat="37.2852" lon="-8.62875">
        <ele>347.65</ele>
        <time>2020-07-20T10:08:39Z</time>
      </trkpt>
      <trkpt lat="37.2852" lon="-8.62868">
        <ele>347.65</ele>
        <time>2020-07-20T10:08:40Z</time>
      </trkpt>
      <trkpt lat="37.28519" lon="-8.62861">
        <ele>347.65</ele>
        <time>2020-07-20T10:08:41Z</time>
      </trkpt>
      <trkpt lat="37.28519" lon="-8.62855">
        <ele>347.65</ele>
        <time>2020-07-20T10:08:42Z</time>
      </trkpt>
      <trkpt lat="37.28517" lon="-8.62849">
        <ele>347.65</ele>
        <time>2020-07-20T10:08:43Z</time>
      </trkpt>
      <trkpt lat="37.28514" lon="-8.62837">
        <ele>347.17</ele>
        <time>2020-07-20T10:08:45Z</time>
      </trkpt>
      <trkpt lat="37.28507" lon="-8.62806">
        <ele>348.13</ele>
        <time>2020-07-20T10:08:52Z</time>
      </trkpt>
      <trkpt lat="37.28506" lon="-8.62774">
        <ele>348.13</ele>
        <time>2020-07-20T10:08:59Z</time>
      </trkpt>
      <trkpt lat="37.28492" lon="-8.62746">
        <ele>348.62</ele>
        <time>2020-07-20T10:09:07Z</time>
      </trkpt>
      <trkpt lat="37.28488" lon="-8.62718">
        <ele>349.58</ele>
        <time>2020-07-20T10:09:15Z</time>
      </trkpt>
      <trkpt lat="37.28493" lon="-8.62687">
        <ele>350.06</ele>
        <time>2020-07-20T10:09:23Z</time>
      </trkpt>
      <trkpt lat="37.285" lon="-8.62656">
        <ele>350.06</ele>
        <time>2020-07-20T10:09:30Z</time>
      </trkpt>
      <trkpt lat="37.28503" lon="-8.62621">
        <ele>350.06</ele>
        <time>2020-07-20T10:09:37Z</time>
      </trkpt>
      <trkpt lat="37.28503" lon="-8.62582">
        <ele>350.06</ele>
        <time>2020-07-20T10:09:45Z</time>
      </trkpt>
      <trkpt lat="37.28514" lon="-8.62545">
        <ele>349.58</ele>
        <time>2020-07-20T10:09:54Z</time>
      </trkpt>
      <trkpt lat="37.28525" lon="-8.62522">
        <ele>349.58</ele>
        <time>2020-07-20T10:10:01Z</time>
      </trkpt>
      <trkpt lat="37.28538" lon="-8.62504">
        <ele>351.98</ele>
        <time>2020-07-20T10:10:09Z</time>
      </trkpt>
      <trkpt lat="37.28544" lon="-8.62478">
        <ele>352.46</ele>
        <time>2020-07-20T10:10:16Z</time>
      </trkpt>
      <trkpt lat="37.28546" lon="-8.62465">
        <ele>351.02</ele>
        <time>2020-07-20T10:10:18Z</time>
      </trkpt>
      <trkpt lat="37.2855" lon="-8.62442">
        <ele>351.02</ele>
        <time>2020-07-20T10:10:22Z</time>
      </trkpt>
      <trkpt lat="37.28551" lon="-8.62437">
        <ele>351.02</ele>
        <time>2020-07-20T10:10:23Z</time>
      </trkpt>
      <trkpt lat="37.28562" lon="-8.6242">
        <ele>352.46</ele>
        <time>2020-07-20T10:10:29Z</time>
      </trkpt>
      <trkpt lat="37.2858" lon="-8.62393">
        <ele>353.42</ele>
        <time>2020-07-20T10:10:40Z</time>
      </trkpt>
      <trkpt lat="37.28591" lon="-8.62369">
        <ele>354.38</ele>
        <time>2020-07-20T10:10:48Z</time>
      </trkpt>
      <trkpt lat="37.28594" lon="-8.62347">
        <ele>355.83</ele>
        <time>2020-07-20T10:10:54Z</time>
      </trkpt>
      <trkpt lat="37.28596" lon="-8.62315">
        <ele>355.34</ele>
        <time>2020-07-20T10:11:03Z</time>
      </trkpt>
      <trkpt lat="37.28596" lon="-8.62289">
        <ele>355.34</ele>
        <time>2020-07-20T10:11:10Z</time>
      </trkpt>
      <trkpt lat="37.28595" lon="-8.62283">
        <ele>354.38</ele>
        <time>2020-07-20T10:11:12Z</time>
      </trkpt>
      <trkpt lat="37.28595" lon="-8.62281">
        <ele>354.38</ele>
        <time>2020-07-20T10:11:13Z</time>
      </trkpt>
      <trkpt lat="37.28595" lon="-8.62279">
        <ele>354.38</ele>
        <time>2020-07-20T10:11:17Z</time>
      </trkpt>
      <trkpt lat="37.28594" lon="-8.62279">
        <ele>354.38</ele>
        <time>2020-07-20T10:11:25Z</time>
      </trkpt>
      <trkpt lat="37.28593" lon="-8.6228">
        <ele>353.9</ele>
        <time>2020-07-20T10:11:36Z</time>
      </trkpt>
      <trkpt lat="37.28593" lon="-8.62281">
        <ele>353.9</ele>
        <time>2020-07-20T10:11:43Z</time>
      </trkpt>
      <trkpt lat="37.28592" lon="-8.62282">
        <ele>353.9</ele>
        <time>2020-07-20T10:11:56Z</time>
      </trkpt>
      <trkpt lat="37.28595" lon="-8.6228">
        <ele>353.9</ele>
        <time>2020-07-20T10:12:02Z</time>
      </trkpt>
      <trkpt lat="37.28596" lon="-8.6228">
        <ele>353.9</ele>
        <time>2020-07-20T10:12:04Z</time>
      </trkpt>
      <trkpt lat="37.28597" lon="-8.6228">
        <ele>353.9</ele>
        <time>2020-07-20T10:12:05Z</time>
      </trkpt>
      <trkpt lat="37.286" lon="-8.62273">
        <ele>353.9</ele>
        <time>2020-07-20T10:12:12Z</time>
      </trkpt>
      <trkpt lat="37.28602" lon="-8.62266">
        <ele>353.42</ele>
        <time>2020-07-20T10:12:21Z</time>
      </trkpt>
      <trkpt lat="37.28603" lon="-8.62261">
        <ele>353.42</ele>
        <time>2020-07-20T10:12:26Z</time>
      </trkpt>
      <trkpt lat="37.28604" lon="-8.6226">
        <ele>353.42</ele>
        <time>2020-07-20T10:12:27Z</time>
      </trkpt>
      <trkpt lat="37.28603" lon="-8.62258">
        <ele>353.42</ele>
        <time>2020-07-20T10:12:28Z</time>
      </trkpt>
      <trkpt lat="37.28602" lon="-8.62256">
        <ele>353.42</ele>
        <time>2020-07-20T10:12:29Z</time>
      </trkpt>
      <trkpt lat="37.28601" lon="-8.62254">
        <ele>353.42</ele>
        <time>2020-07-20T10:12:30Z</time>
      </trkpt>
      <trkpt lat="37.28594" lon="-8.62249">
        <ele>352.94</ele>
        <time>2020-07-20T10:12:34Z</time>
      </trkpt>
      <trkpt lat="37.28585" lon="-8.62249">
        <ele>351.98</ele>
        <time>2020-07-20T10:12:36Z</time>
      </trkpt>
      <trkpt lat="37.28568" lon="-8.62244">
        <ele>350.06</ele>
        <time>2020-07-20T10:12:39Z</time>
      </trkpt>
      <trkpt lat="37.28558" lon="-8.62237">
        <ele>347.65</ele>
        <time>2020-07-20T10:12:41Z</time>
      </trkpt>
      <trkpt lat="37.28543" lon="-8.62212">
        <ele>344.77</ele>
        <time>2020-07-20T10:12:45Z</time>
      </trkpt>
      <trkpt lat="37.28524" lon="-8.62201">
        <ele>342.37</ele>
        <time>2020-07-20T10:12:49Z</time>
      </trkpt>
      <trkpt lat="37.28506" lon="-8.62216">
        <ele>338.52</ele>
        <time>2020-07-20T10:12:52Z</time>
      </trkpt>
      <trkpt lat="37.28485" lon="-8.62238">
        <ele>336.6</ele>
        <time>2020-07-20T10:12:56Z</time>
      </trkpt>
      <trkpt lat="37.28461" lon="-8.62229">
        <ele>334.68</ele>
        <time>2020-07-20T10:13:00Z</time>
      </trkpt>
      <trkpt lat="37.28449" lon="-8.62206">
        <ele>332.27</ele>
        <time>2020-07-20T10:13:03Z</time>
      </trkpt>
      <trkpt lat="37.28428" lon="-8.62185">
        <ele>331.79</ele>
        <time>2020-07-20T10:13:07Z</time>
      </trkpt>
      <trkpt lat="37.28408" lon="-8.62191">
        <ele>331.79</ele>
        <time>2020-07-20T10:13:11Z</time>
      </trkpt>
      <trkpt lat="37.28402" lon="-8.62201">
        <ele>331.79</ele>
        <time>2020-07-20T10:13:13Z</time>
      </trkpt>
      <trkpt lat="37.28393" lon="-8.62217">
        <ele>331.31</ele>
        <time>2020-07-20T10:13:16Z</time>
      </trkpt>
      <trkpt lat="37.28372" lon="-8.62235">
        <ele>330.83</ele>
        <time>2020-07-20T10:13:21Z</time>
      </trkpt>
      <trkpt lat="37.28359" lon="-8.62229">
        <ele>330.83</ele>
        <time>2020-07-20T10:13:24Z</time>
      </trkpt>
      <trkpt lat="37.2833" lon="-8.62217">
        <ele>329.39</ele>
        <time>2020-07-20T10:13:30Z</time>
      </trkpt>
      <trkpt lat="37.28324" lon="-8.62221">
        <ele>328.91</ele>
        <time>2020-07-20T10:13:31Z</time>
      </trkpt>
      <trkpt lat="37.28313" lon="-8.62232">
        <ele>328.43</ele>
        <time>2020-07-20T10:13:33Z</time>
      </trkpt>
      <trkpt lat="37.28292" lon="-8.62244">
        <ele>325.54</ele>
        <time>2020-07-20T10:13:36Z</time>
      </trkpt>
      <trkpt lat="37.28278" lon="-8.62248">
        <ele>325.06</ele>
        <time>2020-07-20T10:13:38Z</time>
      </trkpt>
      <trkpt lat="37.28253" lon="-8.6225">
        <ele>325.06</ele>
        <time>2020-07-20T10:13:42Z</time>
      </trkpt>
      <trkpt lat="37.2822" lon="-8.62267">
        <ele>325.54</ele>
        <time>2020-07-20T10:13:49Z</time>
      </trkpt>
      <trkpt lat="37.28186" lon="-8.6227">
        <ele>322.18</ele>
        <time>2020-07-20T10:13:54Z</time>
      </trkpt>
      <trkpt lat="37.28167" lon="-8.62264">
        <ele>321.22</ele>
        <time>2020-07-20T10:13:57Z</time>
      </trkpt>
      <trkpt lat="37.28136" lon="-8.62274">
        <ele>318.81</ele>
        <time>2020-07-20T10:14:02Z</time>
      </trkpt>
      <trkpt lat="37.28111" lon="-8.62292">
        <ele>317.85</ele>
        <time>2020-07-20T10:14:06Z</time>
      </trkpt>
      <trkpt lat="37.28085" lon="-8.62296">
        <ele>317.85</ele>
        <time>2020-07-20T10:14:11Z</time>
      </trkpt>
      <trkpt lat="37.28081" lon="-8.62294">
        <ele>319.3</ele>
        <time>2020-07-20T10:14:12Z</time>
      </trkpt>
      <trkpt lat="37.28045" lon="-8.62278">
        <ele>320.74</ele>
        <time>2020-07-20T10:14:23Z</time>
      </trkpt>
      <trkpt lat="37.28029" lon="-8.62272">
        <ele>322.66</ele>
        <time>2020-07-20T10:14:30Z</time>
      </trkpt>
      <trkpt lat="37.28003" lon="-8.62266">
        <ele>324.1</ele>
        <time>2020-07-20T10:14:40Z</time>
      </trkpt>
      <trkpt lat="37.27985" lon="-8.6227">
        <ele>325.06</ele>
        <time>2020-07-20T10:14:48Z</time>
      </trkpt>
      <trkpt lat="37.27971" lon="-8.62279">
        <ele>325.06</ele>
        <time>2020-07-20T10:14:56Z</time>
      </trkpt>
      <trkpt lat="37.27954" lon="-8.62285">
        <ele>327.47</ele>
        <time>2020-07-20T10:15:03Z</time>
      </trkpt>
      <trkpt lat="37.27936" lon="-8.62283">
        <ele>329.39</ele>
        <time>2020-07-20T10:15:11Z</time>
      </trkpt>
      <trkpt lat="37.27927" lon="-8.62295">
        <ele>330.35</ele>
        <time>2020-07-20T10:15:17Z</time>
      </trkpt>
      <trkpt lat="37.27924" lon="-8.62317">
        <ele>331.31</ele>
        <time>2020-07-20T10:15:25Z</time>
      </trkpt>
      <trkpt lat="37.27915" lon="-8.62338">
        <ele>332.27</ele>
        <time>2020-07-20T10:15:33Z</time>
      </trkpt>
      <trkpt lat="37.27899" lon="-8.62344">
        <ele>332.75</ele>
        <time>2020-07-20T10:15:40Z</time>
      </trkpt>
      <trkpt lat="37.27878" lon="-8.62344">
        <ele>333.71</ele>
        <time>2020-07-20T10:15:49Z</time>
      </trkpt>
      <trkpt lat="37.27862" lon="-8.62355">
        <ele>334.68</ele>
        <time>2020-07-20T10:15:57Z</time>
      </trkpt>
      <trkpt lat="37.27847" lon="-8.6238">
        <ele>336.12</ele>
        <time>2020-07-20T10:16:07Z</time>
      </trkpt>
      <trkpt lat="37.27835" lon="-8.62391">
        <ele>336.6</ele>
        <time>2020-07-20T10:16:13Z</time>
      </trkpt>
      <trkpt lat="37.2782" lon="-8.62381">
        <ele>337.56</ele>
        <time>2020-07-20T10:16:20Z</time>
      </trkpt>
      <trkpt lat="37.27803" lon="-8.62358">
        <ele>339.48</ele>
        <time>2020-07-20T10:16:30Z</time>
      </trkpt>
      <trkpt lat="37.27787" lon="-8.62355">
        <ele>339.96</ele>
        <time>2020-07-20T10:16:37Z</time>
      </trkpt>
      <trkpt lat="37.27768" lon="-8.6237">
        <ele>339.96</ele>
        <time>2020-07-20T10:16:43Z</time>
      </trkpt>
      <trkpt lat="37.27761" lon="-8.62375">
        <ele>338.52</ele>
        <time>2020-07-20T10:16:45Z</time>
      </trkpt>
      <trkpt lat="37.27745" lon="-8.62383">
        <ele>337.08</ele>
        <time>2020-07-20T10:16:48Z</time>
      </trkpt>
      <trkpt lat="37.27739" lon="-8.62385">
        <ele>337.08</ele>
        <time>2020-07-20T10:16:49Z</time>
      </trkpt>
      <trkpt lat="37.27721" lon="-8.62388">
        <ele>335.16</ele>
        <time>2020-07-20T10:16:52Z</time>
      </trkpt>
      <trkpt lat="37.27698" lon="-8.62398">
        <ele>335.16</ele>
        <time>2020-07-20T10:16:56Z</time>
      </trkpt>
      <trkpt lat="37.27684" lon="-8.62417">
        <ele>334.68</ele>
        <time>2020-07-20T10:17:00Z</time>
      </trkpt>
      <trkpt lat="37.27674" lon="-8.62435">
        <ele>334.2</ele>
        <time>2020-07-20T10:17:04Z</time>
      </trkpt>
      <trkpt lat="37.27665" lon="-8.62436">
        <ele>333.71</ele>
        <time>2020-07-20T10:17:06Z</time>
      </trkpt>
      <trkpt lat="37.27644" lon="-8.62432">
        <ele>332.75</ele>
        <time>2020-07-20T10:17:11Z</time>
      </trkpt>
      <trkpt lat="37.27614" lon="-8.62414">
        <ele>330.35</ele>
        <time>2020-07-20T10:17:17Z</time>
      </trkpt>
      <trkpt lat="37.27593" lon="-8.62398">
        <ele>329.39</ele>
        <time>2020-07-20T10:17:21Z</time>
      </trkpt>
      <trkpt lat="37.27581" lon="-8.62372">
        <ele>328.43</ele>
        <time>2020-07-20T10:17:25Z</time>
      </trkpt>
      <trkpt lat="37.27577" lon="-8.62349">
        <ele>327.47</ele>
        <time>2020-07-20T10:17:28Z</time>
      </trkpt>
      <trkpt lat="37.27559" lon="-8.6233">
        <ele>326.02</ele>
        <time>2020-07-20T10:17:32Z</time>
      </trkpt>
      <trkpt lat="37.27531" lon="-8.62339">
        <ele>324.1</ele>
        <time>2020-07-20T10:17:36Z</time>
      </trkpt>
      <trkpt lat="37.27526" lon="-8.62345">
        <ele>324.1</ele>
        <time>2020-07-20T10:17:37Z</time>
      </trkpt>
      <trkpt lat="37.27507" lon="-8.62358">
        <ele>322.66</ele>
        <time>2020-07-20T10:17:40Z</time>
      </trkpt>
      <trkpt lat="37.27478" lon="-8.6235">
        <ele>319.3</ele>
        <time>2020-07-20T10:17:44Z</time>
      </trkpt>
      <trkpt lat="37.27467" lon="-8.62336">
        <ele>317.85</ele>
        <time>2020-07-20T10:17:46Z</time>
      </trkpt>
      <trkpt lat="37.27453" lon="-8.62311">
        <ele>316.41</ele>
        <time>2020-07-20T10:17:49Z</time>
      </trkpt>
      <trkpt lat="37.27432" lon="-8.62271">
        <ele>314.49</ele>
        <time>2020-07-20T10:17:54Z</time>
      </trkpt>
      <trkpt lat="37.27427" lon="-8.62256">
        <ele>314.01</ele>
        <time>2020-07-20T10:17:56Z</time>
      </trkpt>
      <trkpt lat="37.27409" lon="-8.62245">
        <ele>312.09</ele>
        <time>2020-07-20T10:18:00Z</time>
      </trkpt>
      <trkpt lat="37.27396" lon="-8.62251">
        <ele>310.16</ele>
        <time>2020-07-20T10:18:02Z</time>
      </trkpt>
      <trkpt lat="37.27384" lon="-8.6226">
        <ele>309.2</ele>
        <time>2020-07-20T10:18:04Z</time>
      </trkpt>
      <trkpt lat="37.27365" lon="-8.62271">
        <ele>307.28</ele>
        <time>2020-07-20T10:18:08Z</time>
      </trkpt>
      <trkpt lat="37.27342" lon="-8.62279">
        <ele>304.88</ele>
        <time>2020-07-20T10:18:13Z</time>
      </trkpt>
      <trkpt lat="37.27323" lon="-8.62286">
        <ele>303.43</ele>
        <time>2020-07-20T10:18:16Z</time>
      </trkpt>
      <trkpt lat="37.27318" lon="-8.62292">
        <ele>302.95</ele>
        <time>2020-07-20T10:18:17Z</time>
      </trkpt>
      <trkpt lat="37.27313" lon="-8.62299">
        <ele>302.47</ele>
        <time>2020-07-20T10:18:18Z</time>
      </trkpt>
      <trkpt lat="37.27308" lon="-8.62306">
        <ele>301.51</ele>
        <time>2020-07-20T10:18:19Z</time>
      </trkpt>
      <trkpt lat="37.27304" lon="-8.62314">
        <ele>301.51</ele>
        <time>2020-07-20T10:18:20Z</time>
      </trkpt>
      <trkpt lat="37.273" lon="-8.6232">
        <ele>301.03</ele>
        <time>2020-07-20T10:18:21Z</time>
      </trkpt>
      <trkpt lat="37.27294" lon="-8.62325">
        <ele>300.55</ele>
        <time>2020-07-20T10:18:22Z</time>
      </trkpt>
      <trkpt lat="37.27289" lon="-8.62329">
        <ele>300.07</ele>
        <time>2020-07-20T10:18:23Z</time>
      </trkpt>
      <trkpt lat="37.27282" lon="-8.62331">
        <ele>299.59</ele>
        <time>2020-07-20T10:18:24Z</time>
      </trkpt>
      <trkpt lat="37.27268" lon="-8.62337">
        <ele>298.63</ele>
        <time>2020-07-20T10:18:26Z</time>
      </trkpt>
      <trkpt lat="37.27246" lon="-8.62347">
        <ele>297.18</ele>
        <time>2020-07-20T10:18:29Z</time>
      </trkpt>
      <trkpt lat="37.27239" lon="-8.62349">
        <ele>296.22</ele>
        <time>2020-07-20T10:18:30Z</time>
      </trkpt>
      <trkpt lat="37.27232" lon="-8.62349">
        <ele>296.22</ele>
        <time>2020-07-20T10:18:31Z</time>
      </trkpt>
      <trkpt lat="37.27225" lon="-8.62348">
        <ele>295.74</ele>
        <time>2020-07-20T10:18:32Z</time>
      </trkpt>
      <trkpt lat="37.27219" lon="-8.62346">
        <ele>295.26</ele>
        <time>2020-07-20T10:18:33Z</time>
      </trkpt>
      <trkpt lat="37.27212" lon="-8.62343">
        <ele>294.3</ele>
        <time>2020-07-20T10:18:34Z</time>
      </trkpt>
      <trkpt lat="37.27206" lon="-8.62339">
        <ele>293.82</ele>
        <time>2020-07-20T10:18:35Z</time>
      </trkpt>
      <trkpt lat="37.27191" lon="-8.62333">
        <ele>292.86</ele>
        <time>2020-07-20T10:18:37Z</time>
      </trkpt>
      <trkpt lat="37.27184" lon="-8.62334">
        <ele>292.86</ele>
        <time>2020-07-20T10:18:38Z</time>
      </trkpt>
      <trkpt lat="37.27169" lon="-8.62337">
        <ele>291.9</ele>
        <time>2020-07-20T10:18:40Z</time>
      </trkpt>
      <trkpt lat="37.27162" lon="-8.62337">
        <ele>291.9</ele>
        <time>2020-07-20T10:18:41Z</time>
      </trkpt>
      <trkpt lat="37.27139" lon="-8.62335">
        <ele>290.94</ele>
        <time>2020-07-20T10:18:44Z</time>
      </trkpt>
      <trkpt lat="37.27132" lon="-8.62333">
        <ele>290.46</ele>
        <time>2020-07-20T10:18:45Z</time>
      </trkpt>
      <trkpt lat="37.27126" lon="-8.62331">
        <ele>290.46</ele>
        <time>2020-07-20T10:18:46Z</time>
      </trkpt>
      <trkpt lat="37.2712" lon="-8.62328">
        <ele>289.97</ele>
        <time>2020-07-20T10:18:47Z</time>
      </trkpt>
      <trkpt lat="37.27115" lon="-8.62324">
        <ele>289.97</ele>
        <time>2020-07-20T10:18:48Z</time>
      </trkpt>
      <trkpt lat="37.27111" lon="-8.6232">
        <ele>289.97</ele>
        <time>2020-07-20T10:18:49Z</time>
      </trkpt>
      <trkpt lat="37.27107" lon="-8.62315">
        <ele>289.97</ele>
        <time>2020-07-20T10:18:50Z</time>
      </trkpt>
      <trkpt lat="37.27104" lon="-8.62309">
        <ele>289.49</ele>
        <time>2020-07-20T10:18:51Z</time>
      </trkpt>
      <trkpt lat="37.27101" lon="-8.62302">
        <ele>288.53</ele>
        <time>2020-07-20T10:18:52Z</time>
      </trkpt>
      <trkpt lat="37.27099" lon="-8.62294">
        <ele>288.53</ele>
        <time>2020-07-20T10:18:53Z</time>
      </trkpt>
      <trkpt lat="37.27098" lon="-8.62285">
        <ele>287.57</ele>
        <time>2020-07-20T10:18:54Z</time>
      </trkpt>
      <trkpt lat="37.27096" lon="-8.62277">
        <ele>287.57</ele>
        <time>2020-07-20T10:18:55Z</time>
      </trkpt>
      <trkpt lat="37.27092" lon="-8.62271">
        <ele>287.57</ele>
        <time>2020-07-20T10:18:56Z</time>
      </trkpt>
      <trkpt lat="37.27086" lon="-8.62267">
        <ele>286.61</ele>
        <time>2020-07-20T10:18:57Z</time>
      </trkpt>
      <trkpt lat="37.2708" lon="-8.62265">
        <ele>286.61</ele>
        <time>2020-07-20T10:18:58Z</time>
      </trkpt>
      <trkpt lat="37.27074" lon="-8.62264">
        <ele>286.61</ele>
        <time>2020-07-20T10:18:59Z</time>
      </trkpt>
      <trkpt lat="37.27068" lon="-8.62263">
        <ele>286.13</ele>
        <time>2020-07-20T10:19:00Z</time>
      </trkpt>
      <trkpt lat="37.27063" lon="-8.6226">
        <ele>286.13</ele>
        <time>2020-07-20T10:19:01Z</time>
      </trkpt>
      <trkpt lat="37.27058" lon="-8.62255">
        <ele>285.65</ele>
        <time>2020-07-20T10:19:02Z</time>
      </trkpt>
      <trkpt lat="37.27054" lon="-8.62248">
        <ele>285.65</ele>
        <time>2020-07-20T10:19:03Z</time>
      </trkpt>
      <trkpt lat="37.2705" lon="-8.62241">
        <ele>284.69</ele>
        <time>2020-07-20T10:19:04Z</time>
      </trkpt>
      <trkpt lat="37.27041" lon="-8.62226">
        <ele>283.73</ele>
        <time>2020-07-20T10:19:06Z</time>
      </trkpt>
      <trkpt lat="37.27037" lon="-8.6222">
        <ele>283.73</ele>
        <time>2020-07-20T10:19:07Z</time>
      </trkpt>
      <trkpt lat="37.27032" lon="-8.62214">
        <ele>283.73</ele>
        <time>2020-07-20T10:19:08Z</time>
      </trkpt>
      <trkpt lat="37.27025" lon="-8.6221">
        <ele>283.25</ele>
        <time>2020-07-20T10:19:09Z</time>
      </trkpt>
      <trkpt lat="37.2702" lon="-8.62207">
        <ele>283.25</ele>
        <time>2020-07-20T10:19:10Z</time>
      </trkpt>
      <trkpt lat="37.27014" lon="-8.62206">
        <ele>283.25</ele>
        <time>2020-07-20T10:19:11Z</time>
      </trkpt>
      <trkpt lat="37.27008" lon="-8.62204">
        <ele>283.25</ele>
        <time>2020-07-20T10:19:12Z</time>
      </trkpt>
      <trkpt lat="37.27003" lon="-8.62204">
        <ele>283.25</ele>
        <time>2020-07-20T10:19:13Z</time>
      </trkpt>
      <trkpt lat="37.26958" lon="-8.622">
        <ele>280.84</ele>
        <time>2020-07-20T10:19:20Z</time>
      </trkpt>
      <trkpt lat="37.26952" lon="-8.62202">
        <ele>280.84</ele>
        <time>2020-07-20T10:19:21Z</time>
      </trkpt>
      <trkpt lat="37.2694" lon="-8.62206">
        <ele>280.84</ele>
        <time>2020-07-20T10:19:23Z</time>
      </trkpt>
      <trkpt lat="37.26934" lon="-8.62207">
        <ele>280.36</ele>
        <time>2020-07-20T10:19:24Z</time>
      </trkpt>
      <trkpt lat="37.26928" lon="-8.62206">
        <ele>279.88</ele>
        <time>2020-07-20T10:19:25Z</time>
      </trkpt>
      <trkpt lat="37.26911" lon="-8.62204">
        <ele>279.4</ele>
        <time>2020-07-20T10:19:28Z</time>
      </trkpt>
      <trkpt lat="37.26905" lon="-8.62204">
        <ele>278.92</ele>
        <time>2020-07-20T10:19:29Z</time>
      </trkpt>
      <trkpt lat="37.269" lon="-8.62205">
        <ele>278.92</ele>
        <time>2020-07-20T10:19:30Z</time>
      </trkpt>
      <trkpt lat="37.26895" lon="-8.62207">
        <ele>278.92</ele>
        <time>2020-07-20T10:19:31Z</time>
      </trkpt>
      <trkpt lat="37.26889" lon="-8.62209">
        <ele>278.92</ele>
        <time>2020-07-20T10:19:32Z</time>
      </trkpt>
      <trkpt lat="37.26872" lon="-8.62214">
        <ele>278.44</ele>
        <time>2020-07-20T10:19:35Z</time>
      </trkpt>
      <trkpt lat="37.26866" lon="-8.62215">
        <ele>277.96</ele>
        <time>2020-07-20T10:19:36Z</time>
      </trkpt>
      <trkpt lat="37.26861" lon="-8.62216">
        <ele>277.96</ele>
        <time>2020-07-20T10:19:37Z</time>
      </trkpt>
      <trkpt lat="37.26835" lon="-8.62218">
        <ele>277</ele>
        <time>2020-07-20T10:19:41Z</time>
      </trkpt>
      <trkpt lat="37.26829" lon="-8.62221">
        <ele>276.04</ele>
        <time>2020-07-20T10:19:42Z</time>
      </trkpt>
      <trkpt lat="37.26822" lon="-8.62224">
        <ele>275.56</ele>
        <time>2020-07-20T10:19:43Z</time>
      </trkpt>
      <trkpt lat="37.26795" lon="-8.62235">
        <ele>272.19</ele>
        <time>2020-07-20T10:19:47Z</time>
      </trkpt>
      <trkpt lat="37.26788" lon="-8.62237">
        <ele>271.23</ele>
        <time>2020-07-20T10:19:48Z</time>
      </trkpt>
      <trkpt lat="37.26781" lon="-8.62238">
        <ele>270.75</ele>
        <time>2020-07-20T10:19:49Z</time>
      </trkpt>
      <trkpt lat="37.2676" lon="-8.62237">
        <ele>267.86</ele>
        <time>2020-07-20T10:19:52Z</time>
      </trkpt>
      <trkpt lat="37.26754" lon="-8.62235">
        <ele>267.38</ele>
        <time>2020-07-20T10:19:53Z</time>
      </trkpt>
      <trkpt lat="37.2675" lon="-8.62232">
        <ele>266.9</ele>
        <time>2020-07-20T10:19:54Z</time>
      </trkpt>
      <trkpt lat="37.26745" lon="-8.62226">
        <ele>265.94</ele>
        <time>2020-07-20T10:19:55Z</time>
      </trkpt>
      <trkpt lat="37.26741" lon="-8.6222">
        <ele>264.98</ele>
        <time>2020-07-20T10:19:56Z</time>
      </trkpt>
      <trkpt lat="37.26736" lon="-8.62213">
        <ele>264.02</ele>
        <time>2020-07-20T10:19:57Z</time>
      </trkpt>
      <trkpt lat="37.2673" lon="-8.62206">
        <ele>263.06</ele>
        <time>2020-07-20T10:19:58Z</time>
      </trkpt>
      <trkpt lat="37.26723" lon="-8.62201">
        <ele>262.58</ele>
        <time>2020-07-20T10:19:59Z</time>
      </trkpt>
      <trkpt lat="37.26716" lon="-8.62196">
        <ele>262.1</ele>
        <time>2020-07-20T10:20:00Z</time>
      </trkpt>
      <trkpt lat="37.26709" lon="-8.62192">
        <ele>261.14</ele>
        <time>2020-07-20T10:20:01Z</time>
      </trkpt>
      <trkpt lat="37.26697" lon="-8.62185">
        <ele>259.21</ele>
        <time>2020-07-20T10:20:03Z</time>
      </trkpt>
      <trkpt lat="37.26691" lon="-8.62184">
        <ele>258.25</ele>
        <time>2020-07-20T10:20:04Z</time>
      </trkpt>
      <trkpt lat="37.26685" lon="-8.62185">
        <ele>257.77</ele>
        <time>2020-07-20T10:20:05Z</time>
      </trkpt>
      <trkpt lat="37.26679" lon="-8.62188">
        <ele>257.77</ele>
        <time>2020-07-20T10:20:06Z</time>
      </trkpt>
      <trkpt lat="37.26674" lon="-8.62193">
        <ele>257.29</ele>
        <time>2020-07-20T10:20:07Z</time>
      </trkpt>
      <trkpt lat="37.26669" lon="-8.622">
        <ele>256.81</ele>
        <time>2020-07-20T10:20:08Z</time>
      </trkpt>
      <trkpt lat="37.26665" lon="-8.62207">
        <ele>256.81</ele>
        <time>2020-07-20T10:20:09Z</time>
      </trkpt>
      <trkpt lat="37.26662" lon="-8.62215">
        <ele>255.85</ele>
        <time>2020-07-20T10:20:10Z</time>
      </trkpt>
      <trkpt lat="37.26659" lon="-8.62224">
        <ele>255.37</ele>
        <time>2020-07-20T10:20:11Z</time>
      </trkpt>
      <trkpt lat="37.26656" lon="-8.62231">
        <ele>255.37</ele>
        <time>2020-07-20T10:20:12Z</time>
      </trkpt>
      <trkpt lat="37.26651" lon="-8.62238">
        <ele>254.89</ele>
        <time>2020-07-20T10:20:13Z</time>
      </trkpt>
      <trkpt lat="37.26645" lon="-8.62243">
        <ele>254.89</ele>
        <time>2020-07-20T10:20:14Z</time>
      </trkpt>
      <trkpt lat="37.26638" lon="-8.62248">
        <ele>253.93</ele>
        <time>2020-07-20T10:20:15Z</time>
      </trkpt>
      <trkpt lat="37.26631" lon="-8.62253">
        <ele>252.96</ele>
        <time>2020-07-20T10:20:16Z</time>
      </trkpt>
      <trkpt lat="37.26623" lon="-8.62256">
        <ele>252.48</ele>
        <time>2020-07-20T10:20:17Z</time>
      </trkpt>
      <trkpt lat="37.26616" lon="-8.62258">
        <ele>252.48</ele>
        <time>2020-07-20T10:20:18Z</time>
      </trkpt>
      <trkpt lat="37.2661" lon="-8.62258">
        <ele>252.48</ele>
        <time>2020-07-20T10:20:19Z</time>
      </trkpt>
      <trkpt lat="37.26603" lon="-8.62257">
        <ele>251.52</ele>
        <time>2020-07-20T10:20:20Z</time>
      </trkpt>
      <trkpt lat="37.26596" lon="-8.62257">
        <ele>251.04</ele>
        <time>2020-07-20T10:20:21Z</time>
      </trkpt>
      <trkpt lat="37.2659" lon="-8.6226">
        <ele>250.56</ele>
        <time>2020-07-20T10:20:22Z</time>
      </trkpt>
      <trkpt lat="37.26585" lon="-8.62265">
        <ele>250.56</ele>
        <time>2020-07-20T10:20:23Z</time>
      </trkpt>
      <trkpt lat="37.26577" lon="-8.62278">
        <ele>250.08</ele>
        <time>2020-07-20T10:20:25Z</time>
      </trkpt>
      <trkpt lat="37.26571" lon="-8.62293">
        <ele>249.12</ele>
        <time>2020-07-20T10:20:27Z</time>
      </trkpt>
      <trkpt lat="37.26579" lon="-8.62316">
        <ele>248.16</ele>
        <time>2020-07-20T10:20:31Z</time>
      </trkpt>
      <trkpt lat="37.26601" lon="-8.62316">
        <ele>247.68</ele>
        <time>2020-07-20T10:20:35Z</time>
      </trkpt>
      <trkpt lat="37.26627" lon="-8.62334">
        <ele>247.2</ele>
        <time>2020-07-20T10:20:40Z</time>
      </trkpt>
      <trkpt lat="37.26628" lon="-8.62352">
        <ele>246.23</ele>
        <time>2020-07-20T10:20:43Z</time>
      </trkpt>
      <trkpt lat="37.26621" lon="-8.62363">
        <ele>245.75</ele>
        <time>2020-07-20T10:20:45Z</time>
      </trkpt>
      <trkpt lat="37.2661" lon="-8.62383">
        <ele>243.83</ele>
        <time>2020-07-20T10:20:48Z</time>
      </trkpt>
      <trkpt lat="37.266" lon="-8.62404">
        <ele>242.87</ele>
        <time>2020-07-20T10:20:51Z</time>
      </trkpt>
      <trkpt lat="37.26585" lon="-8.62421">
        <ele>240.95</ele>
        <time>2020-07-20T10:20:54Z</time>
      </trkpt>
      <trkpt lat="37.26575" lon="-8.62449">
        <ele>238.54</ele>
        <time>2020-07-20T10:20:58Z</time>
      </trkpt>
      <trkpt lat="37.26572" lon="-8.62489">
        <ele>238.06</ele>
        <time>2020-07-20T10:21:03Z</time>
      </trkpt>
      <trkpt lat="37.2656" lon="-8.62521">
        <ele>235.66</ele>
        <time>2020-07-20T10:21:07Z</time>
      </trkpt>
      <trkpt lat="37.26561" lon="-8.62555">
        <ele>235.18</ele>
        <time>2020-07-20T10:21:11Z</time>
      </trkpt>
      <trkpt lat="37.2656" lon="-8.62587">
        <ele>232.78</ele>
        <time>2020-07-20T10:21:14Z</time>
      </trkpt>
      <trkpt lat="37.26564" lon="-8.62653">
        <ele>228.45</ele>
        <time>2020-07-20T10:21:20Z</time>
      </trkpt>
      <trkpt lat="37.26565" lon="-8.62684">
        <ele>227.49</ele>
        <time>2020-07-20T10:21:23Z</time>
      </trkpt>
      <trkpt lat="37.26572" lon="-8.62714">
        <ele>226.05</ele>
        <time>2020-07-20T10:21:26Z</time>
      </trkpt>
      <trkpt lat="37.26589" lon="-8.62746">
        <ele>223.64</ele>
        <time>2020-07-20T10:21:30Z</time>
      </trkpt>
      <trkpt lat="37.26594" lon="-8.62775">
        <ele>222.68</ele>
        <time>2020-07-20T10:21:34Z</time>
      </trkpt>
      <trkpt lat="37.2658" lon="-8.62785">
        <ele>221.24</ele>
        <time>2020-07-20T10:21:37Z</time>
      </trkpt>
      <trkpt lat="37.26567" lon="-8.62782">
        <ele>220.28</ele>
        <time>2020-07-20T10:21:39Z</time>
      </trkpt>
      <trkpt lat="37.26548" lon="-8.62759">
        <ele>219.32</ele>
        <time>2020-07-20T10:21:43Z</time>
      </trkpt>
      <trkpt lat="37.26527" lon="-8.62729">
        <ele>218.36</ele>
        <time>2020-07-20T10:21:48Z</time>
      </trkpt>
      <trkpt lat="37.26515" lon="-8.62712">
        <ele>218.36</ele>
        <time>2020-07-20T10:21:51Z</time>
      </trkpt>
      <trkpt lat="37.26492" lon="-8.62691">
        <ele>216.43</ele>
        <time>2020-07-20T10:21:56Z</time>
      </trkpt>
      <trkpt lat="37.26483" lon="-8.62697">
        <ele>215.47</ele>
        <time>2020-07-20T10:22:00Z</time>
      </trkpt>
      <trkpt lat="37.26485" lon="-8.62707">
        <ele>214.99</ele>
        <time>2020-07-20T10:22:02Z</time>
      </trkpt>
      <trkpt lat="37.26498" lon="-8.62745">
        <ele>212.59</ele>
        <time>2020-07-20T10:22:08Z</time>
      </trkpt>
      <trkpt lat="37.26505" lon="-8.62779">
        <ele>210.19</ele>
        <time>2020-07-20T10:22:12Z</time>
      </trkpt>
      <trkpt lat="37.26513" lon="-8.62808">
        <ele>207.78</ele>
        <time>2020-07-20T10:22:15Z</time>
      </trkpt>
      <trkpt lat="37.26513" lon="-8.62834">
        <ele>206.34</ele>
        <time>2020-07-20T10:22:18Z</time>
      </trkpt>
      <trkpt lat="37.2651" lon="-8.62842">
        <ele>205.38</ele>
        <time>2020-07-20T10:22:19Z</time>
      </trkpt>
      <trkpt lat="37.26487" lon="-8.62888">
        <ele>201.53</ele>
        <time>2020-07-20T10:22:24Z</time>
      </trkpt>
      <trkpt lat="37.26477" lon="-8.62904">
        <ele>200.57</ele>
        <time>2020-07-20T10:22:26Z</time>
      </trkpt>
      <trkpt lat="37.26452" lon="-8.62921">
        <ele>199.61</ele>
        <time>2020-07-20T10:22:30Z</time>
      </trkpt>
      <trkpt lat="37.26438" lon="-8.6294">
        <ele>197.21</ele>
        <time>2020-07-20T10:22:33Z</time>
      </trkpt>
      <trkpt lat="37.26403" lon="-8.62987">
        <ele>192.4</ele>
        <time>2020-07-20T10:22:39Z</time>
      </trkpt>
      <trkpt lat="37.2637" lon="-8.63019">
        <ele>189.04</ele>
        <time>2020-07-20T10:22:44Z</time>
      </trkpt>
      <trkpt lat="37.26357" lon="-8.63032">
        <ele>188.08</ele>
        <time>2020-07-20T10:22:46Z</time>
      </trkpt>
      <trkpt lat="37.26337" lon="-8.63046">
        <ele>186.63</ele>
        <time>2020-07-20T10:22:49Z</time>
      </trkpt>
      <trkpt lat="37.26309" lon="-8.63059">
        <ele>185.67</ele>
        <time>2020-07-20T10:22:53Z</time>
      </trkpt>
      <trkpt lat="37.26287" lon="-8.6308">
        <ele>185.19</ele>
        <time>2020-07-20T10:22:57Z</time>
      </trkpt>
      <trkpt lat="37.26279" lon="-8.63092">
        <ele>185.19</ele>
        <time>2020-07-20T10:22:59Z</time>
      </trkpt>
      <trkpt lat="37.26253" lon="-8.63149">
        <ele>183.75</ele>
        <time>2020-07-20T10:23:07Z</time>
      </trkpt>
      <trkpt lat="37.26238" lon="-8.6318">
        <ele>182.79</ele>
        <time>2020-07-20T10:23:11Z</time>
      </trkpt>
      <trkpt lat="37.26218" lon="-8.63207">
        <ele>180.87</ele>
        <time>2020-07-20T10:23:15Z</time>
      </trkpt>
      <trkpt lat="37.26192" lon="-8.63226">
        <ele>179.9</ele>
        <time>2020-07-20T10:23:19Z</time>
      </trkpt>
      <trkpt lat="37.2613" lon="-8.63241">
        <ele>178.94</ele>
        <time>2020-07-20T10:23:28Z</time>
      </trkpt>
      <trkpt lat="37.26083" lon="-8.63256">
        <ele>177.98</ele>
        <time>2020-07-20T10:23:36Z</time>
      </trkpt>
      <trkpt lat="37.26037" lon="-8.63283">
        <ele>177.02</ele>
        <time>2020-07-20T10:23:44Z</time>
      </trkpt>
      <trkpt lat="37.25995" lon="-8.63317">
        <ele>176.06</ele>
        <time>2020-07-20T10:23:51Z</time>
      </trkpt>
      <trkpt lat="37.25938" lon="-8.63364">
        <ele>174.14</ele>
        <time>2020-07-20T10:24:01Z</time>
      </trkpt>
      <trkpt lat="37.25922" lon="-8.63387">
        <ele>174.14</ele>
        <time>2020-07-20T10:24:05Z</time>
      </trkpt>
      <trkpt lat="37.25891" lon="-8.63442">
        <ele>173.66</ele>
        <time>2020-07-20T10:24:15Z</time>
      </trkpt>
      <trkpt lat="37.25874" lon="-8.63467">
        <ele>172.69</ele>
        <time>2020-07-20T10:24:20Z</time>
      </trkpt>
      <trkpt lat="37.25843" lon="-8.63516">
        <ele>172.21</ele>
        <time>2020-07-20T10:24:30Z</time>
      </trkpt>
      <trkpt lat="37.25823" lon="-8.63546">
        <ele>171.73</ele>
        <time>2020-07-20T10:24:37Z</time>
      </trkpt>
      <trkpt lat="37.25791" lon="-8.63578">
        <ele>170.29</ele>
        <time>2020-07-20T10:24:45Z</time>
      </trkpt>
      <trkpt lat="37.25747" lon="-8.63615">
        <ele>168.37</ele>
        <time>2020-07-20T10:24:54Z</time>
      </trkpt>
      <trkpt lat="37.25716" lon="-8.63634">
        <ele>167.41</ele>
        <time>2020-07-20T10:25:00Z</time>
      </trkpt>
      <trkpt lat="37.25677" lon="-8.63634">
        <ele>166.45</ele>
        <time>2020-07-20T10:25:07Z</time>
      </trkpt>
      <trkpt lat="37.25622" lon="-8.63623">
        <ele>165</ele>
        <time>2020-07-20T10:25:17Z</time>
      </trkpt>
      <trkpt lat="37.25574" lon="-8.63604">
        <ele>164.52</ele>
        <time>2020-07-20T10:25:26Z</time>
      </trkpt>
      <trkpt lat="37.25524" lon="-8.63599">
        <ele>164.04</ele>
        <time>2020-07-20T10:25:35Z</time>
      </trkpt>
      <trkpt lat="37.2548" lon="-8.63582">
        <ele>163.08</ele>
        <time>2020-07-20T10:25:43Z</time>
      </trkpt>
      <trkpt lat="37.25456" lon="-8.63569">
        <ele>162.12</ele>
        <time>2020-07-20T10:25:47Z</time>
      </trkpt>
      <trkpt lat="37.2544" lon="-8.63557">
        <ele>161.64</ele>
        <time>2020-07-20T10:25:50Z</time>
      </trkpt>
      <trkpt lat="37.25413" lon="-8.63549">
        <ele>161.64</ele>
        <time>2020-07-20T10:25:55Z</time>
      </trkpt>
      <trkpt lat="37.25408" lon="-8.6355">
        <ele>161.64</ele>
        <time>2020-07-20T10:25:56Z</time>
      </trkpt>
      <trkpt lat="37.25361" lon="-8.63557">
        <ele>161.64</ele>
        <time>2020-07-20T10:26:05Z</time>
      </trkpt>
      <trkpt lat="37.25321" lon="-8.63563">
        <ele>160.2</ele>
        <time>2020-07-20T10:26:12Z</time>
      </trkpt>
      <trkpt lat="37.25271" lon="-8.63564">
        <ele>158.75</ele>
        <time>2020-07-20T10:26:20Z</time>
      </trkpt>
      <trkpt lat="37.25248" lon="-8.63571">
        <ele>158.75</ele>
        <time>2020-07-20T10:26:24Z</time>
      </trkpt>
      <trkpt lat="37.25233" lon="-8.6358">
        <ele>158.75</ele>
        <time>2020-07-20T10:26:27Z</time>
      </trkpt>
      <trkpt lat="37.25208" lon="-8.63581">
        <ele>158.27</ele>
        <time>2020-07-20T10:26:32Z</time>
      </trkpt>
      <trkpt lat="37.25202" lon="-8.63578">
        <ele>158.27</ele>
        <time>2020-07-20T10:26:33Z</time>
      </trkpt>
      <trkpt lat="37.25161" lon="-8.63548">
        <ele>157.31</ele>
        <time>2020-07-20T10:26:41Z</time>
      </trkpt>
      <trkpt lat="37.25107" lon="-8.6351">
        <ele>155.39</ele>
        <time>2020-07-20T10:26:52Z</time>
      </trkpt>
      <trkpt lat="37.25069" lon="-8.63489">
        <ele>154.43</ele>
        <time>2020-07-20T10:26:59Z</time>
      </trkpt>
      <trkpt lat="37.25017" lon="-8.63474">
        <ele>153.95</ele>
        <time>2020-07-20T10:27:08Z</time>
      </trkpt>
      <trkpt lat="37.24988" lon="-8.63466">
        <ele>153.95</ele>
        <time>2020-07-20T10:27:13Z</time>
      </trkpt>
      <trkpt lat="37.24953" lon="-8.63468">
        <ele>152.99</ele>
        <time>2020-07-20T10:27:19Z</time>
      </trkpt>
      <trkpt lat="37.24926" lon="-8.63462">
        <ele>152.99</ele>
        <time>2020-07-20T10:27:24Z</time>
      </trkpt>
      <trkpt lat="37.24915" lon="-8.63456">
        <ele>152.99</ele>
        <time>2020-07-20T10:27:26Z</time>
      </trkpt>
      <trkpt lat="37.24869" lon="-8.63448">
        <ele>152.51</ele>
        <time>2020-07-20T10:27:34Z</time>
      </trkpt>
      <trkpt lat="37.2481" lon="-8.63431">
        <ele>151.06</ele>
        <time>2020-07-20T10:27:44Z</time>
      </trkpt>
      <trkpt lat="37.2478" lon="-8.63423">
        <ele>150.58</ele>
        <time>2020-07-20T10:27:49Z</time>
      </trkpt>
      <trkpt lat="37.2475" lon="-8.63428">
        <ele>150.1</ele>
        <time>2020-07-20T10:27:54Z</time>
      </trkpt>
      <trkpt lat="37.24696" lon="-8.63434">
        <ele>148.18</ele>
        <time>2020-07-20T10:28:02Z</time>
      </trkpt>
      <trkpt lat="37.24636" lon="-8.63436">
        <ele>146.74</ele>
        <time>2020-07-20T10:28:11Z</time>
      </trkpt>
      <trkpt lat="37.24618" lon="-8.63438">
        <ele>146.74</ele>
        <time>2020-07-20T10:28:14Z</time>
      </trkpt>
      <trkpt lat="37.24601" lon="-8.63438">
        <ele>146.74</ele>
        <time>2020-07-20T10:28:17Z</time>
      </trkpt>
      <trkpt lat="37.24589" lon="-8.63435">
        <ele>146.74</ele>
        <time>2020-07-20T10:28:19Z</time>
      </trkpt>
      <trkpt lat="37.24573" lon="-8.63434">
        <ele>146.74</ele>
        <time>2020-07-20T10:28:22Z</time>
      </trkpt>
      <trkpt lat="37.24513" lon="-8.63429">
        <ele>144.82</ele>
        <time>2020-07-20T10:28:31Z</time>
      </trkpt>
      <trkpt lat="37.24473" lon="-8.63427">
        <ele>144.82</ele>
        <time>2020-07-20T10:28:38Z</time>
      </trkpt>
      <trkpt lat="37.24452" lon="-8.63424">
        <ele>144.82</ele>
        <time>2020-07-20T10:28:42Z</time>
      </trkpt>
      <trkpt lat="37.2443" lon="-8.63425">
        <ele>143.85</ele>
        <time>2020-07-20T10:28:46Z</time>
      </trkpt>
      <trkpt lat="37.2441" lon="-8.63419">
        <ele>143.85</ele>
        <time>2020-07-20T10:28:50Z</time>
      </trkpt>
      <trkpt lat="37.24392" lon="-8.63426">
        <ele>141.93</ele>
        <time>2020-07-20T10:28:55Z</time>
      </trkpt>
      <trkpt lat="37.24389" lon="-8.63432">
        <ele>141.93</ele>
        <time>2020-07-20T10:28:57Z</time>
      </trkpt>
      <trkpt lat="37.2438" lon="-8.63445">
        <ele>140.01</ele>
        <time>2020-07-20T10:29:02Z</time>
      </trkpt>
      <trkpt lat="37.24363" lon="-8.63442">
        <ele>140.01</ele>
        <time>2020-07-20T10:29:08Z</time>
      </trkpt>
      <trkpt lat="37.24357" lon="-8.6344">
        <ele>140.01</ele>
        <time>2020-07-20T10:29:10Z</time>
      </trkpt>
      <trkpt lat="37.24337" lon="-8.63438">
        <ele>140.01</ele>
        <time>2020-07-20T10:29:16Z</time>
      </trkpt>
      <trkpt lat="37.24318" lon="-8.63446">
        <ele>140.01</ele>
        <time>2020-07-20T10:29:23Z</time>
      </trkpt>
      <trkpt lat="37.24303" lon="-8.63449">
        <ele>140.01</ele>
        <time>2020-07-20T10:29:28Z</time>
      </trkpt>
      <trkpt lat="37.24284" lon="-8.63454">
        <ele>139.53</ele>
        <time>2020-07-20T10:29:34Z</time>
      </trkpt>
      <trkpt lat="37.24262" lon="-8.63459">
        <ele>138.57</ele>
        <time>2020-07-20T10:29:40Z</time>
      </trkpt>
      <trkpt lat="37.24239" lon="-8.63468">
        <ele>138.57</ele>
        <time>2020-07-20T10:29:47Z</time>
      </trkpt>
      <trkpt lat="37.24229" lon="-8.63477">
        <ele>138.57</ele>
        <time>2020-07-20T10:29:53Z</time>
      </trkpt>
      <trkpt lat="37.24214" lon="-8.63486">
        <ele>139.53</ele>
        <time>2020-07-20T10:29:59Z</time>
      </trkpt>
      <trkpt lat="37.24194" lon="-8.63497">
        <ele>139.53</ele>
        <time>2020-07-20T10:30:06Z</time>
      </trkpt>
      <trkpt lat="37.24183" lon="-8.6351">
        <ele>140.97</ele>
        <time>2020-07-20T10:30:12Z</time>
      </trkpt>
      <trkpt lat="37.2417" lon="-8.63531">
        <ele>142.41</ele>
        <time>2020-07-20T10:30:21Z</time>
      </trkpt>
      <trkpt lat="37.24161" lon="-8.63553">
        <ele>142.89</ele>
        <time>2020-07-20T10:30:28Z</time>
      </trkpt>
      <trkpt lat="37.24153" lon="-8.63561">
        <ele>141.45</ele>
        <time>2020-07-20T10:30:30Z</time>
      </trkpt>
      <trkpt lat="37.24138" lon="-8.63591">
        <ele>138.09</ele>
        <time>2020-07-20T10:30:34Z</time>
      </trkpt>
      <trkpt lat="37.24124" lon="-8.63612">
        <ele>136.64</ele>
        <time>2020-07-20T10:30:37Z</time>
      </trkpt>
      <trkpt lat="37.24118" lon="-8.63618">
        <ele>136.64</ele>
        <time>2020-07-20T10:30:38Z</time>
      </trkpt>
      <trkpt lat="37.24106" lon="-8.63655">
        <ele>135.68</ele>
        <time>2020-07-20T10:30:43Z</time>
      </trkpt>
      <trkpt lat="37.24105" lon="-8.63663">
        <ele>135.68</ele>
        <time>2020-07-20T10:30:44Z</time>
      </trkpt>
      <trkpt lat="37.2409" lon="-8.6371">
        <ele>135.2</ele>
        <time>2020-07-20T10:30:51Z</time>
      </trkpt>
      <trkpt lat="37.24075" lon="-8.6375">
        <ele>135.2</ele>
        <time>2020-07-20T10:30:58Z</time>
      </trkpt>
      <trkpt lat="37.24074" lon="-8.63755">
        <ele>135.2</ele>
        <time>2020-07-20T10:30:59Z</time>
      </trkpt>
      <trkpt lat="37.24057" lon="-8.63789">
        <ele>136.16</ele>
        <time>2020-07-20T10:31:08Z</time>
      </trkpt>
      <trkpt lat="37.24043" lon="-8.63805">
        <ele>138.09</ele>
        <time>2020-07-20T10:31:15Z</time>
      </trkpt>
      <trkpt lat="37.24028" lon="-8.63818">
        <ele>139.53</ele>
        <time>2020-07-20T10:31:23Z</time>
      </trkpt>
      <trkpt lat="37.24004" lon="-8.63833">
        <ele>142.41</ele>
        <time>2020-07-20T10:31:35Z</time>
      </trkpt>
      <trkpt lat="37.2399" lon="-8.63846">
        <ele>144.34</ele>
        <time>2020-07-20T10:31:43Z</time>
      </trkpt>
      <trkpt lat="37.23986" lon="-8.63862">
        <ele>145.78</ele>
        <time>2020-07-20T10:31:49Z</time>
      </trkpt>
      <trkpt lat="37.23987" lon="-8.6387">
        <ele>146.74</ele>
        <time>2020-07-20T10:31:52Z</time>
      </trkpt>
      <trkpt lat="37.24004" lon="-8.63886">
        <ele>148.66</ele>
        <time>2020-07-20T10:32:02Z</time>
      </trkpt>
      <trkpt lat="37.24017" lon="-8.63895">
        <ele>149.14</ele>
        <time>2020-07-20T10:32:11Z</time>
      </trkpt>
      <trkpt lat="37.24022" lon="-8.63901">
        <ele>149.14</ele>
        <time>2020-07-20T10:32:14Z</time>
      </trkpt>
      <trkpt lat="37.24032" lon="-8.63923">
        <ele>146.74</ele>
        <time>2020-07-20T10:32:18Z</time>
      </trkpt>
      <trkpt lat="37.24053" lon="-8.63956">
        <ele>144.34</ele>
        <time>2020-07-20T10:32:23Z</time>
      </trkpt>
      <trkpt lat="37.2408" lon="-8.63992">
        <ele>140.97</ele>
        <time>2020-07-20T10:32:28Z</time>
      </trkpt>
      <trkpt lat="37.24103" lon="-8.64029">
        <ele>138.09</ele>
        <time>2020-07-20T10:32:33Z</time>
      </trkpt>
      <trkpt lat="37.24137" lon="-8.64056">
        <ele>137.13</ele>
        <time>2020-07-20T10:32:39Z</time>
      </trkpt>
      <trkpt lat="37.24142" lon="-8.64074">
        <ele>136.16</ele>
        <time>2020-07-20T10:32:43Z</time>
      </trkpt>
      <trkpt lat="37.24138" lon="-8.64077">
        <ele>135.2</ele>
        <time>2020-07-20T10:32:44Z</time>
      </trkpt>
      <trkpt lat="37.24103" lon="-8.6411">
        <ele>130.88</ele>
        <time>2020-07-20T10:32:51Z</time>
      </trkpt>
      <trkpt lat="37.24098" lon="-8.64115">
        <ele>130.88</ele>
        <time>2020-07-20T10:32:52Z</time>
      </trkpt>
      <trkpt lat="37.24084" lon="-8.64128">
        <ele>129.92</ele>
        <time>2020-07-20T10:32:55Z</time>
      </trkpt>
      <trkpt lat="37.24079" lon="-8.64132">
        <ele>128.95</ele>
        <time>2020-07-20T10:32:56Z</time>
      </trkpt>
      <trkpt lat="37.24075" lon="-8.64132">
        <ele>128.47</ele>
        <time>2020-07-20T10:32:57Z</time>
      </trkpt>
      <trkpt lat="37.24071" lon="-8.64132">
        <ele>128.47</ele>
        <time>2020-07-20T10:32:58Z</time>
      </trkpt>
      <trkpt lat="37.24066" lon="-8.6413">
        <ele>128.47</ele>
        <time>2020-07-20T10:32:59Z</time>
      </trkpt>
      <trkpt lat="37.24062" lon="-8.64127">
        <ele>127.99</ele>
        <time>2020-07-20T10:33:00Z</time>
      </trkpt>
      <trkpt lat="37.24058" lon="-8.64125">
        <ele>127.51</ele>
        <time>2020-07-20T10:33:01Z</time>
      </trkpt>
      <trkpt lat="37.24029" lon="-8.64112">
        <ele>127.99</ele>
        <time>2020-07-20T10:33:09Z</time>
      </trkpt>
      <trkpt lat="37.24003" lon="-8.64102">
        <ele>127.99</ele>
        <time>2020-07-20T10:33:17Z</time>
      </trkpt>
      <trkpt lat="37.23974" lon="-8.64091">
        <ele>127.99</ele>
        <time>2020-07-20T10:33:25Z</time>
      </trkpt>
      <trkpt lat="37.23934" lon="-8.6407">
        <ele>127.51</ele>
        <time>2020-07-20T10:33:36Z</time>
      </trkpt>
      <trkpt lat="37.23911" lon="-8.64048">
        <ele>127.51</ele>
        <time>2020-07-20T10:33:44Z</time>
      </trkpt>
      <trkpt lat="37.239" lon="-8.64025">
        <ele>127.51</ele>
        <time>2020-07-20T10:33:50Z</time>
      </trkpt>
      <trkpt lat="37.23885" lon="-8.63986">
        <ele>128.47</ele>
        <time>2020-07-20T10:33:59Z</time>
      </trkpt>
      <trkpt lat="37.23874" lon="-8.63959">
        <ele>129.92</ele>
        <time>2020-07-20T10:34:07Z</time>
      </trkpt>
      <trkpt lat="37.23864" lon="-8.6393">
        <ele>131.36</ele>
        <time>2020-07-20T10:34:16Z</time>
      </trkpt>
      <trkpt lat="37.23852" lon="-8.63897">
        <ele>132.8</ele>
        <time>2020-07-20T10:34:26Z</time>
      </trkpt>
      <trkpt lat="37.2384" lon="-8.63867">
        <ele>134.24</ele>
        <time>2020-07-20T10:34:36Z</time>
      </trkpt>
      <trkpt lat="37.23826" lon="-8.63836">
        <ele>136.16</ele>
        <time>2020-07-20T10:34:47Z</time>
      </trkpt>
      <trkpt lat="37.23812" lon="-8.63804">
        <ele>137.61</ele>
        <time>2020-07-20T10:34:58Z</time>
      </trkpt>
      <trkpt lat="37.23799" lon="-8.63772">
        <ele>135.68</ele>
        <time>2020-07-20T10:35:05Z</time>
      </trkpt>
      <trkpt lat="37.23789" lon="-8.63743">
        <ele>134.24</ele>
        <time>2020-07-20T10:35:09Z</time>
      </trkpt>
      <trkpt lat="37.23767" lon="-8.63689">
        <ele>132.8</ele>
        <time>2020-07-20T10:35:17Z</time>
      </trkpt>
      <trkpt lat="37.23749" lon="-8.63641">
        <ele>134.24</ele>
        <time>2020-07-20T10:35:26Z</time>
      </trkpt>
      <trkpt lat="37.23747" lon="-8.63637">
        <ele>134.24</ele>
        <time>2020-07-20T10:35:27Z</time>
      </trkpt>
      <trkpt lat="37.23721" lon="-8.63577">
        <ele>134.24</ele>
        <time>2020-07-20T10:35:40Z</time>
      </trkpt>
      <trkpt lat="37.23713" lon="-8.63562">
        <ele>133.28</ele>
        <time>2020-07-20T10:35:43Z</time>
      </trkpt>
      <trkpt lat="37.23689" lon="-8.63516">
        <ele>130.4</ele>
        <time>2020-07-20T10:35:50Z</time>
      </trkpt>
      <trkpt lat="37.23669" lon="-8.63478">
        <ele>127.99</ele>
        <time>2020-07-20T10:35:55Z</time>
      </trkpt>
      <trkpt lat="37.23639" lon="-8.63424">
        <ele>124.63</ele>
        <time>2020-07-20T10:36:02Z</time>
      </trkpt>
      <trkpt lat="37.23626" lon="-8.63402">
        <ele>124.15</ele>
        <time>2020-07-20T10:36:05Z</time>
      </trkpt>
      <trkpt lat="37.23621" lon="-8.63398">
        <ele>124.15</ele>
        <time>2020-07-20T10:36:06Z</time>
      </trkpt>
      <trkpt lat="37.23615" lon="-8.63395">
        <ele>124.15</ele>
        <time>2020-07-20T10:36:07Z</time>
      </trkpt>
      <trkpt lat="37.2361" lon="-8.63395">
        <ele>124.15</ele>
        <time>2020-07-20T10:36:08Z</time>
      </trkpt>
      <trkpt lat="37.23605" lon="-8.63395">
        <ele>124.15</ele>
        <time>2020-07-20T10:36:09Z</time>
      </trkpt>
      <trkpt lat="37.23601" lon="-8.63395">
        <ele>124.15</ele>
        <time>2020-07-20T10:36:10Z</time>
      </trkpt>
      <trkpt lat="37.23596" lon="-8.63395">
        <ele>124.15</ele>
        <time>2020-07-20T10:36:11Z</time>
      </trkpt>
      <trkpt lat="37.23592" lon="-8.63395">
        <ele>124.15</ele>
        <time>2020-07-20T10:36:12Z</time>
      </trkpt>
      <trkpt lat="37.23588" lon="-8.63393">
        <ele>124.15</ele>
        <time>2020-07-20T10:36:13Z</time>
      </trkpt>
      <trkpt lat="37.23583" lon="-8.63392">
        <ele>124.15</ele>
        <time>2020-07-20T10:36:14Z</time>
      </trkpt>
      <trkpt lat="37.23579" lon="-8.6339">
        <ele>124.15</ele>
        <time>2020-07-20T10:36:15Z</time>
      </trkpt>
      <trkpt lat="37.23576" lon="-8.63387">
        <ele>124.15</ele>
        <time>2020-07-20T10:36:16Z</time>
      </trkpt>
      <trkpt lat="37.23566" lon="-8.63379">
        <ele>124.15</ele>
        <time>2020-07-20T10:36:19Z</time>
      </trkpt>
      <trkpt lat="37.2356" lon="-8.63378">
        <ele>124.15</ele>
        <time>2020-07-20T10:36:20Z</time>
      </trkpt>
      <trkpt lat="37.23556" lon="-8.63379">
        <ele>124.15</ele>
        <time>2020-07-20T10:36:21Z</time>
      </trkpt>
      <trkpt lat="37.23513" lon="-8.63382">
        <ele>123.67</ele>
        <time>2020-07-20T10:36:30Z</time>
      </trkpt>
      <trkpt lat="37.23463" lon="-8.6338">
        <ele>121.74</ele>
        <time>2020-07-20T10:36:39Z</time>
      </trkpt>
      <trkpt lat="37.23451" lon="-8.6338">
        <ele>121.26</ele>
        <time>2020-07-20T10:36:41Z</time>
      </trkpt>
      <trkpt lat="37.23446" lon="-8.63379">
        <ele>121.26</ele>
        <time>2020-07-20T10:36:42Z</time>
      </trkpt>
      <trkpt lat="37.2344" lon="-8.63378">
        <ele>121.26</ele>
        <time>2020-07-20T10:36:43Z</time>
      </trkpt>
      <trkpt lat="37.23435" lon="-8.63377">
        <ele>121.26</ele>
        <time>2020-07-20T10:36:44Z</time>
      </trkpt>
      <trkpt lat="37.23429" lon="-8.63377">
        <ele>121.26</ele>
        <time>2020-07-20T10:36:45Z</time>
      </trkpt>
      <trkpt lat="37.23373" lon="-8.63372">
        <ele>120.3</ele>
        <time>2020-07-20T10:36:55Z</time>
      </trkpt>
      <trkpt lat="37.23318" lon="-8.63367">
        <ele>119.34</ele>
        <time>2020-07-20T10:37:05Z</time>
      </trkpt>
      <trkpt lat="37.23274" lon="-8.63362">
        <ele>118.38</ele>
        <time>2020-07-20T10:37:13Z</time>
      </trkpt>
      <trkpt lat="37.23214" lon="-8.63357">
        <ele>116.94</ele>
        <time>2020-07-20T10:37:24Z</time>
      </trkpt>
      <trkpt lat="37.23152" lon="-8.63352">
        <ele>115.5</ele>
        <time>2020-07-20T10:37:36Z</time>
      </trkpt>
      <trkpt lat="37.23093" lon="-8.63347">
        <ele>115.5</ele>
        <time>2020-07-20T10:37:47Z</time>
      </trkpt>
      <trkpt lat="37.23035" lon="-8.6334">
        <ele>115.01</ele>
        <time>2020-07-20T10:37:58Z</time>
      </trkpt>
      <trkpt lat="37.22979" lon="-8.6333">
        <ele>114.05</ele>
        <time>2020-07-20T10:38:09Z</time>
      </trkpt>
      <trkpt lat="37.22943" lon="-8.63315">
        <ele>113.57</ele>
        <time>2020-07-20T10:38:18Z</time>
      </trkpt>
      <trkpt lat="37.22937" lon="-8.63303">
        <ele>113.57</ele>
        <time>2020-07-20T10:38:21Z</time>
      </trkpt>
      <trkpt lat="37.22924" lon="-8.63269">
        <ele>115.01</ele>
        <time>2020-07-20T10:38:29Z</time>
      </trkpt>
      <trkpt lat="37.22927" lon="-8.63248">
        <ele>115.01</ele>
        <time>2020-07-20T10:38:34Z</time>
      </trkpt>
      <trkpt lat="37.22937" lon="-8.63216">
        <ele>115.01</ele>
        <time>2020-07-20T10:38:42Z</time>
      </trkpt>
      <trkpt lat="37.22947" lon="-8.63184">
        <ele>115.01</ele>
        <time>2020-07-20T10:38:50Z</time>
      </trkpt>
      <trkpt lat="37.22944" lon="-8.63163">
        <ele>115.5</ele>
        <time>2020-07-20T10:38:57Z</time>
      </trkpt>
      <trkpt lat="37.22944" lon="-8.63159">
        <ele>115.5</ele>
        <time>2020-07-20T10:38:59Z</time>
      </trkpt>
      <trkpt lat="37.22945" lon="-8.63158">
        <ele>115.5</ele>
        <time>2020-07-20T10:39:00Z</time>
      </trkpt>
      <trkpt lat="37.22946" lon="-8.63157">
        <ele>115.98</ele>
        <time>2020-07-20T10:39:01Z</time>
      </trkpt>
      <trkpt lat="37.22946" lon="-8.63154">
        <ele>115.98</ele>
        <time>2020-07-20T10:39:03Z</time>
      </trkpt>
      <trkpt lat="37.22945" lon="-8.63153">
        <ele>115.98</ele>
        <time>2020-07-20T10:39:04Z</time>
      </trkpt>
      <trkpt lat="37.22936" lon="-8.63152">
        <ele>115.98</ele>
        <time>2020-07-20T10:39:08Z</time>
      </trkpt>
      <trkpt lat="37.22934" lon="-8.6315">
        <ele>115.98</ele>
        <time>2020-07-20T10:39:09Z</time>
      </trkpt>
      <trkpt lat="37.22932" lon="-8.63146">
        <ele>115.98</ele>
        <time>2020-07-20T10:39:10Z</time>
      </trkpt>
      <trkpt lat="37.22931" lon="-8.63143">
        <ele>115.98</ele>
        <time>2020-07-20T10:39:11Z</time>
      </trkpt>
      <trkpt lat="37.22929" lon="-8.63139">
        <ele>115.98</ele>
        <time>2020-07-20T10:39:12Z</time>
      </trkpt>
      <trkpt lat="37.22929" lon="-8.63135">
        <ele>116.46</ele>
        <time>2020-07-20T10:39:13Z</time>
      </trkpt>
      <trkpt lat="37.22928" lon="-8.63131">
        <ele>116.46</ele>
        <time>2020-07-20T10:39:14Z</time>
      </trkpt>
      <trkpt lat="37.22928" lon="-8.63127">
        <ele>116.46</ele>
        <time>2020-07-20T10:39:15Z</time>
      </trkpt>
      <trkpt lat="37.22928" lon="-8.63123">
        <ele>116.94</ele>
        <time>2020-07-20T10:39:16Z</time>
      </trkpt>
      <trkpt lat="37.22927" lon="-8.63087">
        <ele>119.82</ele>
        <time>2020-07-20T10:39:24Z</time>
      </trkpt>
      <trkpt lat="37.22925" lon="-8.63065">
        <ele>121.74</ele>
        <time>2020-07-20T10:39:30Z</time>
      </trkpt>
      <trkpt lat="37.22922" lon="-8.63054">
        <ele>122.71</ele>
        <time>2020-07-20T10:39:35Z</time>
      </trkpt>
      <trkpt lat="37.22924" lon="-8.63051">
        <ele>122.71</ele>
        <time>2020-07-20T10:39:40Z</time>
      </trkpt>
      <trkpt lat="37.2293" lon="-8.63047">
        <ele>122.71</ele>
        <time>2020-07-20T10:39:49Z</time>
      </trkpt>
      <trkpt lat="37.22928" lon="-8.63047">
        <ele>122.71</ele>
        <time>2020-07-20T10:39:54Z</time>
      </trkpt>
      <trkpt lat="37.22926" lon="-8.63047">
        <ele>122.71</ele>
        <time>2020-07-20T10:39:56Z</time>
      </trkpt>
      <trkpt lat="37.22923" lon="-8.63055">
        <ele>122.71</ele>
        <time>2020-07-20T10:40:04Z</time>
      </trkpt>
      <trkpt lat="37.22924" lon="-8.63064">
        <ele>122.71</ele>
        <time>2020-07-20T10:40:19Z</time>
      </trkpt>
      <trkpt lat="37.22924" lon="-8.63066">
        <ele>122.22</ele>
        <time>2020-07-20T10:40:40Z</time>
      </trkpt>
      <trkpt lat="37.22925" lon="-8.63064">
        <ele>122.22</ele>
        <time>2020-07-20T10:40:57Z</time>
      </trkpt>
      <trkpt lat="37.22926" lon="-8.63064">
        <ele>122.22</ele>
        <time>2020-07-20T10:41:13Z</time>
      </trkpt>
      <trkpt lat="37.22926" lon="-8.63076">
        <ele>121.74</ele>
        <time>2020-07-20T10:41:29Z</time>
      </trkpt>
      <trkpt lat="37.22929" lon="-8.63089">
        <ele>121.74</ele>
        <time>2020-07-20T10:41:46Z</time>
      </trkpt>
      <trkpt lat="37.22931" lon="-8.63092">
        <ele>122.22</ele>
        <time>2020-07-20T10:42:02Z</time>
      </trkpt>
      <trkpt lat="37.22932" lon="-8.6309">
        <ele>122.22</ele>
        <time>2020-07-20T10:42:13Z</time>
      </trkpt>
      <trkpt lat="37.22932" lon="-8.63094">
        <ele>121.74</ele>
        <time>2020-07-20T10:42:21Z</time>
      </trkpt>
      <trkpt lat="37.22932" lon="-8.63089">
        <ele>121.74</ele>
        <time>2020-07-20T10:42:26Z</time>
      </trkpt>
      <trkpt lat="37.22927" lon="-8.63063">
        <ele>121.74</ele>
        <time>2020-07-20T10:42:29Z</time>
      </trkpt>
      <trkpt lat="37.22931" lon="-8.63072">
        <ele>120.78</ele>
        <time>2020-07-20T10:42:34Z</time>
      </trkpt>
      <trkpt lat="37.22932" lon="-8.63077">
        <ele>120.78</ele>
        <time>2020-07-20T10:42:35Z</time>
      </trkpt>
      <trkpt lat="37.22933" lon="-8.63086">
        <ele>120.3</ele>
        <time>2020-07-20T10:42:37Z</time>
      </trkpt>
      <trkpt lat="37.22929" lon="-8.6311">
        <ele>117.9</ele>
        <time>2020-07-20T10:42:41Z</time>
      </trkpt>
      <trkpt lat="37.22931" lon="-8.63134">
        <ele>115.98</ele>
        <time>2020-07-20T10:42:45Z</time>
      </trkpt>
      <trkpt lat="37.22932" lon="-8.6314">
        <ele>115.5</ele>
        <time>2020-07-20T10:42:46Z</time>
      </trkpt>
      <trkpt lat="37.22933" lon="-8.63144">
        <ele>115.5</ele>
        <time>2020-07-20T10:42:47Z</time>
      </trkpt>
      <trkpt lat="37.22944" lon="-8.63157">
        <ele>114.05</ele>
        <time>2020-07-20T10:42:52Z</time>
      </trkpt>
      <trkpt lat="37.2295" lon="-8.63159">
        <ele>114.05</ele>
        <time>2020-07-20T10:42:57Z</time>
      </trkpt>
      <trkpt lat="37.2295" lon="-8.6316">
        <ele>114.05</ele>
        <time>2020-07-20T10:43:05Z</time>
      </trkpt>
      <trkpt lat="37.22949" lon="-8.63162">
        <ele>114.05</ele>
        <time>2020-07-20T10:43:06Z</time>
      </trkpt>
      <trkpt lat="37.22948" lon="-8.63165">
        <ele>114.05</ele>
        <time>2020-07-20T10:43:07Z</time>
      </trkpt>
      <trkpt lat="37.22947" lon="-8.63166">
        <ele>114.05</ele>
        <time>2020-07-20T10:43:08Z</time>
      </trkpt>
      <trkpt lat="37.22945" lon="-8.63169">
        <ele>114.05</ele>
        <time>2020-07-20T10:43:09Z</time>
      </trkpt>
      <trkpt lat="37.22944" lon="-8.63173">
        <ele>114.05</ele>
        <time>2020-07-20T10:43:10Z</time>
      </trkpt>
      <trkpt lat="37.22943" lon="-8.63176">
        <ele>114.05</ele>
        <time>2020-07-20T10:43:11Z</time>
      </trkpt>
      <trkpt lat="37.22935" lon="-8.63202">
        <ele>113.09</ele>
        <time>2020-07-20T10:43:17Z</time>
      </trkpt>
      <trkpt lat="37.22919" lon="-8.63248">
        <ele>112.61</ele>
        <time>2020-07-20T10:43:25Z</time>
      </trkpt>
      <trkpt lat="37.22917" lon="-8.63254">
        <ele>112.61</ele>
        <time>2020-07-20T10:43:26Z</time>
      </trkpt>
      <trkpt lat="37.22915" lon="-8.63261">
        <ele>112.61</ele>
        <time>2020-07-20T10:43:27Z</time>
      </trkpt>
      <trkpt lat="37.22915" lon="-8.63269">
        <ele>112.13</ele>
        <time>2020-07-20T10:43:28Z</time>
      </trkpt>
      <trkpt lat="37.22916" lon="-8.63275">
        <ele>112.13</ele>
        <time>2020-07-20T10:43:29Z</time>
      </trkpt>
      <trkpt lat="37.22918" lon="-8.63282">
        <ele>112.13</ele>
        <time>2020-07-20T10:43:31Z</time>
      </trkpt>
      <trkpt lat="37.22922" lon="-8.63302">
        <ele>112.13</ele>
        <time>2020-07-20T10:43:34Z</time>
      </trkpt>
      <trkpt lat="37.22921" lon="-8.63307">
        <ele>112.13</ele>
        <time>2020-07-20T10:43:35Z</time>
      </trkpt>
      <trkpt lat="37.2292" lon="-8.63313">
        <ele>112.13</ele>
        <time>2020-07-20T10:43:36Z</time>
      </trkpt>
      <trkpt lat="37.22918" lon="-8.63318">
        <ele>112.13</ele>
        <time>2020-07-20T10:43:37Z</time>
      </trkpt>
      <trkpt lat="37.22915" lon="-8.63323">
        <ele>112.13</ele>
        <time>2020-07-20T10:43:38Z</time>
      </trkpt>
      <trkpt lat="37.22912" lon="-8.63328">
        <ele>112.13</ele>
        <time>2020-07-20T10:43:39Z</time>
      </trkpt>
      <trkpt lat="37.22908" lon="-8.63331">
        <ele>112.13</ele>
        <time>2020-07-20T10:43:40Z</time>
      </trkpt>
      <trkpt lat="37.22904" lon="-8.63334">
        <ele>112.13</ele>
        <time>2020-07-20T10:43:41Z</time>
      </trkpt>
      <trkpt lat="37.229" lon="-8.63335">
        <ele>112.13</ele>
        <time>2020-07-20T10:43:42Z</time>
      </trkpt>
      <trkpt lat="37.22896" lon="-8.63337">
        <ele>112.13</ele>
        <time>2020-07-20T10:43:43Z</time>
      </trkpt>
      <trkpt lat="37.22891" lon="-8.63337">
        <ele>112.13</ele>
        <time>2020-07-20T10:43:44Z</time>
      </trkpt>
      <trkpt lat="37.22887" lon="-8.63338">
        <ele>112.13</ele>
        <time>2020-07-20T10:43:45Z</time>
      </trkpt>
      <trkpt lat="37.22875" lon="-8.63339">
        <ele>112.13</ele>
        <time>2020-07-20T10:43:48Z</time>
      </trkpt>
      <trkpt lat="37.2287" lon="-8.6334">
        <ele>112.13</ele>
        <time>2020-07-20T10:43:49Z</time>
      </trkpt>
      <trkpt lat="37.22866" lon="-8.63341">
        <ele>112.13</ele>
        <time>2020-07-20T10:43:50Z</time>
      </trkpt>
      <trkpt lat="37.22862" lon="-8.63344">
        <ele>112.13</ele>
        <time>2020-07-20T10:43:51Z</time>
      </trkpt>
      <trkpt lat="37.22858" lon="-8.63347">
        <ele>112.13</ele>
        <time>2020-07-20T10:43:52Z</time>
      </trkpt>
      <trkpt lat="37.22856" lon="-8.63351">
        <ele>112.13</ele>
        <time>2020-07-20T10:43:53Z</time>
      </trkpt>
      <trkpt lat="37.22854" lon="-8.63356">
        <ele>112.13</ele>
        <time>2020-07-20T10:43:54Z</time>
      </trkpt>
      <trkpt lat="37.22853" lon="-8.63362">
        <ele>112.13</ele>
        <time>2020-07-20T10:43:55Z</time>
      </trkpt>
      <trkpt lat="37.22853" lon="-8.63367">
        <ele>112.13</ele>
        <time>2020-07-20T10:43:56Z</time>
      </trkpt>
      <trkpt lat="37.22851" lon="-8.63372">
        <ele>112.13</ele>
        <time>2020-07-20T10:43:57Z</time>
      </trkpt>
      <trkpt lat="37.2285" lon="-8.63377">
        <ele>112.13</ele>
        <time>2020-07-20T10:43:58Z</time>
      </trkpt>
      <trkpt lat="37.22848" lon="-8.63381">
        <ele>112.13</ele>
        <time>2020-07-20T10:43:59Z</time>
      </trkpt>
      <trkpt lat="37.22847" lon="-8.63384">
        <ele>112.13</ele>
        <time>2020-07-20T10:44:00Z</time>
      </trkpt>
      <trkpt lat="37.22844" lon="-8.63388">
        <ele>112.13</ele>
        <time>2020-07-20T10:44:02Z</time>
      </trkpt>
      <trkpt lat="37.22841" lon="-8.63388">
        <ele>112.13</ele>
        <time>2020-07-20T10:44:03Z</time>
      </trkpt>
      <trkpt lat="37.22839" lon="-8.63386">
        <ele>112.13</ele>
        <time>2020-07-20T10:44:04Z</time>
      </trkpt>
      <trkpt lat="37.22838" lon="-8.63382">
        <ele>112.13</ele>
        <time>2020-07-20T10:44:05Z</time>
      </trkpt>
      <trkpt lat="37.22837" lon="-8.63379">
        <ele>112.13</ele>
        <time>2020-07-20T10:44:06Z</time>
      </trkpt>
      <trkpt lat="37.22836" lon="-8.63374">
        <ele>112.13</ele>
        <time>2020-07-20T10:44:07Z</time>
      </trkpt>
      <trkpt lat="37.22835" lon="-8.63369">
        <ele>112.13</ele>
        <time>2020-07-20T10:44:08Z</time>
      </trkpt>
      <trkpt lat="37.22833" lon="-8.63364">
        <ele>112.13</ele>
        <time>2020-07-20T10:44:09Z</time>
      </trkpt>
      <trkpt lat="37.22815" lon="-8.63324">
        <ele>112.13</ele>
        <time>2020-07-20T10:44:19Z</time>
      </trkpt>
      <trkpt lat="37.2281" lon="-8.63311">
        <ele>112.13</ele>
        <time>2020-07-20T10:44:22Z</time>
      </trkpt>
      <trkpt lat="37.22802" lon="-8.63298">
        <ele>111.65</ele>
        <time>2020-07-20T10:44:25Z</time>
      </trkpt>
      <trkpt lat="37.22799" lon="-8.63295">
        <ele>111.65</ele>
        <time>2020-07-20T10:44:26Z</time>
      </trkpt>
      <trkpt lat="37.22796" lon="-8.63291">
        <ele>111.17</ele>
        <time>2020-07-20T10:44:27Z</time>
      </trkpt>
      <trkpt lat="37.22792" lon="-8.63287">
        <ele>111.17</ele>
        <time>2020-07-20T10:44:28Z</time>
      </trkpt>
      <trkpt lat="37.22788" lon="-8.63284">
        <ele>110.69</ele>
        <time>2020-07-20T10:44:29Z</time>
      </trkpt>
      <trkpt lat="37.2277" lon="-8.63272">
        <ele>109.73</ele>
        <time>2020-07-20T10:44:33Z</time>
      </trkpt>
      <trkpt lat="37.22734" lon="-8.63246">
        <ele>108.29</ele>
        <time>2020-07-20T10:44:42Z</time>
      </trkpt>
      <trkpt lat="37.22701" lon="-8.63208">
        <ele>106.84</ele>
        <time>2020-07-20T10:44:51Z</time>
      </trkpt>
      <trkpt lat="37.2268" lon="-8.63188">
        <ele>105.88</ele>
        <time>2020-07-20T10:44:56Z</time>
      </trkpt>
      <trkpt lat="37.22676" lon="-8.63185">
        <ele>105.88</ele>
        <time>2020-07-20T10:44:57Z</time>
      </trkpt>
      <trkpt lat="37.22667" lon="-8.63181">
        <ele>105.88</ele>
        <time>2020-07-20T10:44:59Z</time>
      </trkpt>
      <trkpt lat="37.22663" lon="-8.63179">
        <ele>105.88</ele>
        <time>2020-07-20T10:45:00Z</time>
      </trkpt>
      <trkpt lat="37.22641" lon="-8.63176">
        <ele>105.4</ele>
        <time>2020-07-20T10:45:04Z</time>
      </trkpt>
      <trkpt lat="37.22617" lon="-8.63183">
        <ele>104.44</ele>
        <time>2020-07-20T10:45:09Z</time>
      </trkpt>
      <trkpt lat="37.22601" lon="-8.63178">
        <ele>104.44</ele>
        <time>2020-07-20T10:45:13Z</time>
      </trkpt>
      <trkpt lat="37.22595" lon="-8.63163">
        <ele>104.44</ele>
        <time>2020-07-20T10:45:16Z</time>
      </trkpt>
      <trkpt lat="37.22562" lon="-8.63121">
        <ele>103.48</ele>
        <time>2020-07-20T10:45:26Z</time>
      </trkpt>
      <trkpt lat="37.22559" lon="-8.63117">
        <ele>103</ele>
        <time>2020-07-20T10:45:27Z</time>
      </trkpt>
      <trkpt lat="37.22543" lon="-8.63105">
        <ele>103</ele>
        <time>2020-07-20T10:45:31Z</time>
      </trkpt>
      <trkpt lat="37.22507" lon="-8.63091">
        <ele>103</ele>
        <time>2020-07-20T10:45:40Z</time>
      </trkpt>
      <trkpt lat="37.22472" lon="-8.6308">
        <ele>103</ele>
        <time>2020-07-20T10:45:49Z</time>
      </trkpt>
      <trkpt lat="37.22423" lon="-8.63065">
        <ele>103</ele>
        <time>2020-07-20T10:46:00Z</time>
      </trkpt>
      <trkpt lat="37.22418" lon="-8.63063">
        <ele>103</ele>
        <time>2020-07-20T10:46:01Z</time>
      </trkpt>
      <trkpt lat="37.22392" lon="-8.63052">
        <ele>103</ele>
        <time>2020-07-20T10:46:07Z</time>
      </trkpt>
      <trkpt lat="37.22383" lon="-8.6305">
        <ele>103</ele>
        <time>2020-07-20T10:46:09Z</time>
      </trkpt>
      <trkpt lat="37.22352" lon="-8.63046">
        <ele>101.08</ele>
        <time>2020-07-20T10:46:15Z</time>
      </trkpt>
      <trkpt lat="37.22304" lon="-8.63039">
        <ele>100.11</ele>
        <time>2020-07-20T10:46:23Z</time>
      </trkpt>
      <trkpt lat="37.22283" lon="-8.63036">
        <ele>99.63</ele>
        <time>2020-07-20T10:46:27Z</time>
      </trkpt>
      <trkpt lat="37.22253" lon="-8.63042">
        <ele>99.63</ele>
        <time>2020-07-20T10:46:33Z</time>
      </trkpt>
      <trkpt lat="37.22248" lon="-8.63041">
        <ele>99.63</ele>
        <time>2020-07-20T10:46:34Z</time>
      </trkpt>
      <trkpt lat="37.22244" lon="-8.63039">
        <ele>99.63</ele>
        <time>2020-07-20T10:46:35Z</time>
      </trkpt>
      <trkpt lat="37.22228" lon="-8.63031">
        <ele>98.19</ele>
        <time>2020-07-20T10:46:38Z</time>
      </trkpt>
      <trkpt lat="37.22222" lon="-8.6303">
        <ele>98.19</ele>
        <time>2020-07-20T10:46:39Z</time>
      </trkpt>
      <trkpt lat="37.22211" lon="-8.63029">
        <ele>98.19</ele>
        <time>2020-07-20T10:46:41Z</time>
      </trkpt>
      <trkpt lat="37.22206" lon="-8.63029">
        <ele>98.19</ele>
        <time>2020-07-20T10:46:42Z</time>
      </trkpt>
      <trkpt lat="37.22201" lon="-8.6303">
        <ele>98.19</ele>
        <time>2020-07-20T10:46:43Z</time>
      </trkpt>
      <trkpt lat="37.22196" lon="-8.63032">
        <ele>98.19</ele>
        <time>2020-07-20T10:46:44Z</time>
      </trkpt>
      <trkpt lat="37.22192" lon="-8.63035">
        <ele>98.19</ele>
        <time>2020-07-20T10:46:45Z</time>
      </trkpt>
      <trkpt lat="37.22187" lon="-8.63037">
        <ele>98.19</ele>
        <time>2020-07-20T10:46:46Z</time>
      </trkpt>
      <trkpt lat="37.22167" lon="-8.6304">
        <ele>97.71</ele>
        <time>2020-07-20T10:46:50Z</time>
      </trkpt>
      <trkpt lat="37.22162" lon="-8.63039">
        <ele>97.71</ele>
        <time>2020-07-20T10:46:51Z</time>
      </trkpt>
      <trkpt lat="37.22158" lon="-8.63038">
        <ele>97.71</ele>
        <time>2020-07-20T10:46:52Z</time>
      </trkpt>
      <trkpt lat="37.22153" lon="-8.63036">
        <ele>97.71</ele>
        <time>2020-07-20T10:46:53Z</time>
      </trkpt>
      <trkpt lat="37.22149" lon="-8.63033">
        <ele>97.71</ele>
        <time>2020-07-20T10:46:54Z</time>
      </trkpt>
      <trkpt lat="37.22145" lon="-8.63029">
        <ele>97.71</ele>
        <time>2020-07-20T10:46:55Z</time>
      </trkpt>
      <trkpt lat="37.22142" lon="-8.63023">
        <ele>97.71</ele>
        <time>2020-07-20T10:46:56Z</time>
      </trkpt>
      <trkpt lat="37.22139" lon="-8.63018">
        <ele>96.75</ele>
        <time>2020-07-20T10:46:57Z</time>
      </trkpt>
      <trkpt lat="37.22135" lon="-8.63013">
        <ele>96.75</ele>
        <time>2020-07-20T10:46:58Z</time>
      </trkpt>
      <trkpt lat="37.2213" lon="-8.6301">
        <ele>96.75</ele>
        <time>2020-07-20T10:46:59Z</time>
      </trkpt>
      <trkpt lat="37.22125" lon="-8.63007">
        <ele>96.75</ele>
        <time>2020-07-20T10:47:00Z</time>
      </trkpt>
      <trkpt lat="37.2212" lon="-8.63005">
        <ele>96.75</ele>
        <time>2020-07-20T10:47:01Z</time>
      </trkpt>
      <trkpt lat="37.22082" lon="-8.62989">
        <ele>96.75</ele>
        <time>2020-07-20T10:47:09Z</time>
      </trkpt>
      <trkpt lat="37.22054" lon="-8.62985">
        <ele>96.75</ele>
        <time>2020-07-20T10:47:15Z</time>
      </trkpt>
      <trkpt lat="37.22049" lon="-8.62985">
        <ele>96.75</ele>
        <time>2020-07-20T10:47:16Z</time>
      </trkpt>
      <trkpt lat="37.22044" lon="-8.62987">
        <ele>96.75</ele>
        <time>2020-07-20T10:47:17Z</time>
      </trkpt>
      <trkpt lat="37.22022" lon="-8.62996">
        <ele>96.75</ele>
        <time>2020-07-20T10:47:22Z</time>
      </trkpt>
      <trkpt lat="37.21985" lon="-8.63022">
        <ele>96.75</ele>
        <time>2020-07-20T10:47:31Z</time>
      </trkpt>
      <trkpt lat="37.2198" lon="-8.63025">
        <ele>96.27</ele>
        <time>2020-07-20T10:47:32Z</time>
      </trkpt>
      <trkpt lat="37.21946" lon="-8.63052">
        <ele>96.27</ele>
        <time>2020-07-20T10:47:41Z</time>
      </trkpt>
      <trkpt lat="37.21943" lon="-8.63052">
        <ele>97.71</ele>
        <time>2020-07-20T10:47:42Z</time>
      </trkpt>
      <trkpt lat="37.2194" lon="-8.63049">
        <ele>97.71</ele>
        <time>2020-07-20T10:47:43Z</time>
      </trkpt>
      <trkpt lat="37.21938" lon="-8.63045">
        <ele>97.71</ele>
        <time>2020-07-20T10:47:44Z</time>
      </trkpt>
      <trkpt lat="37.21937" lon="-8.6304">
        <ele>97.71</ele>
        <time>2020-07-20T10:47:45Z</time>
      </trkpt>
      <trkpt lat="37.21936" lon="-8.63035">
        <ele>97.71</ele>
        <time>2020-07-20T10:47:46Z</time>
      </trkpt>
      <trkpt lat="37.21935" lon="-8.63029">
        <ele>97.71</ele>
        <time>2020-07-20T10:47:47Z</time>
      </trkpt>
      <trkpt lat="37.21931" lon="-8.63008">
        <ele>97.71</ele>
        <time>2020-07-20T10:47:51Z</time>
      </trkpt>
      <trkpt lat="37.21928" lon="-8.62998">
        <ele>97.71</ele>
        <time>2020-07-20T10:47:53Z</time>
      </trkpt>
      <trkpt lat="37.21925" lon="-8.62994">
        <ele>97.71</ele>
        <time>2020-07-20T10:47:54Z</time>
      </trkpt>
      <trkpt lat="37.21918" lon="-8.62986">
        <ele>97.71</ele>
        <time>2020-07-20T10:47:56Z</time>
      </trkpt>
      <trkpt lat="37.21909" lon="-8.62973">
        <ele>97.71</ele>
        <time>2020-07-20T10:47:59Z</time>
      </trkpt>
      <trkpt lat="37.21907" lon="-8.62967">
        <ele>97.71</ele>
        <time>2020-07-20T10:48:00Z</time>
      </trkpt>
      <trkpt lat="37.21894" lon="-8.6293">
        <ele>97.71</ele>
        <time>2020-07-20T10:48:07Z</time>
      </trkpt>
      <trkpt lat="37.21892" lon="-8.62925">
        <ele>96.27</ele>
        <time>2020-07-20T10:48:08Z</time>
      </trkpt>
      <trkpt lat="37.21888" lon="-8.62921">
        <ele>96.27</ele>
        <time>2020-07-20T10:48:09Z</time>
      </trkpt>
      <trkpt lat="37.21885" lon="-8.62917">
        <ele>96.27</ele>
        <time>2020-07-20T10:48:10Z</time>
      </trkpt>
      <trkpt lat="37.21881" lon="-8.62913">
        <ele>96.27</ele>
        <time>2020-07-20T10:48:11Z</time>
      </trkpt>
      <trkpt lat="37.21857" lon="-8.62884">
        <ele>95.79</ele>
        <time>2020-07-20T10:48:18Z</time>
      </trkpt>
      <trkpt lat="37.21833" lon="-8.62845">
        <ele>95.79</ele>
        <time>2020-07-20T10:48:27Z</time>
      </trkpt>
      <trkpt lat="37.21802" lon="-8.62795">
        <ele>95.79</ele>
        <time>2020-07-20T10:48:38Z</time>
      </trkpt>
      <trkpt lat="37.21778" lon="-8.62756">
        <ele>95.79</ele>
        <time>2020-07-20T10:48:47Z</time>
      </trkpt>
      <trkpt lat="37.21767" lon="-8.62743">
        <ele>95.79</ele>
        <time>2020-07-20T10:48:51Z</time>
      </trkpt>
      <trkpt lat="37.21763" lon="-8.62743">
        <ele>95.79</ele>
        <time>2020-07-20T10:48:52Z</time>
      </trkpt>
      <trkpt lat="37.2176" lon="-8.62746">
        <ele>95.79</ele>
        <time>2020-07-20T10:48:53Z</time>
      </trkpt>
      <trkpt lat="37.21757" lon="-8.6275">
        <ele>95.79</ele>
        <time>2020-07-20T10:48:54Z</time>
      </trkpt>
      <trkpt lat="37.21755" lon="-8.62755">
        <ele>95.79</ele>
        <time>2020-07-20T10:48:55Z</time>
      </trkpt>
      <trkpt lat="37.21752" lon="-8.62759">
        <ele>95.79</ele>
        <time>2020-07-20T10:48:56Z</time>
      </trkpt>
      <trkpt lat="37.21748" lon="-8.62763">
        <ele>95.79</ele>
        <time>2020-07-20T10:48:57Z</time>
      </trkpt>
      <trkpt lat="37.21711" lon="-8.6279">
        <ele>94.35</ele>
        <time>2020-07-20T10:49:05Z</time>
      </trkpt>
      <trkpt lat="37.21693" lon="-8.62802">
        <ele>93.39</ele>
        <time>2020-07-20T10:49:08Z</time>
      </trkpt>
      <trkpt lat="37.21687" lon="-8.62804">
        <ele>93.39</ele>
        <time>2020-07-20T10:49:09Z</time>
      </trkpt>
      <trkpt lat="37.21636" lon="-8.62821">
        <ele>90.98</ele>
        <time>2020-07-20T10:49:17Z</time>
      </trkpt>
      <trkpt lat="37.21614" lon="-8.62829">
        <ele>90.98</ele>
        <time>2020-07-20T10:49:22Z</time>
      </trkpt>
      <trkpt lat="37.21606" lon="-8.6283">
        <ele>90.98</ele>
        <time>2020-07-20T10:49:27Z</time>
      </trkpt>
      <trkpt lat="37.21606" lon="-8.6283">
        <ele>90.5</ele>
        <time>2020-07-20T10:49:33Z</time>
      </trkpt>
      <trkpt lat="37.21607" lon="-8.6283">
        <ele>90.02</ele>
        <time>2020-07-20T10:49:50Z</time>
      </trkpt>
      <trkpt lat="37.21607" lon="-8.6283">
        <ele>90.02</ele>
        <time>2020-07-20T10:50:09Z</time>
      </trkpt>
      <trkpt lat="37.21608" lon="-8.62829">
        <ele>89.54</ele>
        <time>2020-07-20T10:50:25Z</time>
      </trkpt>
      <trkpt lat="37.21608" lon="-8.6283">
        <ele>89.54</ele>
        <time>2020-07-20T10:50:37Z</time>
      </trkpt>
      <trkpt lat="37.21607" lon="-8.6283">
        <ele>89.06</ele>
        <time>2020-07-20T10:50:52Z</time>
      </trkpt>
      <trkpt lat="37.21607" lon="-8.6283">
        <ele>89.06</ele>
        <time>2020-07-20T10:51:08Z</time>
      </trkpt>
      <trkpt lat="37.21608" lon="-8.6283">
        <ele>88.58</ele>
        <time>2020-07-20T10:51:22Z</time>
      </trkpt>
      <trkpt lat="37.21608" lon="-8.62828">
        <ele>88.58</ele>
        <time>2020-07-20T10:51:41Z</time>
      </trkpt>
      <trkpt lat="37.21607" lon="-8.62829">
        <ele>88.58</ele>
        <time>2020-07-20T10:52:05Z</time>
      </trkpt>
      <trkpt lat="37.21607" lon="-8.6283">
        <ele>88.58</ele>
        <time>2020-07-20T10:52:20Z</time>
      </trkpt>
      <trkpt lat="37.21608" lon="-8.6283">
        <ele>88.1</ele>
        <time>2020-07-20T10:52:38Z</time>
      </trkpt>
      <trkpt lat="37.21607" lon="-8.6283">
        <ele>88.1</ele>
        <time>2020-07-20T10:52:56Z</time>
      </trkpt>
      <trkpt lat="37.21607" lon="-8.62829">
        <ele>88.1</ele>
        <time>2020-07-20T10:53:23Z</time>
      </trkpt>
      <trkpt lat="37.21607" lon="-8.62829">
        <ele>88.1</ele>
        <time>2020-07-20T10:53:39Z</time>
      </trkpt>
      <trkpt lat="37.21608" lon="-8.62829">
        <ele>87.62</ele>
        <time>2020-07-20T10:53:56Z</time>
      </trkpt>
      <trkpt lat="37.21607" lon="-8.62829">
        <ele>87.62</ele>
        <time>2020-07-20T10:54:15Z</time>
      </trkpt>
      <trkpt lat="37.21608" lon="-8.62828">
        <ele>87.62</ele>
        <time>2020-07-20T10:54:45Z</time>
      </trkpt>
      <trkpt lat="37.21606" lon="-8.62828">
        <ele>87.62</ele>
        <time>2020-07-20T10:55:16Z</time>
      </trkpt>
      <trkpt lat="37.21607" lon="-8.62828">
        <ele>87.14</ele>
        <time>2020-07-20T10:55:40Z</time>
      </trkpt>
      <trkpt lat="37.21606" lon="-8.62828">
        <ele>87.14</ele>
        <time>2020-07-20T10:56:13Z</time>
      </trkpt>
      <trkpt lat="37.21606" lon="-8.62829">
        <ele>86.66</ele>
        <time>2020-07-20T10:56:40Z</time>
      </trkpt>
      <trkpt lat="37.21606" lon="-8.6283">
        <ele>86.18</ele>
        <time>2020-07-20T10:57:02Z</time>
      </trkpt>
      <trkpt lat="37.21606" lon="-8.62831">
        <ele>86.18</ele>
        <time>2020-07-20T10:57:18Z</time>
      </trkpt>
      <trkpt lat="37.21606" lon="-8.62831">
        <ele>85.69</ele>
        <time>2020-07-20T10:57:35Z</time>
      </trkpt>
      <trkpt lat="37.21606" lon="-8.62831">
        <ele>85.69</ele>
        <time>2020-07-20T10:57:46Z</time>
      </trkpt>
      <trkpt lat="37.21606" lon="-8.62831">
        <ele>85.21</ele>
        <time>2020-07-20T10:58:11Z</time>
      </trkpt>
      <trkpt lat="37.21606" lon="-8.6283">
        <ele>85.21</ele>
        <time>2020-07-20T10:58:29Z</time>
      </trkpt>
      <trkpt lat="37.21606" lon="-8.62831">
        <ele>85.21</ele>
        <time>2020-07-20T10:58:48Z</time>
      </trkpt>
      <trkpt lat="37.21606" lon="-8.6283">
        <ele>85.21</ele>
        <time>2020-07-20T10:59:02Z</time>
      </trkpt>
      <trkpt lat="37.21606" lon="-8.6283">
        <ele>85.21</ele>
        <time>2020-07-20T10:59:17Z</time>
      </trkpt>
      <trkpt lat="37.21607" lon="-8.6283">
        <ele>84.73</ele>
        <time>2020-07-20T10:59:31Z</time>
      </trkpt>
      <trkpt lat="37.21607" lon="-8.6283">
        <ele>84.25</ele>
        <time>2020-07-20T10:59:54Z</time>
      </trkpt>
      <trkpt lat="37.21606" lon="-8.6283">
        <ele>83.77</ele>
        <time>2020-07-20T11:00:18Z</time>
      </trkpt>
      <trkpt lat="37.21606" lon="-8.6283">
        <ele>83.77</ele>
        <time>2020-07-20T11:00:44Z</time>
      </trkpt>
      <trkpt lat="37.21607" lon="-8.62829">
        <ele>83.29</ele>
        <time>2020-07-20T11:01:05Z</time>
      </trkpt>
      <trkpt lat="37.21607" lon="-8.62829">
        <ele>83.29</ele>
        <time>2020-07-20T11:01:22Z</time>
      </trkpt>
      <trkpt lat="37.21607" lon="-8.62829">
        <ele>83.29</ele>
        <time>2020-07-20T11:01:44Z</time>
      </trkpt>
      <trkpt lat="37.21607" lon="-8.6283">
        <ele>83.29</ele>
        <time>2020-07-20T11:02:04Z</time>
      </trkpt>
      <trkpt lat="37.21607" lon="-8.62829">
        <ele>83.29</ele>
        <time>2020-07-20T11:02:26Z</time>
      </trkpt>
      <trkpt lat="37.21607" lon="-8.62829">
        <ele>83.29</ele>
        <time>2020-07-20T11:02:42Z</time>
      </trkpt>
      <trkpt lat="37.21607" lon="-8.62829">
        <ele>82.81</ele>
        <time>2020-07-20T11:03:06Z</time>
      </trkpt>
      <trkpt lat="37.21607" lon="-8.62829">
        <ele>82.81</ele>
        <time>2020-07-20T11:03:21Z</time>
      </trkpt>
      <trkpt lat="37.21607" lon="-8.62829">
        <ele>82.81</ele>
        <time>2020-07-20T11:03:42Z</time>
      </trkpt>
      <trkpt lat="37.21607" lon="-8.62829">
        <ele>82.81</ele>
        <time>2020-07-20T11:04:00Z</time>
      </trkpt>
      <trkpt lat="37.21607" lon="-8.62828">
        <ele>82.81</ele>
        <time>2020-07-20T11:04:22Z</time>
      </trkpt>
      <trkpt lat="37.21608" lon="-8.62828">
        <ele>82.81</ele>
        <time>2020-07-20T11:04:44Z</time>
      </trkpt>
      <trkpt lat="37.21607" lon="-8.62828">
        <ele>82.81</ele>
        <time>2020-07-20T11:05:02Z</time>
      </trkpt>
      <trkpt lat="37.21607" lon="-8.62828">
        <ele>82.33</ele>
        <time>2020-07-20T11:05:23Z</time>
      </trkpt>
      <trkpt lat="37.21607" lon="-8.62829">
        <ele>82.33</ele>
        <time>2020-07-20T11:05:44Z</time>
      </trkpt>
      <trkpt lat="37.21607" lon="-8.62829">
        <ele>82.33</ele>
        <time>2020-07-20T11:06:04Z</time>
      </trkpt>
      <trkpt lat="37.21608" lon="-8.6283">
        <ele>82.33</ele>
        <time>2020-07-20T11:06:22Z</time>
      </trkpt>
      <trkpt lat="37.21607" lon="-8.62831">
        <ele>82.33</ele>
        <time>2020-07-20T11:06:37Z</time>
      </trkpt>
      <trkpt lat="37.21607" lon="-8.62831">
        <ele>82.33</ele>
        <time>2020-07-20T11:06:49Z</time>
      </trkpt>
      <trkpt lat="37.21606" lon="-8.62831">
        <ele>82.33</ele>
        <time>2020-07-20T11:07:11Z</time>
      </trkpt>
      <trkpt lat="37.21606" lon="-8.62831">
        <ele>82.33</ele>
        <time>2020-07-20T11:07:32Z</time>
      </trkpt>
      <trkpt lat="37.21606" lon="-8.62831">
        <ele>81.85</ele>
        <time>2020-07-20T11:07:46Z</time>
      </trkpt>
      <trkpt lat="37.21607" lon="-8.6283">
        <ele>83.29</ele>
        <time>2020-07-20T11:08:11Z</time>
      </trkpt>
      <trkpt lat="37.21607" lon="-8.6283">
        <ele>83.29</ele>
        <time>2020-07-20T11:08:25Z</time>
      </trkpt>
      <trkpt lat="37.21607" lon="-8.6283">
        <ele>83.29</ele>
        <time>2020-07-20T11:08:44Z</time>
      </trkpt>
      <trkpt lat="37.21607" lon="-8.6283">
        <ele>82.81</ele>
        <time>2020-07-20T11:09:02Z</time>
      </trkpt>
      <trkpt lat="37.21608" lon="-8.6283">
        <ele>82.81</ele>
        <time>2020-07-20T11:09:20Z</time>
      </trkpt>
      <trkpt lat="37.21608" lon="-8.6283">
        <ele>82.81</ele>
        <time>2020-07-20T11:09:36Z</time>
      </trkpt>
      <trkpt lat="37.21608" lon="-8.6283">
        <ele>82.81</ele>
        <time>2020-07-20T11:09:50Z</time>
      </trkpt>
      <trkpt lat="37.21607" lon="-8.6283">
        <ele>82.81</ele>
        <time>2020-07-20T11:10:04Z</time>
      </trkpt>
      <trkpt lat="37.21607" lon="-8.62829">
        <ele>82.81</ele>
        <time>2020-07-20T11:10:30Z</time>
      </trkpt>
      <trkpt lat="37.21607" lon="-8.62829">
        <ele>83.29</ele>
        <time>2020-07-20T11:10:44Z</time>
      </trkpt>
      <trkpt lat="37.21607" lon="-8.62829">
        <ele>83.29</ele>
        <time>2020-07-20T11:10:57Z</time>
      </trkpt>
      <trkpt lat="37.21607" lon="-8.62827">
        <ele>83.29</ele>
        <time>2020-07-20T11:11:17Z</time>
      </trkpt>
      <trkpt lat="37.21608" lon="-8.62828">
        <ele>83.29</ele>
        <time>2020-07-20T11:11:36Z</time>
      </trkpt>
      <trkpt lat="37.21607" lon="-8.62828">
        <ele>83.29</ele>
        <time>2020-07-20T11:11:56Z</time>
      </trkpt>
      <trkpt lat="37.21607" lon="-8.62828">
        <ele>83.29</ele>
        <time>2020-07-20T11:12:18Z</time>
      </trkpt>
      <trkpt lat="37.21607" lon="-8.62829">
        <ele>82.81</ele>
        <time>2020-07-20T11:12:38Z</time>
      </trkpt>
      <trkpt lat="37.21607" lon="-8.62829">
        <ele>82.81</ele>
        <time>2020-07-20T11:12:52Z</time>
      </trkpt>
      <trkpt lat="37.21606" lon="-8.62828">
        <ele>82.81</ele>
        <time>2020-07-20T11:13:08Z</time>
      </trkpt>
      <trkpt lat="37.21606" lon="-8.62828">
        <ele>82.81</ele>
        <time>2020-07-20T11:13:20Z</time>
      </trkpt>
      <trkpt lat="37.21605" lon="-8.62829">
        <ele>82.81</ele>
        <time>2020-07-20T11:13:35Z</time>
      </trkpt>
      <trkpt lat="37.21606" lon="-8.6283">
        <ele>83.29</ele>
        <time>2020-07-20T11:13:49Z</time>
      </trkpt>
      <trkpt lat="37.21606" lon="-8.62831">
        <ele>83.29</ele>
        <time>2020-07-20T11:14:02Z</time>
      </trkpt>
      <trkpt lat="37.21606" lon="-8.62832">
        <ele>83.29</ele>
        <time>2020-07-20T11:14:16Z</time>
      </trkpt>
      <trkpt lat="37.21605" lon="-8.62831">
        <ele>83.29</ele>
        <time>2020-07-20T11:14:33Z</time>
      </trkpt>
      <trkpt lat="37.21606" lon="-8.62831">
        <ele>83.29</ele>
        <time>2020-07-20T11:14:45Z</time>
      </trkpt>
      <trkpt lat="37.21607" lon="-8.62831">
        <ele>83.29</ele>
        <time>2020-07-20T11:15:01Z</time>
      </trkpt>
      <trkpt lat="37.21606" lon="-8.6283">
        <ele>83.29</ele>
        <time>2020-07-20T11:15:19Z</time>
      </trkpt>
      <trkpt lat="37.21606" lon="-8.62832">
        <ele>83.29</ele>
        <time>2020-07-20T11:15:34Z</time>
      </trkpt>
      <trkpt lat="37.21605" lon="-8.62832">
        <ele>83.29</ele>
        <time>2020-07-20T11:15:40Z</time>
      </trkpt>
      <trkpt lat="37.21603" lon="-8.62834">
        <ele>83.29</ele>
        <time>2020-07-20T11:15:41Z</time>
      </trkpt>
      <trkpt lat="37.21602" lon="-8.62835">
        <ele>83.29</ele>
        <time>2020-07-20T11:15:42Z</time>
      </trkpt>
      <trkpt lat="37.216" lon="-8.62837">
        <ele>83.29</ele>
        <time>2020-07-20T11:15:43Z</time>
      </trkpt>
      <trkpt lat="37.21597" lon="-8.62837">
        <ele>83.29</ele>
        <time>2020-07-20T11:15:44Z</time>
      </trkpt>
      <trkpt lat="37.21595" lon="-8.62837">
        <ele>83.29</ele>
        <time>2020-07-20T11:15:45Z</time>
      </trkpt>
      <trkpt lat="37.21593" lon="-8.62835">
        <ele>82.81</ele>
        <time>2020-07-20T11:15:46Z</time>
      </trkpt>
      <trkpt lat="37.21591" lon="-8.62832">
        <ele>82.81</ele>
        <time>2020-07-20T11:15:47Z</time>
      </trkpt>
      <trkpt lat="37.21588" lon="-8.6283">
        <ele>82.81</ele>
        <time>2020-07-20T11:15:48Z</time>
      </trkpt>
      <trkpt lat="37.21574" lon="-8.62813">
        <ele>82.81</ele>
        <time>2020-07-20T11:15:54Z</time>
      </trkpt>
      <trkpt lat="37.21566" lon="-8.6279">
        <ele>82.81</ele>
        <time>2020-07-20T11:16:00Z</time>
      </trkpt>
      <trkpt lat="37.21562" lon="-8.62783">
        <ele>82.81</ele>
        <time>2020-07-20T11:16:02Z</time>
      </trkpt>
      <trkpt lat="37.21559" lon="-8.62781">
        <ele>82.81</ele>
        <time>2020-07-20T11:16:03Z</time>
      </trkpt>
      <trkpt lat="37.21555" lon="-8.62781">
        <ele>82.81</ele>
        <time>2020-07-20T11:16:04Z</time>
      </trkpt>
      <trkpt lat="37.21551" lon="-8.6278">
        <ele>82.81</ele>
        <time>2020-07-20T11:16:05Z</time>
      </trkpt>
      <trkpt lat="37.21548" lon="-8.62778">
        <ele>82.81</ele>
        <time>2020-07-20T11:16:06Z</time>
      </trkpt>
      <trkpt lat="37.21545" lon="-8.62776">
        <ele>82.81</ele>
        <time>2020-07-20T11:16:07Z</time>
      </trkpt>
      <trkpt lat="37.21535" lon="-8.62773">
        <ele>82.81</ele>
        <time>2020-07-20T11:16:10Z</time>
      </trkpt>
      <trkpt lat="37.2153" lon="-8.62772">
        <ele>81.85</ele>
        <time>2020-07-20T11:16:11Z</time>
      </trkpt>
      <trkpt lat="37.21527" lon="-8.6277">
        <ele>81.85</ele>
        <time>2020-07-20T11:16:12Z</time>
      </trkpt>
      <trkpt lat="37.21524" lon="-8.62766">
        <ele>80.89</ele>
        <time>2020-07-20T11:16:13Z</time>
      </trkpt>
      <trkpt lat="37.21521" lon="-8.62763">
        <ele>81.37</ele>
        <time>2020-07-20T11:16:14Z</time>
      </trkpt>
      <trkpt lat="37.21518" lon="-8.62759">
        <ele>80.89</ele>
        <time>2020-07-20T11:16:15Z</time>
      </trkpt>
      <trkpt lat="37.21491" lon="-8.62734">
        <ele>81.37</ele>
        <time>2020-07-20T11:16:24Z</time>
      </trkpt>
      <trkpt lat="37.21473" lon="-8.62729">
        <ele>81.37</ele>
        <time>2020-07-20T11:16:29Z</time>
      </trkpt>
      <trkpt lat="37.21448" lon="-8.62713">
        <ele>80.89</ele>
        <time>2020-07-20T11:16:36Z</time>
      </trkpt>
      <trkpt lat="37.21422" lon="-8.62692">
        <ele>80.89</ele>
        <time>2020-07-20T11:16:44Z</time>
      </trkpt>
      <trkpt lat="37.21394" lon="-8.62675">
        <ele>80.89</ele>
        <time>2020-07-20T11:16:52Z</time>
      </trkpt>
      <trkpt lat="37.21381" lon="-8.62658">
        <ele>80.89</ele>
        <time>2020-07-20T11:16:57Z</time>
      </trkpt>
      <trkpt lat="37.21377" lon="-8.62651">
        <ele>80.89</ele>
        <time>2020-07-20T11:16:59Z</time>
      </trkpt>
      <trkpt lat="37.21367" lon="-8.62625">
        <ele>80.41</ele>
        <time>2020-07-20T11:17:05Z</time>
      </trkpt>
      <trkpt lat="37.21363" lon="-8.62617">
        <ele>80.41</ele>
        <time>2020-07-20T11:17:07Z</time>
      </trkpt>
      <trkpt lat="37.21361" lon="-8.62612">
        <ele>80.41</ele>
        <time>2020-07-20T11:17:08Z</time>
      </trkpt>
      <trkpt lat="37.21359" lon="-8.62608">
        <ele>80.41</ele>
        <time>2020-07-20T11:17:09Z</time>
      </trkpt>
      <trkpt lat="37.21357" lon="-8.62604">
        <ele>80.41</ele>
        <time>2020-07-20T11:17:10Z</time>
      </trkpt>
      <trkpt lat="37.21356" lon="-8.626">
        <ele>80.41</ele>
        <time>2020-07-20T11:17:11Z</time>
      </trkpt>
      <trkpt lat="37.21354" lon="-8.62595">
        <ele>79.93</ele>
        <time>2020-07-20T11:17:12Z</time>
      </trkpt>
      <trkpt lat="37.21352" lon="-8.62591">
        <ele>79.93</ele>
        <time>2020-07-20T11:17:13Z</time>
      </trkpt>
      <trkpt lat="37.21349" lon="-8.62587">
        <ele>79.93</ele>
        <time>2020-07-20T11:17:14Z</time>
      </trkpt>
      <trkpt lat="37.21346" lon="-8.62583">
        <ele>79.93</ele>
        <time>2020-07-20T11:17:15Z</time>
      </trkpt>
      <trkpt lat="37.21344" lon="-8.62579">
        <ele>79.93</ele>
        <time>2020-07-20T11:17:16Z</time>
      </trkpt>
      <trkpt lat="37.21342" lon="-8.62574">
        <ele>79.93</ele>
        <time>2020-07-20T11:17:17Z</time>
      </trkpt>
      <trkpt lat="37.21338" lon="-8.62566">
        <ele>79.93</ele>
        <time>2020-07-20T11:17:19Z</time>
      </trkpt>
      <trkpt lat="37.21328" lon="-8.62543">
        <ele>79.93</ele>
        <time>2020-07-20T11:17:24Z</time>
      </trkpt>
      <trkpt lat="37.21325" lon="-8.6254">
        <ele>79.93</ele>
        <time>2020-07-20T11:17:25Z</time>
      </trkpt>
      <trkpt lat="37.21322" lon="-8.62536">
        <ele>79.93</ele>
        <time>2020-07-20T11:17:26Z</time>
      </trkpt>
      <trkpt lat="37.21301" lon="-8.62508">
        <ele>78.97</ele>
        <time>2020-07-20T11:17:34Z</time>
      </trkpt>
      <trkpt lat="37.21287" lon="-8.62495">
        <ele>78.97</ele>
        <time>2020-07-20T11:17:40Z</time>
      </trkpt>
      <trkpt lat="37.21264" lon="-8.62473">
        <ele>78.97</ele>
        <time>2020-07-20T11:17:48Z</time>
      </trkpt>
      <trkpt lat="37.21241" lon="-8.62455">
        <ele>78.97</ele>
        <time>2020-07-20T11:17:55Z</time>
      </trkpt>
      <trkpt lat="37.21203" lon="-8.62439">
        <ele>78.97</ele>
        <time>2020-07-20T11:18:05Z</time>
      </trkpt>
      <trkpt lat="37.21181" lon="-8.62435">
        <ele>78.97</ele>
        <time>2020-07-20T11:18:11Z</time>
      </trkpt>
      <trkpt lat="37.21153" lon="-8.62417">
        <ele>78.97</ele>
        <time>2020-07-20T11:18:19Z</time>
      </trkpt>
      <trkpt lat="37.21139" lon="-8.62399">
        <ele>78.97</ele>
        <time>2020-07-20T11:18:25Z</time>
      </trkpt>
      <trkpt lat="37.21134" lon="-8.62391">
        <ele>78.97</ele>
        <time>2020-07-20T11:18:27Z</time>
      </trkpt>
      <trkpt lat="37.21133" lon="-8.62386">
        <ele>78.97</ele>
        <time>2020-07-20T11:18:28Z</time>
      </trkpt>
      <trkpt lat="37.2113" lon="-8.62376">
        <ele>78.97</ele>
        <time>2020-07-20T11:18:30Z</time>
      </trkpt>
      <trkpt lat="37.21129" lon="-8.62371">
        <ele>78.97</ele>
        <time>2020-07-20T11:18:31Z</time>
      </trkpt>
      <trkpt lat="37.21129" lon="-8.62366">
        <ele>78.97</ele>
        <time>2020-07-20T11:18:32Z</time>
      </trkpt>
      <trkpt lat="37.2113" lon="-8.62362">
        <ele>78.97</ele>
        <time>2020-07-20T11:18:33Z</time>
      </trkpt>
      <trkpt lat="37.21131" lon="-8.62357">
        <ele>78.97</ele>
        <time>2020-07-20T11:18:34Z</time>
      </trkpt>
      <trkpt lat="37.21138" lon="-8.62331">
        <ele>80.41</ele>
        <time>2020-07-20T11:18:41Z</time>
      </trkpt>
      <trkpt lat="37.21145" lon="-8.62301">
        <ele>80.89</ele>
        <time>2020-07-20T11:18:49Z</time>
      </trkpt>
      <trkpt lat="37.21155" lon="-8.62267">
        <ele>82.81</ele>
        <time>2020-07-20T11:18:59Z</time>
      </trkpt>
      <trkpt lat="37.21166" lon="-8.6225">
        <ele>82.81</ele>
        <time>2020-07-20T11:19:05Z</time>
      </trkpt>
      <trkpt lat="37.21184" lon="-8.62246">
        <ele>83.29</ele>
        <time>2020-07-20T11:19:11Z</time>
      </trkpt>
      <trkpt lat="37.21199" lon="-8.62235">
        <ele>83.29</ele>
        <time>2020-07-20T11:19:16Z</time>
      </trkpt>
      <trkpt lat="37.21205" lon="-8.62225">
        <ele>84.25</ele>
        <time>2020-07-20T11:19:20Z</time>
      </trkpt>
      <trkpt lat="37.212" lon="-8.62205">
        <ele>84.25</ele>
        <time>2020-07-20T11:19:26Z</time>
      </trkpt>
      <trkpt lat="37.21194" lon="-8.62186">
        <ele>82.81</ele>
        <time>2020-07-20T11:19:31Z</time>
      </trkpt>
      <trkpt lat="37.21192" lon="-8.62171">
        <ele>82.33</ele>
        <time>2020-07-20T11:19:36Z</time>
      </trkpt>
      <trkpt lat="37.21189" lon="-8.62168">
        <ele>83.29</ele>
        <time>2020-07-20T11:19:39Z</time>
      </trkpt>
      <trkpt lat="37.21186" lon="-8.62169">
        <ele>83.29</ele>
        <time>2020-07-20T11:19:40Z</time>
      </trkpt>
      <trkpt lat="37.21183" lon="-8.62171">
        <ele>83.29</ele>
        <time>2020-07-20T11:19:41Z</time>
      </trkpt>
      <trkpt lat="37.21174" lon="-8.62177">
        <ele>83.29</ele>
        <time>2020-07-20T11:19:44Z</time>
      </trkpt>
      <trkpt lat="37.2117" lon="-8.6218">
        <ele>83.29</ele>
        <time>2020-07-20T11:19:45Z</time>
      </trkpt>
      <trkpt lat="37.21165" lon="-8.62181">
        <ele>83.29</ele>
        <time>2020-07-20T11:19:46Z</time>
      </trkpt>
      <trkpt lat="37.21148" lon="-8.62187">
        <ele>80.89</ele>
        <time>2020-07-20T11:19:49Z</time>
      </trkpt>
      <trkpt lat="37.21114" lon="-8.62198">
        <ele>78.48</ele>
        <time>2020-07-20T11:19:55Z</time>
      </trkpt>
      <trkpt lat="37.21093" lon="-8.6219">
        <ele>78</ele>
        <time>2020-07-20T11:20:00Z</time>
      </trkpt>
      <trkpt lat="37.21081" lon="-8.62186">
        <ele>78</ele>
        <time>2020-07-20T11:20:03Z</time>
      </trkpt>
      <trkpt lat="37.2106" lon="-8.62186">
        <ele>78</ele>
        <time>2020-07-20T11:20:08Z</time>
      </trkpt>
      <trkpt lat="37.21053" lon="-8.6219">
        <ele>77.52</ele>
        <time>2020-07-20T11:20:10Z</time>
      </trkpt>
      <trkpt lat="37.21023" lon="-8.62209">
        <ele>77.04</ele>
        <time>2020-07-20T11:20:18Z</time>
      </trkpt>
      <trkpt lat="37.21" lon="-8.62224">
        <ele>76.56</ele>
        <time>2020-07-20T11:20:25Z</time>
      </trkpt>
      <trkpt lat="37.20977" lon="-8.62224">
        <ele>75.6</ele>
        <time>2020-07-20T11:20:32Z</time>
      </trkpt>
      <trkpt lat="37.20968" lon="-8.62225">
        <ele>75.12</ele>
        <time>2020-07-20T11:20:37Z</time>
      </trkpt>
      <trkpt lat="37.20965" lon="-8.62225">
        <ele>75.12</ele>
        <time>2020-07-20T11:20:43Z</time>
      </trkpt>
      <trkpt lat="37.20962" lon="-8.62231">
        <ele>74.64</ele>
        <time>2020-07-20T11:20:52Z</time>
      </trkpt>
      <trkpt lat="37.20961" lon="-8.62232">
        <ele>74.64</ele>
        <time>2020-07-20T11:20:55Z</time>
      </trkpt>
      <trkpt lat="37.20959" lon="-8.62235">
        <ele>74.64</ele>
        <time>2020-07-20T11:20:59Z</time>
      </trkpt>
      <trkpt lat="37.20943" lon="-8.62233">
        <ele>74.64</ele>
        <time>2020-07-20T11:21:07Z</time>
      </trkpt>
      <trkpt lat="37.20929" lon="-8.62229">
        <ele>74.64</ele>
        <time>2020-07-20T11:21:13Z</time>
      </trkpt>
      <trkpt lat="37.20913" lon="-8.62221">
        <ele>74.64</ele>
        <time>2020-07-20T11:21:19Z</time>
      </trkpt>
      <trkpt lat="37.20895" lon="-8.62211">
        <ele>74.16</ele>
        <time>2020-07-20T11:21:26Z</time>
      </trkpt>
      <trkpt lat="37.20892" lon="-8.6221">
        <ele>74.16</ele>
        <time>2020-07-20T11:21:27Z</time>
      </trkpt>
      <trkpt lat="37.20881" lon="-8.62195">
        <ele>73.2</ele>
        <time>2020-07-20T11:21:33Z</time>
      </trkpt>
      <trkpt lat="37.20865" lon="-8.62176">
        <ele>73.2</ele>
        <time>2020-07-20T11:21:41Z</time>
      </trkpt>
      <trkpt lat="37.20863" lon="-8.62173">
        <ele>73.2</ele>
        <time>2020-07-20T11:21:43Z</time>
      </trkpt>
      <trkpt lat="37.20866" lon="-8.62166">
        <ele>73.2</ele>
        <time>2020-07-20T11:21:50Z</time>
      </trkpt>
      <trkpt lat="37.20868" lon="-8.62163">
        <ele>73.2</ele>
        <time>2020-07-20T11:21:55Z</time>
      </trkpt>
      <trkpt lat="37.20868" lon="-8.6216">
        <ele>73.2</ele>
        <time>2020-07-20T11:22:03Z</time>
      </trkpt>
      <trkpt lat="37.20868" lon="-8.62159">
        <ele>73.2</ele>
        <time>2020-07-20T11:22:04Z</time>
      </trkpt>
      <trkpt lat="37.20858" lon="-8.62147">
        <ele>73.2</ele>
        <time>2020-07-20T11:22:10Z</time>
      </trkpt>
      <trkpt lat="37.20845" lon="-8.62135">
        <ele>73.2</ele>
        <time>2020-07-20T11:22:15Z</time>
      </trkpt>
      <trkpt lat="37.20844" lon="-8.62133">
        <ele>73.2</ele>
        <time>2020-07-20T11:22:16Z</time>
      </trkpt>
      <trkpt lat="37.20839" lon="-8.6211">
        <ele>73.2</ele>
        <time>2020-07-20T11:22:25Z</time>
      </trkpt>
      <trkpt lat="37.20839" lon="-8.62101">
        <ele>73.2</ele>
        <time>2020-07-20T11:22:28Z</time>
      </trkpt>
      <trkpt lat="37.20838" lon="-8.62099">
        <ele>73.2</ele>
        <time>2020-07-20T11:22:29Z</time>
      </trkpt>
      <trkpt lat="37.20833" lon="-8.62103">
        <ele>73.2</ele>
        <time>2020-07-20T11:22:32Z</time>
      </trkpt>
      <trkpt lat="37.20832" lon="-8.62106">
        <ele>73.2</ele>
        <time>2020-07-20T11:22:33Z</time>
      </trkpt>
      <trkpt lat="37.20831" lon="-8.62109">
        <ele>73.2</ele>
        <time>2020-07-20T11:22:34Z</time>
      </trkpt>
      <trkpt lat="37.20829" lon="-8.62113">
        <ele>73.2</ele>
        <time>2020-07-20T11:22:35Z</time>
      </trkpt>
      <trkpt lat="37.20827" lon="-8.62116">
        <ele>73.2</ele>
        <time>2020-07-20T11:22:36Z</time>
      </trkpt>
      <trkpt lat="37.20824" lon="-8.62118">
        <ele>73.2</ele>
        <time>2020-07-20T11:22:37Z</time>
      </trkpt>
      <trkpt lat="37.20817" lon="-8.6212">
        <ele>73.2</ele>
        <time>2020-07-20T11:22:39Z</time>
      </trkpt>
      <trkpt lat="37.20788" lon="-8.62119">
        <ele>72.72</ele>
        <time>2020-07-20T11:22:47Z</time>
      </trkpt>
      <trkpt lat="37.20764" lon="-8.62121">
        <ele>72.72</ele>
        <time>2020-07-20T11:22:54Z</time>
      </trkpt>
      <trkpt lat="37.20734" lon="-8.62135">
        <ele>72.72</ele>
        <time>2020-07-20T11:23:03Z</time>
      </trkpt>
      <trkpt lat="37.20719" lon="-8.62153">
        <ele>72.72</ele>
        <time>2020-07-20T11:23:09Z</time>
      </trkpt>
      <trkpt lat="37.20711" lon="-8.62176">
        <ele>72.72</ele>
        <time>2020-07-20T11:23:15Z</time>
      </trkpt>
      <trkpt lat="37.20709" lon="-8.62203">
        <ele>73.68</ele>
        <time>2020-07-20T11:23:22Z</time>
      </trkpt>
      <trkpt lat="37.20708" lon="-8.62206">
        <ele>73.68</ele>
        <time>2020-07-20T11:23:23Z</time>
      </trkpt>
      <trkpt lat="37.20703" lon="-8.62227">
        <ele>74.16</ele>
        <time>2020-07-20T11:23:29Z</time>
      </trkpt>
      <trkpt lat="37.20703" lon="-8.62255">
        <ele>75.12</ele>
        <time>2020-07-20T11:23:37Z</time>
      </trkpt>
      <trkpt lat="37.20699" lon="-8.62278">
        <ele>75.6</ele>
        <time>2020-07-20T11:23:44Z</time>
      </trkpt>
      <trkpt lat="37.20685" lon="-8.62305">
        <ele>77.52</ele>
        <time>2020-07-20T11:23:54Z</time>
      </trkpt>
      <trkpt lat="37.20672" lon="-8.6233">
        <ele>78.97</ele>
        <time>2020-07-20T11:24:03Z</time>
      </trkpt>
      <trkpt lat="37.20659" lon="-8.62354">
        <ele>78.97</ele>
        <time>2020-07-20T11:24:11Z</time>
      </trkpt>
      <trkpt lat="37.2064" lon="-8.62366">
        <ele>77.04</ele>
        <time>2020-07-20T11:24:16Z</time>
      </trkpt>
      <trkpt lat="37.20635" lon="-8.62369">
        <ele>77.04</ele>
        <time>2020-07-20T11:24:17Z</time>
      </trkpt>
      <trkpt lat="37.20596" lon="-8.62389">
        <ele>75.12</ele>
        <time>2020-07-20T11:24:24Z</time>
      </trkpt>
      <trkpt lat="37.2059" lon="-8.6239">
        <ele>75.12</ele>
        <time>2020-07-20T11:24:25Z</time>
      </trkpt>
      <trkpt lat="37.20541" lon="-8.62393">
        <ele>73.68</ele>
        <time>2020-07-20T11:24:33Z</time>
      </trkpt>
      <trkpt lat="37.2052" lon="-8.6239">
        <ele>73.2</ele>
        <time>2020-07-20T11:24:37Z</time>
      </trkpt>
      <trkpt lat="37.20501" lon="-8.62397">
        <ele>73.2</ele>
        <time>2020-07-20T11:24:42Z</time>
      </trkpt>
      <trkpt lat="37.20479" lon="-8.62409">
        <ele>73.2</ele>
        <time>2020-07-20T11:24:48Z</time>
      </trkpt>
      <trkpt lat="37.20471" lon="-8.62414">
        <ele>73.2</ele>
        <time>2020-07-20T11:24:50Z</time>
      </trkpt>
      <trkpt lat="37.20446" lon="-8.62419">
        <ele>73.2</ele>
        <time>2020-07-20T11:24:56Z</time>
      </trkpt>
      <trkpt lat="37.20421" lon="-8.62417">
        <ele>73.2</ele>
        <time>2020-07-20T11:25:02Z</time>
      </trkpt>
      <trkpt lat="37.2041" lon="-8.62426">
        <ele>72.72</ele>
        <time>2020-07-20T11:25:05Z</time>
      </trkpt>
      <trkpt lat="37.20373" lon="-8.62433">
        <ele>71.76</ele>
        <time>2020-07-20T11:25:13Z</time>
      </trkpt>
      <trkpt lat="37.2036" lon="-8.62434">
        <ele>71.76</ele>
        <time>2020-07-20T11:25:16Z</time>
      </trkpt>
      <trkpt lat="37.20343" lon="-8.62441">
        <ele>71.76</ele>
        <time>2020-07-20T11:25:20Z</time>
      </trkpt>
      <trkpt lat="37.20303" lon="-8.62448">
        <ele>72.72</ele>
        <time>2020-07-20T11:25:30Z</time>
      </trkpt>
      <trkpt lat="37.20301" lon="-8.62448">
        <ele>72.72</ele>
        <time>2020-07-20T11:25:31Z</time>
      </trkpt>
      <trkpt lat="37.2029" lon="-8.62435">
        <ele>75.12</ele>
        <time>2020-07-20T11:25:37Z</time>
      </trkpt>
      <trkpt lat="37.2028" lon="-8.62406">
        <ele>75.6</ele>
        <time>2020-07-20T11:25:47Z</time>
      </trkpt>
      <trkpt lat="37.20266" lon="-8.6238">
        <ele>75.6</ele>
        <time>2020-07-20T11:25:56Z</time>
      </trkpt>
      <trkpt lat="37.20249" lon="-8.62345">
        <ele>76.56</ele>
        <time>2020-07-20T11:26:06Z</time>
      </trkpt>
      <trkpt lat="37.20232" lon="-8.6231">
        <ele>76.56</ele>
        <time>2020-07-20T11:26:16Z</time>
      </trkpt>
      <trkpt lat="37.20229" lon="-8.62296">
        <ele>77.04</ele>
        <time>2020-07-20T11:26:21Z</time>
      </trkpt>
      <trkpt lat="37.20229" lon="-8.62293">
        <ele>77.04</ele>
        <time>2020-07-20T11:26:29Z</time>
      </trkpt>
      <trkpt lat="37.20229" lon="-8.62293">
        <ele>77.04</ele>
        <time>2020-07-20T11:26:31Z</time>
      </trkpt>
      <trkpt lat="37.20215" lon="-8.62286">
        <ele>75.12</ele>
        <time>2020-07-20T11:26:36Z</time>
      </trkpt>
      <trkpt lat="37.20204" lon="-8.62282">
        <ele>73.2</ele>
        <time>2020-07-20T11:26:38Z</time>
      </trkpt>
      <trkpt lat="37.20175" lon="-8.62278">
        <ele>68.39</ele>
        <time>2020-07-20T11:26:42Z</time>
      </trkpt>
      <trkpt lat="37.2017" lon="-8.62276">
        <ele>68.39</ele>
        <time>2020-07-20T11:26:43Z</time>
      </trkpt>
      <trkpt lat="37.20157" lon="-8.62271">
        <ele>68.39</ele>
        <time>2020-07-20T11:26:45Z</time>
      </trkpt>
      <trkpt lat="37.20146" lon="-8.62271">
        <ele>67.91</ele>
        <time>2020-07-20T11:26:47Z</time>
      </trkpt>
      <trkpt lat="37.20115" lon="-8.62259">
        <ele>65.51</ele>
        <time>2020-07-20T11:26:53Z</time>
      </trkpt>
      <trkpt lat="37.20098" lon="-8.62236">
        <ele>61.66</ele>
        <time>2020-07-20T11:26:57Z</time>
      </trkpt>
      <trkpt lat="37.20087" lon="-8.6222">
        <ele>58.3</ele>
        <time>2020-07-20T11:26:59Z</time>
      </trkpt>
      <trkpt lat="37.20084" lon="-8.62213">
        <ele>58.3</ele>
        <time>2020-07-20T11:27:00Z</time>
      </trkpt>
      <trkpt lat="37.20077" lon="-8.622">
        <ele>61.66</ele>
        <time>2020-07-20T11:27:03Z</time>
      </trkpt>
      <trkpt lat="37.20073" lon="-8.62196">
        <ele>62.14</ele>
        <time>2020-07-20T11:27:05Z</time>
      </trkpt>
      <trkpt lat="37.20048" lon="-8.62176">
        <ele>62.14</ele>
        <time>2020-07-20T11:27:13Z</time>
      </trkpt>
      <trkpt lat="37.20029" lon="-8.62164">
        <ele>60.7</ele>
        <time>2020-07-20T11:27:17Z</time>
      </trkpt>
      <trkpt lat="37.20024" lon="-8.62162">
        <ele>60.22</ele>
        <time>2020-07-20T11:27:18Z</time>
      </trkpt>
      <trkpt lat="37.20018" lon="-8.62162">
        <ele>58.78</ele>
        <time>2020-07-20T11:27:19Z</time>
      </trkpt>
      <trkpt lat="37.20012" lon="-8.62163">
        <ele>58.78</ele>
        <time>2020-07-20T11:27:20Z</time>
      </trkpt>
      <trkpt lat="37.19993" lon="-8.62162">
        <ele>56.37</ele>
        <time>2020-07-20T11:27:23Z</time>
      </trkpt>
      <trkpt lat="37.19987" lon="-8.62164">
        <ele>56.37</ele>
        <time>2020-07-20T11:27:24Z</time>
      </trkpt>
      <trkpt lat="37.19982" lon="-8.62167">
        <ele>55.89</ele>
        <time>2020-07-20T11:27:25Z</time>
      </trkpt>
      <trkpt lat="37.19977" lon="-8.62172">
        <ele>55.41</ele>
        <time>2020-07-20T11:27:26Z</time>
      </trkpt>
      <trkpt lat="37.19973" lon="-8.62178">
        <ele>54.45</ele>
        <time>2020-07-20T11:27:27Z</time>
      </trkpt>
      <trkpt lat="37.1997" lon="-8.62184">
        <ele>54.45</ele>
        <time>2020-07-20T11:27:28Z</time>
      </trkpt>
      <trkpt lat="37.19966" lon="-8.6219">
        <ele>54.45</ele>
        <time>2020-07-20T11:27:29Z</time>
      </trkpt>
      <trkpt lat="37.19963" lon="-8.62193">
        <ele>54.45</ele>
        <time>2020-07-20T11:27:30Z</time>
      </trkpt>
      <trkpt lat="37.19958" lon="-8.62194">
        <ele>54.45</ele>
        <time>2020-07-20T11:27:31Z</time>
      </trkpt>
      <trkpt lat="37.19954" lon="-8.62195">
        <ele>55.89</ele>
        <time>2020-07-20T11:27:32Z</time>
      </trkpt>
      <trkpt lat="37.19948" lon="-8.62195">
        <ele>55.89</ele>
        <time>2020-07-20T11:27:33Z</time>
      </trkpt>
      <trkpt lat="37.1994" lon="-8.62195">
        <ele>55.89</ele>
        <time>2020-07-20T11:27:35Z</time>
      </trkpt>
      <trkpt lat="37.19936" lon="-8.62193">
        <ele>55.89</ele>
        <time>2020-07-20T11:27:36Z</time>
      </trkpt>
      <trkpt lat="37.19931" lon="-8.62192">
        <ele>55.89</ele>
        <time>2020-07-20T11:27:37Z</time>
      </trkpt>
      <trkpt lat="37.19927" lon="-8.6219">
        <ele>55.89</ele>
        <time>2020-07-20T11:27:38Z</time>
      </trkpt>
      <trkpt lat="37.19922" lon="-8.62187">
        <ele>55.89</ele>
        <time>2020-07-20T11:27:39Z</time>
      </trkpt>
      <trkpt lat="37.19907" lon="-8.62182">
        <ele>55.89</ele>
        <time>2020-07-20T11:27:42Z</time>
      </trkpt>
      <trkpt lat="37.19902" lon="-8.62184">
        <ele>55.89</ele>
        <time>2020-07-20T11:27:43Z</time>
      </trkpt>
      <trkpt lat="37.19898" lon="-8.62187">
        <ele>54.45</ele>
        <time>2020-07-20T11:27:44Z</time>
      </trkpt>
      <trkpt lat="37.19894" lon="-8.6219">
        <ele>54.45</ele>
        <time>2020-07-20T11:27:45Z</time>
      </trkpt>
      <trkpt lat="37.19891" lon="-8.62193">
        <ele>54.45</ele>
        <time>2020-07-20T11:27:46Z</time>
      </trkpt>
      <trkpt lat="37.19888" lon="-8.62194">
        <ele>54.45</ele>
        <time>2020-07-20T11:27:47Z</time>
      </trkpt>
      <trkpt lat="37.19885" lon="-8.62193">
        <ele>54.45</ele>
        <time>2020-07-20T11:27:48Z</time>
      </trkpt>
      <trkpt lat="37.19883" lon="-8.62193">
        <ele>54.45</ele>
        <time>2020-07-20T11:27:49Z</time>
      </trkpt>
      <trkpt lat="37.1988" lon="-8.62192">
        <ele>55.89</ele>
        <time>2020-07-20T11:27:50Z</time>
      </trkpt>
      <trkpt lat="37.19877" lon="-8.62191">
        <ele>55.89</ele>
        <time>2020-07-20T11:27:51Z</time>
      </trkpt>
      <trkpt lat="37.19874" lon="-8.62189">
        <ele>55.89</ele>
        <time>2020-07-20T11:27:52Z</time>
      </trkpt>
      <trkpt lat="37.19855" lon="-8.62176">
        <ele>55.89</ele>
        <time>2020-07-20T11:27:58Z</time>
      </trkpt>
      <trkpt lat="37.19839" lon="-8.62163">
        <ele>55.89</ele>
        <time>2020-07-20T11:28:03Z</time>
      </trkpt>
      <trkpt lat="37.19837" lon="-8.62159">
        <ele>55.89</ele>
        <time>2020-07-20T11:28:04Z</time>
      </trkpt>
      <trkpt lat="37.19831" lon="-8.62145">
        <ele>55.89</ele>
        <time>2020-07-20T11:28:07Z</time>
      </trkpt>
      <trkpt lat="37.19829" lon="-8.62141">
        <ele>55.89</ele>
        <time>2020-07-20T11:28:08Z</time>
      </trkpt>
      <trkpt lat="37.19822" lon="-8.62129">
        <ele>55.89</ele>
        <time>2020-07-20T11:28:11Z</time>
      </trkpt>
      <trkpt lat="37.19805" lon="-8.6209">
        <ele>55.89</ele>
        <time>2020-07-20T11:28:20Z</time>
      </trkpt>
      <trkpt lat="37.19806" lon="-8.62052">
        <ele>55.89</ele>
        <time>2020-07-20T11:28:28Z</time>
      </trkpt>
      <trkpt lat="37.19809" lon="-8.62043">
        <ele>54.45</ele>
        <time>2020-07-20T11:28:30Z</time>
      </trkpt>
      <trkpt lat="37.19819" lon="-8.62024">
        <ele>53.49</ele>
        <time>2020-07-20T11:28:34Z</time>
      </trkpt>
      <trkpt lat="37.19827" lon="-8.61986">
        <ele>52.53</ele>
        <time>2020-07-20T11:28:40Z</time>
      </trkpt>
      <trkpt lat="37.19816" lon="-8.61955">
        <ele>52.53</ele>
        <time>2020-07-20T11:28:46Z</time>
      </trkpt>
      <trkpt lat="37.19782" lon="-8.61934">
        <ele>51.57</ele>
        <time>2020-07-20T11:28:55Z</time>
      </trkpt>
      <trkpt lat="37.19779" lon="-8.61932">
        <ele>51.57</ele>
        <time>2020-07-20T11:28:56Z</time>
      </trkpt>
      <trkpt lat="37.19763" lon="-8.61913">
        <ele>51.57</ele>
        <time>2020-07-20T11:29:01Z</time>
      </trkpt>
      <trkpt lat="37.19755" lon="-8.61883">
        <ele>52.53</ele>
        <time>2020-07-20T11:29:08Z</time>
      </trkpt>
      <trkpt lat="37.19761" lon="-8.61866">
        <ele>52.53</ele>
        <time>2020-07-20T11:29:12Z</time>
      </trkpt>
      <trkpt lat="37.19774" lon="-8.61844">
        <ele>51.09</ele>
        <time>2020-07-20T11:29:16Z</time>
      </trkpt>
      <trkpt lat="37.19801" lon="-8.61821">
        <ele>50.61</ele>
        <time>2020-07-20T11:29:23Z</time>
      </trkpt>
      <trkpt lat="37.19804" lon="-8.6182">
        <ele>50.61</ele>
        <time>2020-07-20T11:29:24Z</time>
      </trkpt>
      <trkpt lat="37.1984" lon="-8.61828">
        <ele>49.65</ele>
        <time>2020-07-20T11:29:31Z</time>
      </trkpt>
      <trkpt lat="37.1988" lon="-8.61841">
        <ele>48.2</ele>
        <time>2020-07-20T11:29:38Z</time>
      </trkpt>
      <trkpt lat="37.19897" lon="-8.61854">
        <ele>47.72</ele>
        <time>2020-07-20T11:29:42Z</time>
      </trkpt>
      <trkpt lat="37.1992" lon="-8.61866">
        <ele>47.72</ele>
        <time>2020-07-20T11:29:48Z</time>
      </trkpt>
      <trkpt lat="37.19928" lon="-8.61869">
        <ele>47.72</ele>
        <time>2020-07-20T11:29:50Z</time>
      </trkpt>
      <trkpt lat="37.19954" lon="-8.61871">
        <ele>47.72</ele>
        <time>2020-07-20T11:29:57Z</time>
      </trkpt>
      <trkpt lat="37.19965" lon="-8.61861">
        <ele>47.72</ele>
        <time>2020-07-20T11:30:02Z</time>
      </trkpt>
      <trkpt lat="37.19968" lon="-8.61854">
        <ele>48.68</ele>
        <time>2020-07-20T11:30:05Z</time>
      </trkpt>
      <trkpt lat="37.19979" lon="-8.61834">
        <ele>49.65</ele>
        <time>2020-07-20T11:30:14Z</time>
      </trkpt>
      <trkpt lat="37.19982" lon="-8.61811">
        <ele>50.61</ele>
        <time>2020-07-20T11:30:22Z</time>
      </trkpt>
      <trkpt lat="37.19977" lon="-8.61789">
        <ele>51.57</ele>
        <time>2020-07-20T11:30:30Z</time>
      </trkpt>
      <trkpt lat="37.19962" lon="-8.61765">
        <ele>50.13</ele>
        <time>2020-07-20T11:30:39Z</time>
      </trkpt>
      <trkpt lat="37.1996" lon="-8.61762">
        <ele>50.13</ele>
        <time>2020-07-20T11:30:40Z</time>
      </trkpt>
      <trkpt lat="37.19957" lon="-8.61759">
        <ele>49.65</ele>
        <time>2020-07-20T11:30:41Z</time>
      </trkpt>
      <trkpt lat="37.19939" lon="-8.61746">
        <ele>48.2</ele>
        <time>2020-07-20T11:30:45Z</time>
      </trkpt>
      <trkpt lat="37.19906" lon="-8.61739">
        <ele>43.4</ele>
        <time>2020-07-20T11:30:50Z</time>
      </trkpt>
      <trkpt lat="37.19892" lon="-8.61741">
        <ele>42.44</ele>
        <time>2020-07-20T11:30:52Z</time>
      </trkpt>
      <trkpt lat="37.19886" lon="-8.61742">
        <ele>42.44</ele>
        <time>2020-07-20T11:30:53Z</time>
      </trkpt>
      <trkpt lat="37.19847" lon="-8.61743">
        <ele>41.47</ele>
        <time>2020-07-20T11:30:59Z</time>
      </trkpt>
      <trkpt lat="37.19824" lon="-8.61737">
        <ele>41.47</ele>
        <time>2020-07-20T11:31:04Z</time>
      </trkpt>
      <trkpt lat="37.19816" lon="-8.61734">
        <ele>41.47</ele>
        <time>2020-07-20T11:31:07Z</time>
      </trkpt>
      <trkpt lat="37.19799" lon="-8.61728">
        <ele>41.47</ele>
        <time>2020-07-20T11:31:14Z</time>
      </trkpt>
      <trkpt lat="37.19793" lon="-8.61727">
        <ele>42.92</ele>
        <time>2020-07-20T11:31:17Z</time>
      </trkpt>
      <trkpt lat="37.19776" lon="-8.61723">
        <ele>43.88</ele>
        <time>2020-07-20T11:31:24Z</time>
      </trkpt>
      <trkpt lat="37.19759" lon="-8.61715">
        <ele>44.36</ele>
        <time>2020-07-20T11:31:31Z</time>
      </trkpt>
      <trkpt lat="37.19739" lon="-8.6171">
        <ele>44.84</ele>
        <time>2020-07-20T11:31:38Z</time>
      </trkpt>
      <trkpt lat="37.19731" lon="-8.61709">
        <ele>43.88</ele>
        <time>2020-07-20T11:31:40Z</time>
      </trkpt>
      <trkpt lat="37.19723" lon="-8.61706">
        <ele>43.88</ele>
        <time>2020-07-20T11:31:42Z</time>
      </trkpt>
      <trkpt lat="37.19705" lon="-8.61689">
        <ele>41.95</ele>
        <time>2020-07-20T11:31:47Z</time>
      </trkpt>
      <trkpt lat="37.19689" lon="-8.61686">
        <ele>41.47</ele>
        <time>2020-07-20T11:31:51Z</time>
      </trkpt>
      <trkpt lat="37.19683" lon="-8.61684">
        <ele>41.47</ele>
        <time>2020-07-20T11:31:56Z</time>
      </trkpt>
      <trkpt lat="37.19684" lon="-8.61685">
        <ele>41.47</ele>
        <time>2020-07-20T11:32:09Z</time>
      </trkpt>
      <trkpt lat="37.19678" lon="-8.61682">
        <ele>41.47</ele>
        <time>2020-07-20T11:32:15Z</time>
      </trkpt>
      <trkpt lat="37.19672" lon="-8.61679">
        <ele>41.47</ele>
        <time>2020-07-20T11:32:23Z</time>
      </trkpt>
      <trkpt lat="37.1967" lon="-8.61678">
        <ele>41.47</ele>
        <time>2020-07-20T11:32:29Z</time>
      </trkpt>
      <trkpt lat="37.1967" lon="-8.61678">
        <ele>41.47</ele>
        <time>2020-07-20T11:32:43Z</time>
      </trkpt>
      <trkpt lat="37.19671" lon="-8.61678">
        <ele>41.47</ele>
        <time>2020-07-20T11:32:58Z</time>
      </trkpt>
      <trkpt lat="37.19671" lon="-8.61679">
        <ele>40.99</ele>
        <time>2020-07-20T11:33:12Z</time>
      </trkpt>
      <trkpt lat="37.1967" lon="-8.61681">
        <ele>40.51</ele>
        <time>2020-07-20T11:33:22Z</time>
      </trkpt>
      <trkpt lat="37.19669" lon="-8.6168">
        <ele>40.51</ele>
        <time>2020-07-20T11:33:32Z</time>
      </trkpt>
      <trkpt lat="37.19666" lon="-8.61678">
        <ele>40.51</ele>
        <time>2020-07-20T11:33:40Z</time>
      </trkpt>
      <trkpt lat="37.19658" lon="-8.61674">
        <ele>40.51</ele>
        <time>2020-07-20T11:33:46Z</time>
      </trkpt>
      <trkpt lat="37.19649" lon="-8.6167">
        <ele>40.51</ele>
        <time>2020-07-20T11:33:50Z</time>
      </trkpt>
      <trkpt lat="37.19637" lon="-8.61648">
        <ele>40.51</ele>
        <time>2020-07-20T11:33:58Z</time>
      </trkpt>
      <trkpt lat="37.19622" lon="-8.61628">
        <ele>40.51</ele>
        <time>2020-07-20T11:34:05Z</time>
      </trkpt>
      <trkpt lat="37.19607" lon="-8.61614">
        <ele>40.51</ele>
        <time>2020-07-20T11:34:13Z</time>
      </trkpt>
      <trkpt lat="37.19595" lon="-8.61602">
        <ele>41.95</ele>
        <time>2020-07-20T11:34:19Z</time>
      </trkpt>
      <trkpt lat="37.19573" lon="-8.61587">
        <ele>42.92</ele>
        <time>2020-07-20T11:34:29Z</time>
      </trkpt>
      <trkpt lat="37.19551" lon="-8.61579">
        <ele>43.4</ele>
        <time>2020-07-20T11:34:37Z</time>
      </trkpt>
      <trkpt lat="37.19533" lon="-8.6157">
        <ele>41.47</ele>
        <time>2020-07-20T11:34:42Z</time>
      </trkpt>
      <trkpt lat="37.195" lon="-8.61551">
        <ele>40.03</ele>
        <time>2020-07-20T11:34:50Z</time>
      </trkpt>
      <trkpt lat="37.1949" lon="-8.61547">
        <ele>39.07</ele>
        <time>2020-07-20T11:34:52Z</time>
      </trkpt>
      <trkpt lat="37.19475" lon="-8.61538">
        <ele>39.07</ele>
        <time>2020-07-20T11:34:55Z</time>
      </trkpt>
      <trkpt lat="37.19459" lon="-8.61519">
        <ele>37.63</ele>
        <time>2020-07-20T11:34:59Z</time>
      </trkpt>
      <trkpt lat="37.1944" lon="-8.615">
        <ele>37.15</ele>
        <time>2020-07-20T11:35:03Z</time>
      </trkpt>
      <trkpt lat="37.19413" lon="-8.61484">
        <ele>37.15</ele>
        <time>2020-07-20T11:35:09Z</time>
      </trkpt>
      <trkpt lat="37.19401" lon="-8.61472">
        <ele>35.71</ele>
        <time>2020-07-20T11:35:12Z</time>
      </trkpt>
      <trkpt lat="37.19398" lon="-8.61467">
        <ele>35.71</ele>
        <time>2020-07-20T11:35:13Z</time>
      </trkpt>
      <trkpt lat="37.19384" lon="-8.61447">
        <ele>35.71</ele>
        <time>2020-07-20T11:35:19Z</time>
      </trkpt>
      <trkpt lat="37.19378" lon="-8.61439">
        <ele>35.71</ele>
        <time>2020-07-20T11:35:23Z</time>
      </trkpt>
      <trkpt lat="37.19372" lon="-8.61429">
        <ele>37.15</ele>
        <time>2020-07-20T11:35:27Z</time>
      </trkpt>
      <trkpt lat="37.1936" lon="-8.61409">
        <ele>37.63</ele>
        <time>2020-07-20T11:35:36Z</time>
      </trkpt>
      <trkpt lat="37.19347" lon="-8.6139">
        <ele>38.11</ele>
        <time>2020-07-20T11:35:45Z</time>
      </trkpt>
      <trkpt lat="37.19339" lon="-8.61372">
        <ele>39.55</ele>
        <time>2020-07-20T11:35:53Z</time>
      </trkpt>
      <trkpt lat="37.19333" lon="-8.61347">
        <ele>41.95</ele>
        <time>2020-07-20T11:36:02Z</time>
      </trkpt>
      <trkpt lat="37.19323" lon="-8.6133">
        <ele>41.95</ele>
        <time>2020-07-20T11:36:08Z</time>
      </trkpt>
      <trkpt lat="37.19302" lon="-8.61319">
        <ele>41.95</ele>
        <time>2020-07-20T11:36:17Z</time>
      </trkpt>
      <trkpt lat="37.19282" lon="-8.61314">
        <ele>42.44</ele>
        <time>2020-07-20T11:36:24Z</time>
      </trkpt>
      <trkpt lat="37.1926" lon="-8.61313">
        <ele>42.44</ele>
        <time>2020-07-20T11:36:31Z</time>
      </trkpt>
      <trkpt lat="37.1925" lon="-8.61314">
        <ele>44.36</ele>
        <time>2020-07-20T11:36:37Z</time>
      </trkpt>
      <trkpt lat="37.19239" lon="-8.61306">
        <ele>43.88</ele>
        <time>2020-07-20T11:36:41Z</time>
      </trkpt>
      <trkpt lat="37.19208" lon="-8.6131">
        <ele>40.03</ele>
        <time>2020-07-20T11:36:47Z</time>
      </trkpt>
      <trkpt lat="37.19164" lon="-8.61313">
        <ele>35.23</ele>
        <time>2020-07-20T11:36:53Z</time>
      </trkpt>
      <trkpt lat="37.19151" lon="-8.61312">
        <ele>34.74</ele>
        <time>2020-07-20T11:36:55Z</time>
      </trkpt>
      <trkpt lat="37.19144" lon="-8.61313">
        <ele>33.78</ele>
        <time>2020-07-20T11:36:56Z</time>
      </trkpt>
      <trkpt lat="37.19124" lon="-8.61312">
        <ele>33.3</ele>
        <time>2020-07-20T11:36:59Z</time>
      </trkpt>
      <trkpt lat="37.19118" lon="-8.61313">
        <ele>33.3</ele>
        <time>2020-07-20T11:37:00Z</time>
      </trkpt>
      <trkpt lat="37.19112" lon="-8.61316">
        <ele>32.34</ele>
        <time>2020-07-20T11:37:01Z</time>
      </trkpt>
      <trkpt lat="37.19107" lon="-8.6132">
        <ele>31.86</ele>
        <time>2020-07-20T11:37:02Z</time>
      </trkpt>
      <trkpt lat="37.19102" lon="-8.61325">
        <ele>31.86</ele>
        <time>2020-07-20T11:37:03Z</time>
      </trkpt>
      <trkpt lat="37.19098" lon="-8.61329">
        <ele>31.86</ele>
        <time>2020-07-20T11:37:04Z</time>
      </trkpt>
      <trkpt lat="37.19077" lon="-8.61342">
        <ele>31.86</ele>
        <time>2020-07-20T11:37:11Z</time>
      </trkpt>
      <trkpt lat="37.19058" lon="-8.61355">
        <ele>31.38</ele>
        <time>2020-07-20T11:37:18Z</time>
      </trkpt>
      <trkpt lat="37.19036" lon="-8.61379">
        <ele>31.38</ele>
        <time>2020-07-20T11:37:28Z</time>
      </trkpt>
      <trkpt lat="37.19017" lon="-8.61406">
        <ele>31.38</ele>
        <time>2020-07-20T11:37:38Z</time>
      </trkpt>
      <trkpt lat="37.19008" lon="-8.61417">
        <ele>32.82</ele>
        <time>2020-07-20T11:37:42Z</time>
      </trkpt>
      <trkpt lat="37.18992" lon="-8.6144">
        <ele>33.3</ele>
        <time>2020-07-20T11:37:51Z</time>
      </trkpt>
      <trkpt lat="37.18974" lon="-8.61464">
        <ele>34.26</ele>
        <time>2020-07-20T11:38:00Z</time>
      </trkpt>
      <trkpt lat="37.18956" lon="-8.61486">
        <ele>35.71</ele>
        <time>2020-07-20T11:38:09Z</time>
      </trkpt>
      <trkpt lat="37.18934" lon="-8.61509">
        <ele>36.67</ele>
        <time>2020-07-20T11:38:19Z</time>
      </trkpt>
      <trkpt lat="37.18919" lon="-8.61536">
        <ele>38.11</ele>
        <time>2020-07-20T11:38:29Z</time>
      </trkpt>
      <trkpt lat="37.18911" lon="-8.61563">
        <ele>38.59</ele>
        <time>2020-07-20T11:38:37Z</time>
      </trkpt>
      <trkpt lat="37.18901" lon="-8.61595">
        <ele>39.55</ele>
        <time>2020-07-20T11:38:47Z</time>
      </trkpt>
      <trkpt lat="37.18888" lon="-8.61629">
        <ele>39.55</ele>
        <time>2020-07-20T11:38:56Z</time>
      </trkpt>
      <trkpt lat="37.18872" lon="-8.61672">
        <ele>39.55</ele>
        <time>2020-07-20T11:39:06Z</time>
      </trkpt>
      <trkpt lat="37.18865" lon="-8.6169">
        <ele>39.55</ele>
        <time>2020-07-20T11:39:10Z</time>
      </trkpt>
      <trkpt lat="37.18864" lon="-8.61695">
        <ele>39.55</ele>
        <time>2020-07-20T11:39:11Z</time>
      </trkpt>
      <trkpt lat="37.18863" lon="-8.617">
        <ele>39.55</ele>
        <time>2020-07-20T11:39:12Z</time>
      </trkpt>
      <trkpt lat="37.18863" lon="-8.61705">
        <ele>39.55</ele>
        <time>2020-07-20T11:39:13Z</time>
      </trkpt>
      <trkpt lat="37.18864" lon="-8.6171">
        <ele>39.55</ele>
        <time>2020-07-20T11:39:14Z</time>
      </trkpt>
      <trkpt lat="37.18865" lon="-8.61715">
        <ele>39.55</ele>
        <time>2020-07-20T11:39:15Z</time>
      </trkpt>
      <trkpt lat="37.18866" lon="-8.6172">
        <ele>39.55</ele>
        <time>2020-07-20T11:39:16Z</time>
      </trkpt>
      <trkpt lat="37.18867" lon="-8.61725">
        <ele>39.55</ele>
        <time>2020-07-20T11:39:17Z</time>
      </trkpt>
      <trkpt lat="37.18869" lon="-8.61747">
        <ele>38.59</ele>
        <time>2020-07-20T11:39:22Z</time>
      </trkpt>
      <trkpt lat="37.18866" lon="-8.6175">
        <ele>38.59</ele>
        <time>2020-07-20T11:39:23Z</time>
      </trkpt>
      <trkpt lat="37.18863" lon="-8.61751">
        <ele>38.59</ele>
        <time>2020-07-20T11:39:24Z</time>
      </trkpt>
      <trkpt lat="37.1886" lon="-8.61752">
        <ele>38.59</ele>
        <time>2020-07-20T11:39:25Z</time>
      </trkpt>
      <trkpt lat="37.18857" lon="-8.61752">
        <ele>38.11</ele>
        <time>2020-07-20T11:39:26Z</time>
      </trkpt>
      <trkpt lat="37.18853" lon="-8.61751">
        <ele>38.11</ele>
        <time>2020-07-20T11:39:27Z</time>
      </trkpt>
      <trkpt lat="37.18822" lon="-8.61748">
        <ele>38.11</ele>
        <time>2020-07-20T11:39:35Z</time>
      </trkpt>
      <trkpt lat="37.18799" lon="-8.61758">
        <ele>38.11</ele>
        <time>2020-07-20T11:39:42Z</time>
      </trkpt>
      <trkpt lat="37.18795" lon="-8.61761">
        <ele>39.07</ele>
        <time>2020-07-20T11:39:46Z</time>
      </trkpt>
      <trkpt lat="37.18794" lon="-8.61762">
        <ele>39.55</ele>
        <time>2020-07-20T11:40:02Z</time>
      </trkpt>
      <trkpt lat="37.18794" lon="-8.61762">
        <ele>39.55</ele>
        <time>2020-07-20T11:40:13Z</time>
      </trkpt>
      <trkpt lat="37.18793" lon="-8.61763">
        <ele>39.55</ele>
        <time>2020-07-20T11:40:14Z</time>
      </trkpt>
      <trkpt lat="37.18793" lon="-8.61765">
        <ele>39.55</ele>
        <time>2020-07-20T11:40:15Z</time>
      </trkpt>
      <trkpt lat="37.18792" lon="-8.61766">
        <ele>39.55</ele>
        <time>2020-07-20T11:40:16Z</time>
      </trkpt>
      <trkpt lat="37.1879" lon="-8.61767">
        <ele>39.55</ele>
        <time>2020-07-20T11:40:17Z</time>
      </trkpt>
      <trkpt lat="37.18789" lon="-8.61768">
        <ele>39.55</ele>
        <time>2020-07-20T11:40:18Z</time>
      </trkpt>
      <trkpt lat="37.18787" lon="-8.61769">
        <ele>39.55</ele>
        <time>2020-07-20T11:40:19Z</time>
      </trkpt>
      <trkpt lat="37.18786" lon="-8.61769">
        <ele>39.55</ele>
        <time>2020-07-20T11:40:20Z</time>
      </trkpt>
      <trkpt lat="37.18781" lon="-8.61762">
        <ele>38.59</ele>
        <time>2020-07-20T11:40:23Z</time>
      </trkpt>
      <trkpt lat="37.18781" lon="-8.61758">
        <ele>38.59</ele>
        <time>2020-07-20T11:40:24Z</time>
      </trkpt>
      <trkpt lat="37.18781" lon="-8.61755">
        <ele>38.11</ele>
        <time>2020-07-20T11:40:25Z</time>
      </trkpt>
      <trkpt lat="37.18781" lon="-8.61746">
        <ele>37.63</ele>
        <time>2020-07-20T11:40:27Z</time>
      </trkpt>
      <trkpt lat="37.18786" lon="-8.61731">
        <ele>37.63</ele>
        <time>2020-07-20T11:40:30Z</time>
      </trkpt>
      <trkpt lat="37.18786" lon="-8.61712">
        <ele>36.19</ele>
        <time>2020-07-20T11:40:33Z</time>
      </trkpt>
      <trkpt lat="37.18779" lon="-8.61647">
        <ele>33.78</ele>
        <time>2020-07-20T11:40:42Z</time>
      </trkpt>
      <trkpt lat="37.18777" lon="-8.61639">
        <ele>33.78</ele>
        <time>2020-07-20T11:40:43Z</time>
      </trkpt>
      <trkpt lat="37.18763" lon="-8.61615">
        <ele>33.3</ele>
        <time>2020-07-20T11:40:48Z</time>
      </trkpt>
      <trkpt lat="37.18761" lon="-8.6161">
        <ele>33.3</ele>
        <time>2020-07-20T11:40:49Z</time>
      </trkpt>
      <trkpt lat="37.18756" lon="-8.61601">
        <ele>33.3</ele>
        <time>2020-07-20T11:40:51Z</time>
      </trkpt>
      <trkpt lat="37.18747" lon="-8.61567">
        <ele>30.9</ele>
        <time>2020-07-20T11:40:56Z</time>
      </trkpt>
      <trkpt lat="37.18743" lon="-8.61553">
        <ele>30.9</ele>
        <time>2020-07-20T11:40:58Z</time>
      </trkpt>
      <trkpt lat="37.18739" lon="-8.61529">
        <ele>29.94</ele>
        <time>2020-07-20T11:41:01Z</time>
      </trkpt>
      <trkpt lat="37.18738" lon="-8.61508">
        <ele>28.98</ele>
        <time>2020-07-20T11:41:04Z</time>
      </trkpt>
      <trkpt lat="37.18726" lon="-8.61478">
        <ele>28.02</ele>
        <time>2020-07-20T11:41:09Z</time>
      </trkpt>
      <trkpt lat="37.18706" lon="-8.61455">
        <ele>27.53</ele>
        <time>2020-07-20T11:41:14Z</time>
      </trkpt>
      <trkpt lat="37.18691" lon="-8.61451">
        <ele>26.57</ele>
        <time>2020-07-20T11:41:17Z</time>
      </trkpt>
      <trkpt lat="37.18659" lon="-8.61424">
        <ele>25.13</ele>
        <time>2020-07-20T11:41:24Z</time>
      </trkpt>
      <trkpt lat="37.18646" lon="-8.61421">
        <ele>23.69</ele>
        <time>2020-07-20T11:41:27Z</time>
      </trkpt>
      <trkpt lat="37.18641" lon="-8.61423">
        <ele>22.73</ele>
        <time>2020-07-20T11:41:28Z</time>
      </trkpt>
      <trkpt lat="37.1862" lon="-8.61423">
        <ele>24.17</ele>
        <time>2020-07-20T11:41:34Z</time>
      </trkpt>
      <trkpt lat="37.18608" lon="-8.6142">
        <ele>24.17</ele>
        <time>2020-07-20T11:41:40Z</time>
      </trkpt>
      <trkpt lat="37.1859" lon="-8.61416">
        <ele>24.17</ele>
        <time>2020-07-20T11:41:47Z</time>
      </trkpt>
      <trkpt lat="37.18582" lon="-8.61414">
        <ele>24.17</ele>
        <time>2020-07-20T11:41:53Z</time>
      </trkpt>
      <trkpt lat="37.18582" lon="-8.61413">
        <ele>24.17</ele>
        <time>2020-07-20T11:42:07Z</time>
      </trkpt>
      <trkpt lat="37.18579" lon="-8.61413">
        <ele>24.17</ele>
        <time>2020-07-20T11:42:15Z</time>
      </trkpt>
      <trkpt lat="37.18569" lon="-8.61408">
        <ele>23.69</ele>
        <time>2020-07-20T11:42:22Z</time>
      </trkpt>
      <trkpt lat="37.18567" lon="-8.61406">
        <ele>23.69</ele>
        <time>2020-07-20T11:42:25Z</time>
      </trkpt>
      <trkpt lat="37.18563" lon="-8.61406">
        <ele>23.69</ele>
        <time>2020-07-20T11:42:29Z</time>
      </trkpt>
      <trkpt lat="37.18551" lon="-8.61402">
        <ele>22.73</ele>
        <time>2020-07-20T11:42:36Z</time>
      </trkpt>
      <trkpt lat="37.18534" lon="-8.61395">
        <ele>22.73</ele>
        <time>2020-07-20T11:42:43Z</time>
      </trkpt>
      <trkpt lat="37.18517" lon="-8.61384">
        <ele>22.73</ele>
        <time>2020-07-20T11:42:51Z</time>
      </trkpt>
      <trkpt lat="37.185" lon="-8.61377">
        <ele>22.73</ele>
        <time>2020-07-20T11:42:58Z</time>
      </trkpt>
      <trkpt lat="37.18483" lon="-8.61364">
        <ele>22.25</ele>
        <time>2020-07-20T11:43:05Z</time>
      </trkpt>
      <trkpt lat="37.18466" lon="-8.6136">
        <ele>22.25</ele>
        <time>2020-07-20T11:43:11Z</time>
      </trkpt>
      <trkpt lat="37.18447" lon="-8.61359">
        <ele>22.25</ele>
        <time>2020-07-20T11:43:17Z</time>
      </trkpt>
      <trkpt lat="37.18423" lon="-8.61351">
        <ele>21.29</ele>
        <time>2020-07-20T11:43:24Z</time>
      </trkpt>
      <trkpt lat="37.18398" lon="-8.61343">
        <ele>21.29</ele>
        <time>2020-07-20T11:43:31Z</time>
      </trkpt>
      <trkpt lat="37.18383" lon="-8.61345">
        <ele>21.29</ele>
        <time>2020-07-20T11:43:35Z</time>
      </trkpt>
      <trkpt lat="37.18378" lon="-8.61346">
        <ele>21.29</ele>
        <time>2020-07-20T11:43:36Z</time>
      </trkpt>
      <trkpt lat="37.18366" lon="-8.61343">
        <ele>20.81</ele>
        <time>2020-07-20T11:43:39Z</time>
      </trkpt>
      <trkpt lat="37.18357" lon="-8.61342">
        <ele>20.81</ele>
        <time>2020-07-20T11:43:41Z</time>
      </trkpt>
      <trkpt lat="37.18337" lon="-8.61336">
        <ele>20.81</ele>
        <time>2020-07-20T11:43:46Z</time>
      </trkpt>
      <trkpt lat="37.18304" lon="-8.61322">
        <ele>20.81</ele>
        <time>2020-07-20T11:43:55Z</time>
      </trkpt>
      <trkpt lat="37.18297" lon="-8.61317">
        <ele>20.81</ele>
        <time>2020-07-20T11:43:57Z</time>
      </trkpt>
      <trkpt lat="37.18274" lon="-8.61314">
        <ele>20.81</ele>
        <time>2020-07-20T11:44:03Z</time>
      </trkpt>
      <trkpt lat="37.18272" lon="-8.61303">
        <ele>20.32</ele>
        <time>2020-07-20T11:44:06Z</time>
      </trkpt>
      <trkpt lat="37.18273" lon="-8.61298">
        <ele>20.32</ele>
        <time>2020-07-20T11:44:07Z</time>
      </trkpt>
      <trkpt lat="37.18276" lon="-8.61255">
        <ele>20.32</ele>
        <time>2020-07-20T11:44:16Z</time>
      </trkpt>
      <trkpt lat="37.18272" lon="-8.61219">
        <ele>20.32</ele>
        <time>2020-07-20T11:44:24Z</time>
      </trkpt>
      <trkpt lat="37.18268" lon="-8.61189">
        <ele>20.32</ele>
        <time>2020-07-20T11:44:31Z</time>
      </trkpt>
      <trkpt lat="37.18269" lon="-8.61165">
        <ele>20.32</ele>
        <time>2020-07-20T11:44:37Z</time>
      </trkpt>
      <trkpt lat="37.18259" lon="-8.61153">
        <ele>20.32</ele>
        <time>2020-07-20T11:44:42Z</time>
      </trkpt>
      <trkpt lat="37.18258" lon="-8.6113">
        <ele>20.32</ele>
        <time>2020-07-20T11:44:47Z</time>
      </trkpt>
      <trkpt lat="37.18256" lon="-8.61095">
        <ele>20.32</ele>
        <time>2020-07-20T11:44:55Z</time>
      </trkpt>
      <trkpt lat="37.18251" lon="-8.61062">
        <ele>20.32</ele>
        <time>2020-07-20T11:45:03Z</time>
      </trkpt>
      <trkpt lat="37.18245" lon="-8.61017">
        <ele>20.32</ele>
        <time>2020-07-20T11:45:14Z</time>
      </trkpt>
      <trkpt lat="37.1824" lon="-8.60971">
        <ele>19.84</ele>
        <time>2020-07-20T11:45:25Z</time>
      </trkpt>
      <trkpt lat="37.18233" lon="-8.60924">
        <ele>19.84</ele>
        <time>2020-07-20T11:45:37Z</time>
      </trkpt>
      <trkpt lat="37.18239" lon="-8.60914">
        <ele>19.84</ele>
        <time>2020-07-20T11:45:41Z</time>
      </trkpt>
      <trkpt lat="37.1827" lon="-8.60913">
        <ele>19.84</ele>
        <time>2020-07-20T11:45:50Z</time>
      </trkpt>
      <trkpt lat="37.18279" lon="-8.60912">
        <ele>19.84</ele>
        <time>2020-07-20T11:45:53Z</time>
      </trkpt>
      <trkpt lat="37.18283" lon="-8.60894">
        <ele>21.29</ele>
        <time>2020-07-20T11:45:58Z</time>
      </trkpt>
      <trkpt lat="37.18282" lon="-8.6087">
        <ele>22.73</ele>
        <time>2020-07-20T11:46:05Z</time>
      </trkpt>
      <trkpt lat="37.1828" lon="-8.60867">
        <ele>23.69</ele>
        <time>2020-07-20T11:46:07Z</time>
      </trkpt>
      <trkpt lat="37.18277" lon="-8.60867">
        <ele>23.69</ele>
        <time>2020-07-20T11:46:08Z</time>
      </trkpt>
      <trkpt lat="37.18274" lon="-8.60867">
        <ele>23.69</ele>
        <time>2020-07-20T11:46:09Z</time>
      </trkpt>
      <trkpt lat="37.18271" lon="-8.60867">
        <ele>23.69</ele>
        <time>2020-07-20T11:46:10Z</time>
      </trkpt>
      <trkpt lat="37.18268" lon="-8.60868">
        <ele>23.69</ele>
        <time>2020-07-20T11:46:11Z</time>
      </trkpt>
      <trkpt lat="37.18241" lon="-8.60868">
        <ele>24.17</ele>
        <time>2020-07-20T11:46:20Z</time>
      </trkpt>
      <trkpt lat="37.1822" lon="-8.60869">
        <ele>24.17</ele>
        <time>2020-07-20T11:46:27Z</time>
      </trkpt>
      <trkpt lat="37.1819" lon="-8.6087">
        <ele>25.61</ele>
        <time>2020-07-20T11:46:37Z</time>
      </trkpt>
      <trkpt lat="37.18159" lon="-8.60868">
        <ele>25.61</ele>
        <time>2020-07-20T11:46:47Z</time>
      </trkpt>
      <trkpt lat="37.18123" lon="-8.60864">
        <ele>26.09</ele>
        <time>2020-07-20T11:46:58Z</time>
      </trkpt>
      <trkpt lat="37.181" lon="-8.60861">
        <ele>26.57</ele>
        <time>2020-07-20T11:47:05Z</time>
      </trkpt>
      <trkpt lat="37.18071" lon="-8.60857">
        <ele>26.57</ele>
        <time>2020-07-20T11:47:13Z</time>
      </trkpt>
      <trkpt lat="37.18032" lon="-8.60852">
        <ele>26.57</ele>
        <time>2020-07-20T11:47:23Z</time>
      </trkpt>
      <trkpt lat="37.18003" lon="-8.60847">
        <ele>25.13</ele>
        <time>2020-07-20T11:47:30Z</time>
      </trkpt>
      <trkpt lat="37.17952" lon="-8.60836">
        <ele>24.17</ele>
        <time>2020-07-20T11:47:42Z</time>
      </trkpt>
      <trkpt lat="37.17937" lon="-8.60837">
        <ele>24.17</ele>
        <time>2020-07-20T11:47:46Z</time>
      </trkpt>
      <trkpt lat="37.17934" lon="-8.6084">
        <ele>24.17</ele>
        <time>2020-07-20T11:47:47Z</time>
      </trkpt>
      <trkpt lat="37.17928" lon="-8.60859">
        <ele>22.73</ele>
        <time>2020-07-20T11:47:50Z</time>
      </trkpt>
      <trkpt lat="37.17923" lon="-8.60906">
        <ele>19.84</ele>
        <time>2020-07-20T11:47:55Z</time>
      </trkpt>
      <trkpt lat="37.17909" lon="-8.60966">
        <ele>18.88</ele>
        <time>2020-07-20T11:48:02Z</time>
      </trkpt>
      <trkpt lat="37.17894" lon="-8.61019">
        <ele>18.88</ele>
        <time>2020-07-20T11:48:10Z</time>
      </trkpt>
      <trkpt lat="37.17885" lon="-8.61059">
        <ele>18.88</ele>
        <time>2020-07-20T11:48:17Z</time>
      </trkpt>
      <trkpt lat="37.17876" lon="-8.61099">
        <ele>18.88</ele>
        <time>2020-07-20T11:48:24Z</time>
      </trkpt>
      <trkpt lat="37.17874" lon="-8.61104">
        <ele>18.88</ele>
        <time>2020-07-20T11:48:25Z</time>
      </trkpt>
      <trkpt lat="37.1787" lon="-8.61108">
        <ele>18.88</ele>
        <time>2020-07-20T11:48:26Z</time>
      </trkpt>
      <trkpt lat="37.17867" lon="-8.61112">
        <ele>18.88</ele>
        <time>2020-07-20T11:48:27Z</time>
      </trkpt>
      <trkpt lat="37.17863" lon="-8.61115">
        <ele>18.88</ele>
        <time>2020-07-20T11:48:28Z</time>
      </trkpt>
      <trkpt lat="37.17859" lon="-8.61119">
        <ele>18.88</ele>
        <time>2020-07-20T11:48:29Z</time>
      </trkpt>
      <trkpt lat="37.17856" lon="-8.61123">
        <ele>18.88</ele>
        <time>2020-07-20T11:48:30Z</time>
      </trkpt>
      <trkpt lat="37.17854" lon="-8.61127">
        <ele>18.88</ele>
        <time>2020-07-20T11:48:31Z</time>
      </trkpt>
      <trkpt lat="37.1785" lon="-8.6113">
        <ele>18.88</ele>
        <time>2020-07-20T11:48:32Z</time>
      </trkpt>
      <trkpt lat="37.17847" lon="-8.61133">
        <ele>18.88</ele>
        <time>2020-07-20T11:48:33Z</time>
      </trkpt>
      <trkpt lat="37.17843" lon="-8.61137">
        <ele>18.88</ele>
        <time>2020-07-20T11:48:34Z</time>
      </trkpt>
      <trkpt lat="37.17839" lon="-8.61142">
        <ele>17.44</ele>
        <time>2020-07-20T11:48:35Z</time>
      </trkpt>
      <trkpt lat="37.17838" lon="-8.61148">
        <ele>17.44</ele>
        <time>2020-07-20T11:48:36Z</time>
      </trkpt>
      <trkpt lat="37.17837" lon="-8.61153">
        <ele>17.44</ele>
        <time>2020-07-20T11:48:37Z</time>
      </trkpt>
      <trkpt lat="37.17837" lon="-8.61158">
        <ele>17.44</ele>
        <time>2020-07-20T11:48:38Z</time>
      </trkpt>
      <trkpt lat="37.17837" lon="-8.61163">
        <ele>17.44</ele>
        <time>2020-07-20T11:48:39Z</time>
      </trkpt>
      <trkpt lat="37.17838" lon="-8.61167">
        <ele>17.44</ele>
        <time>2020-07-20T11:48:40Z</time>
      </trkpt>
      <trkpt lat="37.17839" lon="-8.61171">
        <ele>18.88</ele>
        <time>2020-07-20T11:48:41Z</time>
      </trkpt>
      <trkpt lat="37.17839" lon="-8.61174">
        <ele>18.88</ele>
        <time>2020-07-20T11:48:42Z</time>
      </trkpt>
      <trkpt lat="37.1784" lon="-8.61178">
        <ele>18.88</ele>
        <time>2020-07-20T11:48:43Z</time>
      </trkpt>
      <trkpt lat="37.17838" lon="-8.61181">
        <ele>18.88</ele>
        <time>2020-07-20T11:48:44Z</time>
      </trkpt>
      <trkpt lat="37.17836" lon="-8.61184">
        <ele>18.88</ele>
        <time>2020-07-20T11:48:45Z</time>
      </trkpt>
      <trkpt lat="37.17833" lon="-8.61186">
        <ele>18.88</ele>
        <time>2020-07-20T11:48:46Z</time>
      </trkpt>
      <trkpt lat="37.17829" lon="-8.61187">
        <ele>18.88</ele>
        <time>2020-07-20T11:48:47Z</time>
      </trkpt>
      <trkpt lat="37.1779" lon="-8.61192">
        <ele>12.15</ele>
        <time>2020-07-20T11:48:56Z</time>
      </trkpt>
      <trkpt lat="37.17785" lon="-8.61193">
        <ele>23.69</ele>
        <time>2020-07-20T11:48:57Z</time>
      </trkpt>
      <trkpt lat="37.17781" lon="-8.61194">
        <ele>19.84</ele>
        <time>2020-07-20T11:48:58Z</time>
      </trkpt>
      <trkpt lat="37.17776" lon="-8.61195">
        <ele>18.88</ele>
        <time>2020-07-20T11:48:59Z</time>
      </trkpt>
      <trkpt lat="37.17772" lon="-8.61197">
        <ele>18.88</ele>
        <time>2020-07-20T11:49:00Z</time>
      </trkpt>
      <trkpt lat="37.17724" lon="-8.61207">
        <ele>17.92</ele>
        <time>2020-07-20T11:49:09Z</time>
      </trkpt>
      <trkpt lat="37.17671" lon="-8.61218">
        <ele>17.44</ele>
        <time>2020-07-20T11:49:19Z</time>
      </trkpt>
      <trkpt lat="37.1764" lon="-8.61224">
        <ele>17.44</ele>
        <time>2020-07-20T11:49:25Z</time>
      </trkpt>
      <trkpt lat="37.17588" lon="-8.61232">
        <ele>17.44</ele>
        <time>2020-07-20T11:49:35Z</time>
      </trkpt>
      <trkpt lat="37.17535" lon="-8.61225">
        <ele>17.44</ele>
        <time>2020-07-20T11:49:45Z</time>
      </trkpt>
      <trkpt lat="37.17515" lon="-8.61224">
        <ele>17.44</ele>
        <time>2020-07-20T11:49:49Z</time>
      </trkpt>
      <trkpt lat="37.17477" lon="-8.61239">
        <ele>17.44</ele>
        <time>2020-07-20T11:49:57Z</time>
      </trkpt>
      <trkpt lat="37.17452" lon="-8.6125">
        <ele>17.44</ele>
        <time>2020-07-20T11:50:02Z</time>
      </trkpt>
      <trkpt lat="37.17446" lon="-8.61251">
        <ele>17.44</ele>
        <time>2020-07-20T11:50:03Z</time>
      </trkpt>
      <trkpt lat="37.17394" lon="-8.61256">
        <ele>16.96</ele>
        <time>2020-07-20T11:50:13Z</time>
      </trkpt>
      <trkpt lat="37.17333" lon="-8.61258">
        <ele>16.96</ele>
        <time>2020-07-20T11:50:25Z</time>
      </trkpt>
      <trkpt lat="37.17306" lon="-8.61261">
        <ele>16.48</ele>
        <time>2020-07-20T11:50:30Z</time>
      </trkpt>
      <trkpt lat="37.17255" lon="-8.61269">
        <ele>16</ele>
        <time>2020-07-20T11:50:40Z</time>
      </trkpt>
      <trkpt lat="37.1723" lon="-8.61272">
        <ele>16</ele>
        <time>2020-07-20T11:50:45Z</time>
      </trkpt>
      <trkpt lat="37.17225" lon="-8.61271">
        <ele>16</ele>
        <time>2020-07-20T11:50:46Z</time>
      </trkpt>
      <trkpt lat="37.1722" lon="-8.61269">
        <ele>16</ele>
        <time>2020-07-20T11:50:47Z</time>
      </trkpt>
      <trkpt lat="37.17215" lon="-8.61266">
        <ele>16</ele>
        <time>2020-07-20T11:50:48Z</time>
      </trkpt>
      <trkpt lat="37.1721" lon="-8.61263">
        <ele>16</ele>
        <time>2020-07-20T11:50:49Z</time>
      </trkpt>
      <trkpt lat="37.17142" lon="-8.61219">
        <ele>15.04</ele>
        <time>2020-07-20T11:51:03Z</time>
      </trkpt>
      <trkpt lat="37.17103" lon="-8.61193">
        <ele>15.04</ele>
        <time>2020-07-20T11:51:12Z</time>
      </trkpt>
      <trkpt lat="37.17053" lon="-8.6116">
        <ele>15.04</ele>
        <time>2020-07-20T11:51:23Z</time>
      </trkpt>
      <trkpt lat="37.17015" lon="-8.61135">
        <ele>15.04</ele>
        <time>2020-07-20T11:51:31Z</time>
      </trkpt>
      <trkpt lat="37.16989" lon="-8.61121">
        <ele>14.56</ele>
        <time>2020-07-20T11:51:36Z</time>
      </trkpt>
      <trkpt lat="37.16942" lon="-8.61105">
        <ele>14.56</ele>
        <time>2020-07-20T11:51:45Z</time>
      </trkpt>
      <trkpt lat="37.16884" lon="-8.61093">
        <ele>14.56</ele>
        <time>2020-07-20T11:51:56Z</time>
      </trkpt>
      <trkpt lat="37.16847" lon="-8.61092">
        <ele>14.56</ele>
        <time>2020-07-20T11:52:03Z</time>
      </trkpt>
      <trkpt lat="37.16812" lon="-8.61088">
        <ele>15.52</ele>
        <time>2020-07-20T11:52:10Z</time>
      </trkpt>
      <trkpt lat="37.16766" lon="-8.61081">
        <ele>16.96</ele>
        <time>2020-07-20T11:52:20Z</time>
      </trkpt>
      <trkpt lat="37.16708" lon="-8.61074">
        <ele>17.44</ele>
        <time>2020-07-20T11:52:33Z</time>
      </trkpt>
      <trkpt lat="37.16663" lon="-8.61066">
        <ele>17.92</ele>
        <time>2020-07-20T11:52:43Z</time>
      </trkpt>
      <trkpt lat="37.1663" lon="-8.6106">
        <ele>19.36</ele>
        <time>2020-07-20T11:52:51Z</time>
      </trkpt>
      <trkpt lat="37.16594" lon="-8.61061">
        <ele>21.29</ele>
        <time>2020-07-20T11:53:00Z</time>
      </trkpt>
      <trkpt lat="37.16585" lon="-8.61061">
        <ele>21.77</ele>
        <time>2020-07-20T11:53:03Z</time>
      </trkpt>
      <trkpt lat="37.16583" lon="-8.61059">
        <ele>22.73</ele>
        <time>2020-07-20T11:53:04Z</time>
      </trkpt>
      <trkpt lat="37.16582" lon="-8.61057">
        <ele>22.73</ele>
        <time>2020-07-20T11:53:05Z</time>
      </trkpt>
      <trkpt lat="37.1658" lon="-8.61055">
        <ele>22.73</ele>
        <time>2020-07-20T11:53:06Z</time>
      </trkpt>
      <trkpt lat="37.16578" lon="-8.61055">
        <ele>22.73</ele>
        <time>2020-07-20T11:53:07Z</time>
      </trkpt>
      <trkpt lat="37.16575" lon="-8.61055">
        <ele>22.73</ele>
        <time>2020-07-20T11:53:08Z</time>
      </trkpt>
      <trkpt lat="37.16572" lon="-8.61055">
        <ele>22.73</ele>
        <time>2020-07-20T11:53:09Z</time>
      </trkpt>
      <trkpt lat="37.1657" lon="-8.61054">
        <ele>22.73</ele>
        <time>2020-07-20T11:53:10Z</time>
      </trkpt>
      <trkpt lat="37.16546" lon="-8.61043">
        <ele>23.21</ele>
        <time>2020-07-20T11:53:18Z</time>
      </trkpt>
      <trkpt lat="37.16509" lon="-8.61023">
        <ele>23.21</ele>
        <time>2020-07-20T11:53:29Z</time>
      </trkpt>
      <trkpt lat="37.16473" lon="-8.61008">
        <ele>23.21</ele>
        <time>2020-07-20T11:53:40Z</time>
      </trkpt>
      <trkpt lat="37.16452" lon="-8.61015">
        <ele>23.21</ele>
        <time>2020-07-20T11:53:47Z</time>
      </trkpt>
      <trkpt lat="37.16445" lon="-8.61013">
        <ele>23.21</ele>
        <time>2020-07-20T11:53:51Z</time>
      </trkpt>
      <trkpt lat="37.16444" lon="-8.61012">
        <ele>23.21</ele>
        <time>2020-07-20T11:53:52Z</time>
      </trkpt>
      <trkpt lat="37.16442" lon="-8.61012">
        <ele>23.21</ele>
        <time>2020-07-20T11:53:53Z</time>
      </trkpt>
      <trkpt lat="37.16432" lon="-8.61004">
        <ele>21.77</ele>
        <time>2020-07-20T11:53:59Z</time>
      </trkpt>
      <trkpt lat="37.1643" lon="-8.61001">
        <ele>21.77</ele>
        <time>2020-07-20T11:54:05Z</time>
      </trkpt>
      <trkpt lat="37.1643" lon="-8.60999">
        <ele>21.29</ele>
        <time>2020-07-20T11:54:06Z</time>
      </trkpt>
      <trkpt lat="37.1643" lon="-8.60996">
        <ele>20.81</ele>
        <time>2020-07-20T11:54:07Z</time>
      </trkpt>
      <trkpt lat="37.16431" lon="-8.60993">
        <ele>20.81</ele>
        <time>2020-07-20T11:54:08Z</time>
      </trkpt>
      <trkpt lat="37.16432" lon="-8.60989">
        <ele>20.81</ele>
        <time>2020-07-20T11:54:09Z</time>
      </trkpt>
      <trkpt lat="37.16434" lon="-8.60985">
        <ele>20.32</ele>
        <time>2020-07-20T11:54:10Z</time>
      </trkpt>
      <trkpt lat="37.16435" lon="-8.60979">
        <ele>20.32</ele>
        <time>2020-07-20T11:54:11Z</time>
      </trkpt>
      <trkpt lat="37.16445" lon="-8.60954">
        <ele>17.92</ele>
        <time>2020-07-20T11:54:15Z</time>
      </trkpt>
      <trkpt lat="37.16463" lon="-8.60909">
        <ele>15.04</ele>
        <time>2020-07-20T11:54:21Z</time>
      </trkpt>
      <trkpt lat="37.16466" lon="-8.60901">
        <ele>15.04</ele>
        <time>2020-07-20T11:54:22Z</time>
      </trkpt>
      <trkpt lat="37.1649" lon="-8.60843">
        <ele>13.6</ele>
        <time>2020-07-20T11:54:30Z</time>
      </trkpt>
      <trkpt lat="37.16501" lon="-8.60817">
        <ele>13.6</ele>
        <time>2020-07-20T11:54:36Z</time>
      </trkpt>
      <trkpt lat="37.16501" lon="-8.60814">
        <ele>13.6</ele>
        <time>2020-07-20T11:54:37Z</time>
      </trkpt>
      <trkpt lat="37.16501" lon="-8.60812">
        <ele>13.6</ele>
        <time>2020-07-20T11:54:38Z</time>
      </trkpt>
      <trkpt lat="37.16501" lon="-8.6081">
        <ele>13.6</ele>
        <time>2020-07-20T11:54:44Z</time>
      </trkpt>
      <trkpt lat="37.16502" lon="-8.6081">
        <ele>13.6</ele>
        <time>2020-07-20T11:54:58Z</time>
      </trkpt>
      <trkpt lat="37.16503" lon="-8.6081">
        <ele>13.6</ele>
        <time>2020-07-20T11:55:19Z</time>
      </trkpt>
      <trkpt lat="37.16503" lon="-8.6081">
        <ele>13.12</ele>
        <time>2020-07-20T11:55:55Z</time>
      </trkpt>
      <trkpt lat="37.16503" lon="-8.60811">
        <ele>13.12</ele>
        <time>2020-07-20T11:56:19Z</time>
      </trkpt>
      <trkpt lat="37.16503" lon="-8.60811">
        <ele>13.12</ele>
        <time>2020-07-20T11:56:36Z</time>
      </trkpt>
      <trkpt lat="37.16503" lon="-8.6081">
        <ele>14.56</ele>
        <time>2020-07-20T11:56:59Z</time>
      </trkpt>
      <trkpt lat="37.16502" lon="-8.60812">
        <ele>14.56</ele>
        <time>2020-07-20T11:57:09Z</time>
      </trkpt>
      <trkpt lat="37.16501" lon="-8.60812">
        <ele>14.56</ele>
        <time>2020-07-20T11:57:22Z</time>
      </trkpt>
      <trkpt lat="37.1649" lon="-8.60811">
        <ele>14.56</ele>
        <time>2020-07-20T11:57:28Z</time>
      </trkpt>
      <trkpt lat="37.16464" lon="-8.60788">
        <ele>14.56</ele>
        <time>2020-07-20T11:57:38Z</time>
      </trkpt>
      <trkpt lat="37.16442" lon="-8.60763">
        <ele>14.56</ele>
        <time>2020-07-20T11:57:47Z</time>
      </trkpt>
      <trkpt lat="37.16416" lon="-8.60733">
        <ele>14.56</ele>
        <time>2020-07-20T11:57:57Z</time>
      </trkpt>
      <trkpt lat="37.1639" lon="-8.60701">
        <ele>14.56</ele>
        <time>2020-07-20T11:58:07Z</time>
      </trkpt>
      <trkpt lat="37.16363" lon="-8.60667">
        <ele>14.56</ele>
        <time>2020-07-20T11:58:17Z</time>
      </trkpt>
      <trkpt lat="37.16334" lon="-8.60632">
        <ele>13.6</ele>
        <time>2020-07-20T11:58:28Z</time>
      </trkpt>
      <trkpt lat="37.1631" lon="-8.60603">
        <ele>13.6</ele>
        <time>2020-07-20T11:58:37Z</time>
      </trkpt>
      <trkpt lat="37.16308" lon="-8.60599">
        <ele>13.6</ele>
        <time>2020-07-20T11:58:38Z</time>
      </trkpt>
      <trkpt lat="37.16285" lon="-8.60569">
        <ele>13.12</ele>
        <time>2020-07-20T11:58:46Z</time>
      </trkpt>
      <trkpt lat="37.16259" lon="-8.60536">
        <ele>13.12</ele>
        <time>2020-07-20T11:58:55Z</time>
      </trkpt>
      <trkpt lat="37.16233" lon="-8.60522">
        <ele>13.12</ele>
        <time>2020-07-20T11:59:02Z</time>
      </trkpt>
      <trkpt lat="37.16188" lon="-8.60508">
        <ele>13.12</ele>
        <time>2020-07-20T11:59:14Z</time>
      </trkpt>
      <trkpt lat="37.16163" lon="-8.60496">
        <ele>13.12</ele>
        <time>2020-07-20T11:59:21Z</time>
      </trkpt>
      <trkpt lat="37.16156" lon="-8.60491">
        <ele>13.12</ele>
        <time>2020-07-20T11:59:23Z</time>
      </trkpt>
      <trkpt lat="37.16128" lon="-8.60456">
        <ele>14.56</ele>
        <time>2020-07-20T11:59:33Z</time>
      </trkpt>
      <trkpt lat="37.16111" lon="-8.60427">
        <ele>14.56</ele>
        <time>2020-07-20T11:59:41Z</time>
      </trkpt>
      <trkpt lat="37.16105" lon="-8.60416">
        <ele>14.56</ele>
        <time>2020-07-20T11:59:44Z</time>
      </trkpt>
      <trkpt lat="37.16091" lon="-8.60405">
        <ele>14.08</ele>
        <time>2020-07-20T11:59:48Z</time>
      </trkpt>
      <trkpt lat="37.16055" lon="-8.6039">
        <ele>14.56</ele>
        <time>2020-07-20T11:59:58Z</time>
      </trkpt>
      <trkpt lat="37.16028" lon="-8.60386">
        <ele>14.56</ele>
        <time>2020-07-20T12:00:05Z</time>
      </trkpt>
      <trkpt lat="37.15986" lon="-8.60386">
        <ele>14.08</ele>
        <time>2020-07-20T12:00:16Z</time>
      </trkpt>
      <trkpt lat="37.15949" lon="-8.60384">
        <ele>14.08</ele>
        <time>2020-07-20T12:00:26Z</time>
      </trkpt>
      <trkpt lat="37.15915" lon="-8.60378">
        <ele>14.08</ele>
        <time>2020-07-20T12:00:36Z</time>
      </trkpt>
      <trkpt lat="37.15909" lon="-8.60373">
        <ele>14.08</ele>
        <time>2020-07-20T12:00:41Z</time>
      </trkpt>
      <trkpt lat="37.15908" lon="-8.6037">
        <ele>14.08</ele>
        <time>2020-07-20T12:00:46Z</time>
      </trkpt>
      <trkpt lat="37.15912" lon="-8.6036">
        <ele>11.67</ele>
        <time>2020-07-20T12:00:50Z</time>
      </trkpt>
      <trkpt lat="37.15924" lon="-8.60345">
        <ele>11.67</ele>
        <time>2020-07-20T12:00:57Z</time>
      </trkpt>
      <trkpt lat="37.15934" lon="-8.60341">
        <ele>12.63</ele>
        <time>2020-07-20T12:01:01Z</time>
      </trkpt>
      <trkpt lat="37.15946" lon="-8.60333">
        <ele>13.12</ele>
        <time>2020-07-20T12:01:06Z</time>
      </trkpt>
      <trkpt lat="37.15955" lon="-8.60314">
        <ele>12.63</ele>
        <time>2020-07-20T12:01:13Z</time>
      </trkpt>
      <trkpt lat="37.1597" lon="-8.60292">
        <ele>12.63</ele>
        <time>2020-07-20T12:01:21Z</time>
      </trkpt>
      <trkpt lat="37.1599" lon="-8.60276">
        <ele>12.63</ele>
        <time>2020-07-20T12:01:29Z</time>
      </trkpt>
      <trkpt lat="37.16008" lon="-8.60263">
        <ele>13.12</ele>
        <time>2020-07-20T12:01:36Z</time>
      </trkpt>
      <trkpt lat="37.16012" lon="-8.60238">
        <ele>13.12</ele>
        <time>2020-07-20T12:01:43Z</time>
      </trkpt>
      <trkpt lat="37.16019" lon="-8.60229">
        <ele>13.12</ele>
        <time>2020-07-20T12:01:49Z</time>
      </trkpt>
      <trkpt lat="37.16033" lon="-8.60229">
        <ele>13.12</ele>
        <time>2020-07-20T12:01:55Z</time>
      </trkpt>
      <trkpt lat="37.16058" lon="-8.60229">
        <ele>13.12</ele>
        <time>2020-07-20T12:02:04Z</time>
      </trkpt>
      <trkpt lat="37.16079" lon="-8.60227">
        <ele>13.12</ele>
        <time>2020-07-20T12:02:12Z</time>
      </trkpt>
      <trkpt lat="37.16094" lon="-8.60214">
        <ele>13.12</ele>
        <time>2020-07-20T12:02:19Z</time>
      </trkpt>
      <trkpt lat="37.16109" lon="-8.60211">
        <ele>13.12</ele>
        <time>2020-07-20T12:02:25Z</time>
      </trkpt>
      <trkpt lat="37.16126" lon="-8.60206">
        <ele>14.08</ele>
        <time>2020-07-20T12:02:32Z</time>
      </trkpt>
      <trkpt lat="37.16135" lon="-8.60187">
        <ele>16</ele>
        <time>2020-07-20T12:02:40Z</time>
      </trkpt>
      <trkpt lat="37.1613" lon="-8.60163">
        <ele>17.44</ele>
        <time>2020-07-20T12:02:50Z</time>
      </trkpt>
      <trkpt lat="37.16122" lon="-8.60144">
        <ele>18.4</ele>
        <time>2020-07-20T12:02:59Z</time>
      </trkpt>
      <trkpt lat="37.16112" lon="-8.60125">
        <ele>20.32</ele>
        <time>2020-07-20T12:03:08Z</time>
      </trkpt>
      <trkpt lat="37.16101" lon="-8.60094">
        <ele>22.25</ele>
        <time>2020-07-20T12:03:21Z</time>
      </trkpt>
      <trkpt lat="37.16093" lon="-8.6007">
        <ele>23.69</ele>
        <time>2020-07-20T12:03:31Z</time>
      </trkpt>
      <trkpt lat="37.16079" lon="-8.60067">
        <ele>23.69</ele>
        <time>2020-07-20T12:03:36Z</time>
      </trkpt>
      <trkpt lat="37.16059" lon="-8.60078">
        <ele>23.69</ele>
        <time>2020-07-20T12:03:43Z</time>
      </trkpt>
      <trkpt lat="37.16039" lon="-8.60093">
        <ele>24.17</ele>
        <time>2020-07-20T12:03:53Z</time>
      </trkpt>
      <trkpt lat="37.16025" lon="-8.60104">
        <ele>25.13</ele>
        <time>2020-07-20T12:04:01Z</time>
      </trkpt>
      <trkpt lat="37.1602" lon="-8.60097">
        <ele>25.13</ele>
        <time>2020-07-20T12:04:05Z</time>
      </trkpt>
      <trkpt lat="37.16013" lon="-8.60087">
        <ele>25.61</ele>
        <time>2020-07-20T12:04:10Z</time>
      </trkpt>
      <trkpt lat="37.1601" lon="-8.60087">
        <ele>25.61</ele>
        <time>2020-07-20T12:04:12Z</time>
      </trkpt>
      <trkpt lat="37.15993" lon="-8.60102">
        <ele>24.17</ele>
        <time>2020-07-20T12:04:18Z</time>
      </trkpt>
      <trkpt lat="37.15991" lon="-8.60103">
        <ele>24.17</ele>
        <time>2020-07-20T12:04:19Z</time>
      </trkpt>
      <trkpt lat="37.15989" lon="-8.60104">
        <ele>23.69</ele>
        <time>2020-07-20T12:04:20Z</time>
      </trkpt>
      <trkpt lat="37.15989" lon="-8.60099">
        <ele>23.69</ele>
        <time>2020-07-20T12:04:23Z</time>
      </trkpt>
      <trkpt lat="37.15991" lon="-8.60097">
        <ele>23.21</ele>
        <time>2020-07-20T12:04:24Z</time>
      </trkpt>
      <trkpt lat="37.16009" lon="-8.60081">
        <ele>22.73</ele>
        <time>2020-07-20T12:04:30Z</time>
      </trkpt>
      <trkpt lat="37.1603" lon="-8.60062">
        <ele>21.29</ele>
        <time>2020-07-20T12:04:36Z</time>
      </trkpt>
      <trkpt lat="37.16036" lon="-8.60067">
        <ele>21.29</ele>
        <time>2020-07-20T12:04:39Z</time>
      </trkpt>
      <trkpt lat="37.16038" lon="-8.60066">
        <ele>21.29</ele>
        <time>2020-07-20T12:04:40Z</time>
      </trkpt>
      <trkpt lat="37.1604" lon="-8.60064">
        <ele>20.81</ele>
        <time>2020-07-20T12:04:41Z</time>
      </trkpt>
      <trkpt lat="37.16057" lon="-8.60049">
        <ele>22.25</ele>
        <time>2020-07-20T12:04:49Z</time>
      </trkpt>
      <trkpt lat="37.16059" lon="-8.60047">
        <ele>22.25</ele>
        <time>2020-07-20T12:04:50Z</time>
      </trkpt>
      <trkpt lat="37.16076" lon="-8.60028">
        <ele>22.73</ele>
        <time>2020-07-20T12:05:00Z</time>
      </trkpt>
      <trkpt lat="37.16076" lon="-8.60023">
        <ele>23.21</ele>
        <time>2020-07-20T12:05:02Z</time>
      </trkpt>
      <trkpt lat="37.16075" lon="-8.6002">
        <ele>23.21</ele>
        <time>2020-07-20T12:05:03Z</time>
      </trkpt>
      <trkpt lat="37.16074" lon="-8.60016">
        <ele>23.21</ele>
        <time>2020-07-20T12:05:04Z</time>
      </trkpt>
      <trkpt lat="37.16071" lon="-8.60014">
        <ele>23.21</ele>
        <time>2020-07-20T12:05:05Z</time>
      </trkpt>
      <trkpt lat="37.16067" lon="-8.60011">
        <ele>21.77</ele>
        <time>2020-07-20T12:05:06Z</time>
      </trkpt>
      <trkpt lat="37.16063" lon="-8.60008">
        <ele>21.29</ele>
        <time>2020-07-20T12:05:07Z</time>
      </trkpt>
      <trkpt lat="37.16058" lon="-8.60006">
        <ele>21.29</ele>
        <time>2020-07-20T12:05:08Z</time>
      </trkpt>
      <trkpt lat="37.16048" lon="-8.60002">
        <ele>20.32</ele>
        <time>2020-07-20T12:05:10Z</time>
      </trkpt>
      <trkpt lat="37.16043" lon="-8.59998">
        <ele>19.36</ele>
        <time>2020-07-20T12:05:11Z</time>
      </trkpt>
      <trkpt lat="37.16038" lon="-8.59993">
        <ele>19.36</ele>
        <time>2020-07-20T12:05:12Z</time>
      </trkpt>
      <trkpt lat="37.16035" lon="-8.59986">
        <ele>18.4</ele>
        <time>2020-07-20T12:05:13Z</time>
      </trkpt>
      <trkpt lat="37.16033" lon="-8.59977">
        <ele>17.92</ele>
        <time>2020-07-20T12:05:14Z</time>
      </trkpt>
      <trkpt lat="37.16034" lon="-8.59971">
        <ele>17.44</ele>
        <time>2020-07-20T12:05:15Z</time>
      </trkpt>
      <trkpt lat="37.16036" lon="-8.59963">
        <ele>17.44</ele>
        <time>2020-07-20T12:05:16Z</time>
      </trkpt>
      <trkpt lat="37.16038" lon="-8.59956">
        <ele>17.44</ele>
        <time>2020-07-20T12:05:17Z</time>
      </trkpt>
      <trkpt lat="37.16041" lon="-8.5995">
        <ele>17.44</ele>
        <time>2020-07-20T12:05:18Z</time>
      </trkpt>
      <trkpt lat="37.16044" lon="-8.59944">
        <ele>17.44</ele>
        <time>2020-07-20T12:05:19Z</time>
      </trkpt>
      <trkpt lat="37.16047" lon="-8.59938">
        <ele>17.44</ele>
        <time>2020-07-20T12:05:20Z</time>
      </trkpt>
      <trkpt lat="37.1606" lon="-8.59907">
        <ele>18.4</ele>
        <time>2020-07-20T12:05:27Z</time>
      </trkpt>
      <trkpt lat="37.16072" lon="-8.59871">
        <ele>18.88</ele>
        <time>2020-07-20T12:05:36Z</time>
      </trkpt>
      <trkpt lat="37.16087" lon="-8.59832">
        <ele>19.84</ele>
        <time>2020-07-20T12:05:47Z</time>
      </trkpt>
      <trkpt lat="37.161" lon="-8.59801">
        <ele>21.29</ele>
        <time>2020-07-20T12:05:58Z</time>
      </trkpt>
      <trkpt lat="37.161" lon="-8.59796">
        <ele>21.77</ele>
        <time>2020-07-20T12:06:03Z</time>
      </trkpt>
      <trkpt lat="37.161" lon="-8.59788">
        <ele>21.29</ele>
        <time>2020-07-20T12:06:12Z</time>
      </trkpt>
      <trkpt lat="37.161" lon="-8.59787">
        <ele>21.29</ele>
        <time>2020-07-20T12:06:13Z</time>
      </trkpt>
      <trkpt lat="37.16101" lon="-8.59786">
        <ele>21.77</ele>
        <time>2020-07-20T12:06:14Z</time>
      </trkpt>
      <trkpt lat="37.16102" lon="-8.59785">
        <ele>21.29</ele>
        <time>2020-07-20T12:06:15Z</time>
      </trkpt>
      <trkpt lat="37.16104" lon="-8.59782">
        <ele>21.29</ele>
        <time>2020-07-20T12:06:17Z</time>
      </trkpt>
      <trkpt lat="37.16102" lon="-8.59778">
        <ele>22.25</ele>
        <time>2020-07-20T12:06:23Z</time>
      </trkpt>
      <trkpt lat="37.16102" lon="-8.59778">
        <ele>22.25</ele>
        <time>2020-07-20T12:06:24Z</time>
      </trkpt>
      <trkpt lat="37.16089" lon="-8.59791">
        <ele>22.25</ele>
        <time>2020-07-20T12:06:31Z</time>
      </trkpt>
      <trkpt lat="37.16067" lon="-8.59805">
        <ele>21.77</ele>
        <time>2020-07-20T12:06:38Z</time>
      </trkpt>
      <trkpt lat="37.16029" lon="-8.5983">
        <ele>20.81</ele>
        <time>2020-07-20T12:06:49Z</time>
      </trkpt>
      <trkpt lat="37.15994" lon="-8.59858">
        <ele>19.84</ele>
        <time>2020-07-20T12:06:58Z</time>
      </trkpt>
      <trkpt lat="37.15955" lon="-8.59895">
        <ele>18.88</ele>
        <time>2020-07-20T12:07:07Z</time>
      </trkpt>
      <trkpt lat="37.15919" lon="-8.59938">
        <ele>18.4</ele>
        <time>2020-07-20T12:07:16Z</time>
      </trkpt>
      <trkpt lat="37.15914" lon="-8.59941">
        <ele>18.4</ele>
        <time>2020-07-20T12:07:17Z</time>
      </trkpt>
      <trkpt lat="37.1591" lon="-8.59942">
        <ele>18.4</ele>
        <time>2020-07-20T12:07:18Z</time>
      </trkpt>
      <trkpt lat="37.15906" lon="-8.5994">
        <ele>17.92</ele>
        <time>2020-07-20T12:07:19Z</time>
      </trkpt>
      <trkpt lat="37.15903" lon="-8.59937">
        <ele>17.92</ele>
        <time>2020-07-20T12:07:20Z</time>
      </trkpt>
      <trkpt lat="37.15901" lon="-8.59934">
        <ele>17.92</ele>
        <time>2020-07-20T12:07:21Z</time>
      </trkpt>
      <trkpt lat="37.15888" lon="-8.59912">
        <ele>17.92</ele>
        <time>2020-07-20T12:07:28Z</time>
      </trkpt>
      <trkpt lat="37.15884" lon="-8.59891">
        <ele>19.84</ele>
        <time>2020-07-20T12:07:33Z</time>
      </trkpt>
      <trkpt lat="37.15872" lon="-8.59877">
        <ele>20.81</ele>
        <time>2020-07-20T12:07:39Z</time>
      </trkpt>
      <trkpt lat="37.1585" lon="-8.59869">
        <ele>21.77</ele>
        <time>2020-07-20T12:07:47Z</time>
      </trkpt>
      <trkpt lat="37.15825" lon="-8.59861">
        <ele>21.77</ele>
        <time>2020-07-20T12:07:55Z</time>
      </trkpt>
      <trkpt lat="37.15794" lon="-8.59855">
        <ele>21.77</ele>
        <time>2020-07-20T12:08:03Z</time>
      </trkpt>
      <trkpt lat="37.15767" lon="-8.5985">
        <ele>19.36</ele>
        <time>2020-07-20T12:08:09Z</time>
      </trkpt>
      <trkpt lat="37.15731" lon="-8.59843">
        <ele>18.4</ele>
        <time>2020-07-20T12:08:16Z</time>
      </trkpt>
      <trkpt lat="37.15726" lon="-8.59844">
        <ele>18.4</ele>
        <time>2020-07-20T12:08:17Z</time>
      </trkpt>
      <trkpt lat="37.157" lon="-8.59844">
        <ele>17.92</ele>
        <time>2020-07-20T12:08:22Z</time>
      </trkpt>
      <trkpt lat="37.15695" lon="-8.59843">
        <ele>17.92</ele>
        <time>2020-07-20T12:08:23Z</time>
      </trkpt>
      <trkpt lat="37.15666" lon="-8.5983">
        <ele>16.96</ele>
        <time>2020-07-20T12:08:29Z</time>
      </trkpt>
      <trkpt lat="37.1566" lon="-8.59828">
        <ele>16.96</ele>
        <time>2020-07-20T12:08:30Z</time>
      </trkpt>
      <trkpt lat="37.15648" lon="-8.59826">
        <ele>15.52</ele>
        <time>2020-07-20T12:08:32Z</time>
      </trkpt>
      <trkpt lat="37.15642" lon="-8.59826">
        <ele>15.52</ele>
        <time>2020-07-20T12:08:33Z</time>
      </trkpt>
      <trkpt lat="37.15635" lon="-8.59827">
        <ele>15.04</ele>
        <time>2020-07-20T12:08:34Z</time>
      </trkpt>
      <trkpt lat="37.15592" lon="-8.59842">
        <ele>14.56</ele>
        <time>2020-07-20T12:08:42Z</time>
      </trkpt>
      <trkpt lat="37.15577" lon="-8.59844">
        <ele>16</ele>
        <time>2020-07-20T12:08:46Z</time>
      </trkpt>
      <trkpt lat="37.15555" lon="-8.59841">
        <ele>16.96</ele>
        <time>2020-07-20T12:08:53Z</time>
      </trkpt>
      <trkpt lat="37.15533" lon="-8.59838">
        <ele>18.4</ele>
        <time>2020-07-20T12:09:00Z</time>
      </trkpt>
      <trkpt lat="37.15518" lon="-8.59828">
        <ele>19.36</ele>
        <time>2020-07-20T12:09:07Z</time>
      </trkpt>
      <trkpt lat="37.15501" lon="-8.59813">
        <ele>19.84</ele>
        <time>2020-07-20T12:09:14Z</time>
      </trkpt>
      <trkpt lat="37.15481" lon="-8.59796">
        <ele>19.84</ele>
        <time>2020-07-20T12:09:22Z</time>
      </trkpt>
      <trkpt lat="37.15463" lon="-8.59773">
        <ele>18.4</ele>
        <time>2020-07-20T12:09:30Z</time>
      </trkpt>
      <trkpt lat="37.15463" lon="-8.59769">
        <ele>18.4</ele>
        <time>2020-07-20T12:09:31Z</time>
      </trkpt>
      <trkpt lat="37.15465" lon="-8.59765">
        <ele>18.4</ele>
        <time>2020-07-20T12:09:32Z</time>
      </trkpt>
      <trkpt lat="37.15465" lon="-8.59762">
        <ele>18.4</ele>
        <time>2020-07-20T12:09:33Z</time>
      </trkpt>
      <trkpt lat="37.15466" lon="-8.59758">
        <ele>18.4</ele>
        <time>2020-07-20T12:09:34Z</time>
      </trkpt>
      <trkpt lat="37.15466" lon="-8.59755">
        <ele>19.84</ele>
        <time>2020-07-20T12:09:35Z</time>
      </trkpt>
      <trkpt lat="37.15466" lon="-8.59728">
        <ele>21.29</ele>
        <time>2020-07-20T12:09:44Z</time>
      </trkpt>
      <trkpt lat="37.15468" lon="-8.59708">
        <ele>21.29</ele>
        <time>2020-07-20T12:09:51Z</time>
      </trkpt>
      <trkpt lat="37.15477" lon="-8.59668">
        <ele>21.77</ele>
        <time>2020-07-20T12:10:02Z</time>
      </trkpt>
      <trkpt lat="37.15491" lon="-8.59649">
        <ele>21.77</ele>
        <time>2020-07-20T12:10:08Z</time>
      </trkpt>
      <trkpt lat="37.15511" lon="-8.59611">
        <ele>21.77</ele>
        <time>2020-07-20T12:10:18Z</time>
      </trkpt>
      <trkpt lat="37.15511" lon="-8.59596">
        <ele>21.77</ele>
        <time>2020-07-20T12:10:21Z</time>
      </trkpt>
      <trkpt lat="37.1551" lon="-8.59591">
        <ele>21.77</ele>
        <time>2020-07-20T12:10:22Z</time>
      </trkpt>
      <trkpt lat="37.15509" lon="-8.59587">
        <ele>21.77</ele>
        <time>2020-07-20T12:10:23Z</time>
      </trkpt>
      <trkpt lat="37.15508" lon="-8.59582">
        <ele>21.77</ele>
        <time>2020-07-20T12:10:24Z</time>
      </trkpt>
      <trkpt lat="37.15507" lon="-8.59577">
        <ele>21.77</ele>
        <time>2020-07-20T12:10:25Z</time>
      </trkpt>
      <trkpt lat="37.15505" lon="-8.59572">
        <ele>21.77</ele>
        <time>2020-07-20T12:10:26Z</time>
      </trkpt>
      <trkpt lat="37.15504" lon="-8.59567">
        <ele>21.77</ele>
        <time>2020-07-20T12:10:27Z</time>
      </trkpt>
      <trkpt lat="37.15504" lon="-8.59563">
        <ele>20.81</ele>
        <time>2020-07-20T12:10:28Z</time>
      </trkpt>
      <trkpt lat="37.15503" lon="-8.59557">
        <ele>20.81</ele>
        <time>2020-07-20T12:10:29Z</time>
      </trkpt>
      <trkpt lat="37.15498" lon="-8.59509">
        <ele>20.81</ele>
        <time>2020-07-20T12:10:39Z</time>
      </trkpt>
      <trkpt lat="37.15496" lon="-8.59497">
        <ele>20.81</ele>
        <time>2020-07-20T12:10:42Z</time>
      </trkpt>
      <trkpt lat="37.15494" lon="-8.59494">
        <ele>20.81</ele>
        <time>2020-07-20T12:10:43Z</time>
      </trkpt>
      <trkpt lat="37.1549" lon="-8.59492">
        <ele>20.81</ele>
        <time>2020-07-20T12:10:44Z</time>
      </trkpt>
      <trkpt lat="37.15487" lon="-8.59491">
        <ele>20.81</ele>
        <time>2020-07-20T12:10:45Z</time>
      </trkpt>
      <trkpt lat="37.15483" lon="-8.5949">
        <ele>20.81</ele>
        <time>2020-07-20T12:10:46Z</time>
      </trkpt>
      <trkpt lat="37.15479" lon="-8.59489">
        <ele>20.81</ele>
        <time>2020-07-20T12:10:47Z</time>
      </trkpt>
      <trkpt lat="37.15474" lon="-8.59489">
        <ele>20.81</ele>
        <time>2020-07-20T12:10:48Z</time>
      </trkpt>
      <trkpt lat="37.1547" lon="-8.59488">
        <ele>20.32</ele>
        <time>2020-07-20T12:10:49Z</time>
      </trkpt>
      <trkpt lat="37.15465" lon="-8.59487">
        <ele>19.84</ele>
        <time>2020-07-20T12:10:50Z</time>
      </trkpt>
      <trkpt lat="37.15455" lon="-8.59485">
        <ele>18.88</ele>
        <time>2020-07-20T12:10:52Z</time>
      </trkpt>
      <trkpt lat="37.1545" lon="-8.59484">
        <ele>18.88</ele>
        <time>2020-07-20T12:10:53Z</time>
      </trkpt>
      <trkpt lat="37.15444" lon="-8.59483">
        <ele>18.4</ele>
        <time>2020-07-20T12:10:54Z</time>
      </trkpt>
      <trkpt lat="37.15439" lon="-8.59481">
        <ele>18.4</ele>
        <time>2020-07-20T12:10:55Z</time>
      </trkpt>
      <trkpt lat="37.15435" lon="-8.59477">
        <ele>18.4</ele>
        <time>2020-07-20T12:10:56Z</time>
      </trkpt>
      <trkpt lat="37.15431" lon="-8.59471">
        <ele>17.44</ele>
        <time>2020-07-20T12:10:57Z</time>
      </trkpt>
      <trkpt lat="37.15429" lon="-8.59465">
        <ele>17.44</ele>
        <time>2020-07-20T12:10:58Z</time>
      </trkpt>
      <trkpt lat="37.15429" lon="-8.59459">
        <ele>17.44</ele>
        <time>2020-07-20T12:10:59Z</time>
      </trkpt>
      <trkpt lat="37.15429" lon="-8.59453">
        <ele>16.96</ele>
        <time>2020-07-20T12:11:00Z</time>
      </trkpt>
      <trkpt lat="37.15431" lon="-8.59447">
        <ele>16.48</ele>
        <time>2020-07-20T12:11:01Z</time>
      </trkpt>
      <trkpt lat="37.15433" lon="-8.59441">
        <ele>16.48</ele>
        <time>2020-07-20T12:11:02Z</time>
      </trkpt>
      <trkpt lat="37.15446" lon="-8.59396">
        <ele>15.04</ele>
        <time>2020-07-20T12:11:10Z</time>
      </trkpt>
      <trkpt lat="37.15458" lon="-8.5936">
        <ele>15.04</ele>
        <time>2020-07-20T12:11:17Z</time>
      </trkpt>
      <trkpt lat="37.15457" lon="-8.59355">
        <ele>15.04</ele>
        <time>2020-07-20T12:11:18Z</time>
      </trkpt>
      <trkpt lat="37.15454" lon="-8.59352">
        <ele>15.04</ele>
        <time>2020-07-20T12:11:19Z</time>
      </trkpt>
      <trkpt lat="37.15451" lon="-8.5935">
        <ele>14.56</ele>
        <time>2020-07-20T12:11:20Z</time>
      </trkpt>
      <trkpt lat="37.15447" lon="-8.59348">
        <ele>14.56</ele>
        <time>2020-07-20T12:11:21Z</time>
      </trkpt>
      <trkpt lat="37.15425" lon="-8.59334">
        <ele>13.6</ele>
        <time>2020-07-20T12:11:26Z</time>
      </trkpt>
      <trkpt lat="37.15421" lon="-8.5933">
        <ele>13.6</ele>
        <time>2020-07-20T12:11:27Z</time>
      </trkpt>
      <trkpt lat="37.15418" lon="-8.59326">
        <ele>13.12</ele>
        <time>2020-07-20T12:11:28Z</time>
      </trkpt>
      <trkpt lat="37.15415" lon="-8.59322">
        <ele>12.63</ele>
        <time>2020-07-20T12:11:29Z</time>
      </trkpt>
      <trkpt lat="37.15412" lon="-8.59318">
        <ele>12.63</ele>
        <time>2020-07-20T12:11:30Z</time>
      </trkpt>
      <trkpt lat="37.1541" lon="-8.59317">
        <ele>12.63</ele>
        <time>2020-07-20T12:11:31Z</time>
      </trkpt>
      <trkpt lat="37.15407" lon="-8.59317">
        <ele>12.63</ele>
        <time>2020-07-20T12:11:32Z</time>
      </trkpt>
      <trkpt lat="37.15404" lon="-8.59317">
        <ele>12.63</ele>
        <time>2020-07-20T12:11:33Z</time>
      </trkpt>
      <trkpt lat="37.15379" lon="-8.59318">
        <ele>12.63</ele>
        <time>2020-07-20T12:11:40Z</time>
      </trkpt>
      <trkpt lat="37.15354" lon="-8.59318">
        <ele>14.08</ele>
        <time>2020-07-20T12:11:47Z</time>
      </trkpt>
      <trkpt lat="37.15319" lon="-8.59311">
        <ele>13.6</ele>
        <time>2020-07-20T12:11:57Z</time>
      </trkpt>
      <trkpt lat="37.15294" lon="-8.59304">
        <ele>13.6</ele>
        <time>2020-07-20T12:12:06Z</time>
      </trkpt>
      <trkpt lat="37.15278" lon="-8.59296">
        <ele>13.6</ele>
        <time>2020-07-20T12:12:13Z</time>
      </trkpt>
      <trkpt lat="37.15249" lon="-8.59282">
        <ele>13.6</ele>
        <time>2020-07-20T12:12:22Z</time>
      </trkpt>
      <trkpt lat="37.15224" lon="-8.59266">
        <ele>13.6</ele>
        <time>2020-07-20T12:12:30Z</time>
      </trkpt>
      <trkpt lat="37.15199" lon="-8.59245">
        <ele>13.6</ele>
        <time>2020-07-20T12:12:38Z</time>
      </trkpt>
      <trkpt lat="37.15177" lon="-8.5922">
        <ele>13.6</ele>
        <time>2020-07-20T12:12:46Z</time>
      </trkpt>
      <trkpt lat="37.15159" lon="-8.59196">
        <ele>13.6</ele>
        <time>2020-07-20T12:12:54Z</time>
      </trkpt>
      <trkpt lat="37.15137" lon="-8.59167">
        <ele>13.6</ele>
        <time>2020-07-20T12:13:03Z</time>
      </trkpt>
      <trkpt lat="37.15111" lon="-8.59135">
        <ele>13.6</ele>
        <time>2020-07-20T12:13:13Z</time>
      </trkpt>
      <trkpt lat="37.15087" lon="-8.59125">
        <ele>13.6</ele>
        <time>2020-07-20T12:13:20Z</time>
      </trkpt>
      <trkpt lat="37.15079" lon="-8.59126">
        <ele>13.6</ele>
        <time>2020-07-20T12:13:22Z</time>
      </trkpt>
      <trkpt lat="37.15054" lon="-8.59138">
        <ele>13.6</ele>
        <time>2020-07-20T12:13:29Z</time>
      </trkpt>
      <trkpt lat="37.15027" lon="-8.59154">
        <ele>13.6</ele>
        <time>2020-07-20T12:13:37Z</time>
      </trkpt>
      <trkpt lat="37.15" lon="-8.59171">
        <ele>13.6</ele>
        <time>2020-07-20T12:13:45Z</time>
      </trkpt>
      <trkpt lat="37.14956" lon="-8.59196">
        <ele>13.6</ele>
        <time>2020-07-20T12:13:57Z</time>
      </trkpt>
      <trkpt lat="37.14926" lon="-8.59212">
        <ele>13.6</ele>
        <time>2020-07-20T12:14:05Z</time>
      </trkpt>
      <trkpt lat="37.14923" lon="-8.59214">
        <ele>13.6</ele>
        <time>2020-07-20T12:14:06Z</time>
      </trkpt>
      <trkpt lat="37.14918" lon="-8.59216">
        <ele>13.6</ele>
        <time>2020-07-20T12:14:07Z</time>
      </trkpt>
      <trkpt lat="37.1489" lon="-8.5923">
        <ele>14.08</ele>
        <time>2020-07-20T12:14:15Z</time>
      </trkpt>
      <trkpt lat="37.14867" lon="-8.59243">
        <ele>12.63</ele>
        <time>2020-07-20T12:14:22Z</time>
      </trkpt>
      <trkpt lat="37.14848" lon="-8.59255">
        <ele>12.63</ele>
        <time>2020-07-20T12:14:28Z</time>
      </trkpt>
      <trkpt lat="37.14832" lon="-8.59261">
        <ele>12.63</ele>
        <time>2020-07-20T12:14:33Z</time>
      </trkpt>
      <trkpt lat="37.14816" lon="-8.59268">
        <ele>12.63</ele>
        <time>2020-07-20T12:14:39Z</time>
      </trkpt>
      <trkpt lat="37.14811" lon="-8.59271">
        <ele>12.63</ele>
        <time>2020-07-20T12:14:41Z</time>
      </trkpt>
      <trkpt lat="37.14809" lon="-8.59274">
        <ele>12.63</ele>
        <time>2020-07-20T12:14:42Z</time>
      </trkpt>
      <trkpt lat="37.14807" lon="-8.59275">
        <ele>12.63</ele>
        <time>2020-07-20T12:14:43Z</time>
      </trkpt>
      <trkpt lat="37.14804" lon="-8.59276">
        <ele>12.63</ele>
        <time>2020-07-20T12:14:44Z</time>
      </trkpt>
      <trkpt lat="37.148" lon="-8.59277">
        <ele>12.63</ele>
        <time>2020-07-20T12:14:45Z</time>
      </trkpt>
      <trkpt lat="37.1478" lon="-8.59287">
        <ele>12.15</ele>
        <time>2020-07-20T12:14:52Z</time>
      </trkpt>
      <trkpt lat="37.14753" lon="-8.593">
        <ele>12.15</ele>
        <time>2020-07-20T12:15:00Z</time>
      </trkpt>
      <trkpt lat="37.14733" lon="-8.59308">
        <ele>11.67</ele>
        <time>2020-07-20T12:15:06Z</time>
      </trkpt>
      <trkpt lat="37.14724" lon="-8.59314">
        <ele>11.67</ele>
        <time>2020-07-20T12:15:09Z</time>
      </trkpt>
      <trkpt lat="37.147" lon="-8.59324">
        <ele>11.67</ele>
        <time>2020-07-20T12:15:17Z</time>
      </trkpt>
      <trkpt lat="37.14684" lon="-8.59332">
        <ele>10.71</ele>
        <time>2020-07-20T12:15:23Z</time>
      </trkpt>
      <trkpt lat="37.14674" lon="-8.59338">
        <ele>12.15</ele>
        <time>2020-07-20T12:15:27Z</time>
      </trkpt>
      <trkpt lat="37.14653" lon="-8.59351">
        <ele>12.15</ele>
        <time>2020-07-20T12:15:34Z</time>
      </trkpt>
      <trkpt lat="37.1463" lon="-8.59366">
        <ele>12.63</ele>
        <time>2020-07-20T12:15:42Z</time>
      </trkpt>
      <trkpt lat="37.14619" lon="-8.59373">
        <ele>12.63</ele>
        <time>2020-07-20T12:15:46Z</time>
      </trkpt>
      <trkpt lat="37.14595" lon="-8.59389">
        <ele>12.63</ele>
        <time>2020-07-20T12:15:54Z</time>
      </trkpt>
      <trkpt lat="37.14575" lon="-8.59405">
        <ele>12.63</ele>
        <time>2020-07-20T12:16:01Z</time>
      </trkpt>
      <trkpt lat="37.14571" lon="-8.59406">
        <ele>12.63</ele>
        <time>2020-07-20T12:16:03Z</time>
      </trkpt>
      <trkpt lat="37.14551" lon="-8.59421">
        <ele>12.63</ele>
        <time>2020-07-20T12:16:10Z</time>
      </trkpt>
      <trkpt lat="37.14524" lon="-8.59443">
        <ele>12.63</ele>
        <time>2020-07-20T12:16:19Z</time>
      </trkpt>
      <trkpt lat="37.14499" lon="-8.59464">
        <ele>12.63</ele>
        <time>2020-07-20T12:16:27Z</time>
      </trkpt>
      <trkpt lat="37.14481" lon="-8.59482">
        <ele>12.63</ele>
        <time>2020-07-20T12:16:34Z</time>
      </trkpt>
      <trkpt lat="37.14475" lon="-8.59489">
        <ele>12.63</ele>
        <time>2020-07-20T12:16:37Z</time>
      </trkpt>
      <trkpt lat="37.14472" lon="-8.5949">
        <ele>12.63</ele>
        <time>2020-07-20T12:16:38Z</time>
      </trkpt>
      <trkpt lat="37.1447" lon="-8.59492">
        <ele>12.63</ele>
        <time>2020-07-20T12:16:39Z</time>
      </trkpt>
      <trkpt lat="37.14469" lon="-8.59495">
        <ele>12.63</ele>
        <time>2020-07-20T12:16:40Z</time>
      </trkpt>
      <trkpt lat="37.14467" lon="-8.59498">
        <ele>12.63</ele>
        <time>2020-07-20T12:16:41Z</time>
      </trkpt>
      <trkpt lat="37.14466" lon="-8.59501">
        <ele>12.63</ele>
        <time>2020-07-20T12:16:42Z</time>
      </trkpt>
      <trkpt lat="37.14463" lon="-8.59504">
        <ele>12.63</ele>
        <time>2020-07-20T12:16:43Z</time>
      </trkpt>
      <trkpt lat="37.1444" lon="-8.5953">
        <ele>13.12</ele>
        <time>2020-07-20T12:16:52Z</time>
      </trkpt>
      <trkpt lat="37.14415" lon="-8.59549">
        <ele>13.12</ele>
        <time>2020-07-20T12:17:01Z</time>
      </trkpt>
      <trkpt lat="37.14402" lon="-8.59561">
        <ele>11.67</ele>
        <time>2020-07-20T12:17:06Z</time>
      </trkpt>
      <trkpt lat="37.14384" lon="-8.59575">
        <ele>13.12</ele>
        <time>2020-07-20T12:17:12Z</time>
      </trkpt>
      <trkpt lat="37.14381" lon="-8.59578">
        <ele>13.12</ele>
        <time>2020-07-20T12:17:13Z</time>
      </trkpt>
      <trkpt lat="37.14356" lon="-8.59595">
        <ele>12.63</ele>
        <time>2020-07-20T12:17:21Z</time>
      </trkpt>
      <trkpt lat="37.14327" lon="-8.59616">
        <ele>13.12</ele>
        <time>2020-07-20T12:17:30Z</time>
      </trkpt>
      <trkpt lat="37.14303" lon="-8.59637">
        <ele>13.6</ele>
        <time>2020-07-20T12:17:39Z</time>
      </trkpt>
      <trkpt lat="37.14294" lon="-8.59641">
        <ele>14.08</ele>
        <time>2020-07-20T12:17:42Z</time>
      </trkpt>
      <trkpt lat="37.14293" lon="-8.5964">
        <ele>14.08</ele>
        <time>2020-07-20T12:17:43Z</time>
      </trkpt>
      <trkpt lat="37.14291" lon="-8.59637">
        <ele>14.08</ele>
        <time>2020-07-20T12:17:44Z</time>
      </trkpt>
      <trkpt lat="37.14291" lon="-8.59635">
        <ele>14.08</ele>
        <time>2020-07-20T12:17:45Z</time>
      </trkpt>
      <trkpt lat="37.14289" lon="-8.59633">
        <ele>14.08</ele>
        <time>2020-07-20T12:17:46Z</time>
      </trkpt>
      <trkpt lat="37.14278" lon="-8.59608">
        <ele>14.08</ele>
        <time>2020-07-20T12:17:54Z</time>
      </trkpt>
      <trkpt lat="37.14268" lon="-8.59586">
        <ele>14.08</ele>
        <time>2020-07-20T12:18:01Z</time>
      </trkpt>
      <trkpt lat="37.14263" lon="-8.59574">
        <ele>12.15</ele>
        <time>2020-07-20T12:18:03Z</time>
      </trkpt>
      <trkpt lat="37.14247" lon="-8.59539">
        <ele>13.6</ele>
        <time>2020-07-20T12:18:10Z</time>
      </trkpt>
      <trkpt lat="37.14245" lon="-8.59535">
        <ele>13.6</ele>
        <time>2020-07-20T12:18:11Z</time>
      </trkpt>
      <trkpt lat="37.14233" lon="-8.59511">
        <ele>14.56</ele>
        <time>2020-07-20T12:18:18Z</time>
      </trkpt>
      <trkpt lat="37.14215" lon="-8.59472">
        <ele>14.56</ele>
        <time>2020-07-20T12:18:29Z</time>
      </trkpt>
      <trkpt lat="37.14202" lon="-8.59447">
        <ele>14.56</ele>
        <time>2020-07-20T12:18:37Z</time>
      </trkpt>
      <trkpt lat="37.14196" lon="-8.59438">
        <ele>14.56</ele>
        <time>2020-07-20T12:18:41Z</time>
      </trkpt>
      <trkpt lat="37.14196" lon="-8.59435">
        <ele>14.56</ele>
        <time>2020-07-20T12:18:42Z</time>
      </trkpt>
      <trkpt lat="37.14195" lon="-8.59432">
        <ele>14.56</ele>
        <time>2020-07-20T12:18:43Z</time>
      </trkpt>
      <trkpt lat="37.14194" lon="-8.59429">
        <ele>14.56</ele>
        <time>2020-07-20T12:18:44Z</time>
      </trkpt>
      <trkpt lat="37.14193" lon="-8.59425">
        <ele>14.56</ele>
        <time>2020-07-20T12:18:45Z</time>
      </trkpt>
      <trkpt lat="37.14191" lon="-8.59422">
        <ele>14.56</ele>
        <time>2020-07-20T12:18:46Z</time>
      </trkpt>
      <trkpt lat="37.1419" lon="-8.59419">
        <ele>14.56</ele>
        <time>2020-07-20T12:18:47Z</time>
      </trkpt>
      <trkpt lat="37.14187" lon="-8.59408">
        <ele>14.08</ele>
        <time>2020-07-20T12:18:50Z</time>
      </trkpt>
      <trkpt lat="37.14188" lon="-8.59404">
        <ele>14.08</ele>
        <time>2020-07-20T12:18:51Z</time>
      </trkpt>
      <trkpt lat="37.14189" lon="-8.59399">
        <ele>14.08</ele>
        <time>2020-07-20T12:18:52Z</time>
      </trkpt>
      <trkpt lat="37.14193" lon="-8.59394">
        <ele>12.63</ele>
        <time>2020-07-20T12:18:53Z</time>
      </trkpt>
      <trkpt lat="37.14197" lon="-8.59389">
        <ele>12.15</ele>
        <time>2020-07-20T12:18:54Z</time>
      </trkpt>
      <trkpt lat="37.14201" lon="-8.59383">
        <ele>12.15</ele>
        <time>2020-07-20T12:18:55Z</time>
      </trkpt>
      <trkpt lat="37.14205" lon="-8.59378">
        <ele>12.15</ele>
        <time>2020-07-20T12:18:56Z</time>
      </trkpt>
      <trkpt lat="37.14221" lon="-8.59337">
        <ele>12.15</ele>
        <time>2020-07-20T12:19:03Z</time>
      </trkpt>
      <trkpt lat="37.14234" lon="-8.59301">
        <ele>12.15</ele>
        <time>2020-07-20T12:19:11Z</time>
      </trkpt>
      <trkpt lat="37.14251" lon="-8.59251">
        <ele>12.15</ele>
        <time>2020-07-20T12:19:23Z</time>
      </trkpt>
      <trkpt lat="37.1426" lon="-8.59232">
        <ele>12.15</ele>
        <time>2020-07-20T12:19:31Z</time>
      </trkpt>
      <trkpt lat="37.1426" lon="-8.59232">
        <ele>12.15</ele>
        <time>2020-07-20T12:19:38Z</time>
      </trkpt>
      <trkpt lat="37.14261" lon="-8.59232">
        <ele>12.15</ele>
        <time>2020-07-20T12:19:52Z</time>
      </trkpt>
      <trkpt lat="37.14261" lon="-8.5923">
        <ele>11.67</ele>
        <time>2020-07-20T12:20:02Z</time>
      </trkpt>
      <trkpt lat="37.1426" lon="-8.59228">
        <ele>11.67</ele>
        <time>2020-07-20T12:20:03Z</time>
      </trkpt>
      <trkpt lat="37.1426" lon="-8.59226">
        <ele>11.67</ele>
        <time>2020-07-20T12:20:04Z</time>
      </trkpt>
      <trkpt lat="37.1426" lon="-8.59223">
        <ele>11.67</ele>
        <time>2020-07-20T12:20:05Z</time>
      </trkpt>
      <trkpt lat="37.1426" lon="-8.5922">
        <ele>11.67</ele>
        <time>2020-07-20T12:20:06Z</time>
      </trkpt>
      <trkpt lat="37.14253" lon="-8.59192">
        <ele>11.67</ele>
        <time>2020-07-20T12:20:14Z</time>
      </trkpt>
      <trkpt lat="37.14233" lon="-8.59171">
        <ele>11.67</ele>
        <time>2020-07-20T12:20:22Z</time>
      </trkpt>
      <trkpt lat="37.14205" lon="-8.59155">
        <ele>11.19</ele>
        <time>2020-07-20T12:20:31Z</time>
      </trkpt>
      <trkpt lat="37.14172" lon="-8.59143">
        <ele>11.19</ele>
        <time>2020-07-20T12:20:41Z</time>
      </trkpt>
      <trkpt lat="37.14131" lon="-8.5913">
        <ele>11.19</ele>
        <time>2020-07-20T12:20:53Z</time>
      </trkpt>
      <trkpt lat="37.141" lon="-8.59119">
        <ele>11.19</ele>
        <time>2020-07-20T12:21:02Z</time>
      </trkpt>
      <trkpt lat="37.1407" lon="-8.591">
        <ele>11.19</ele>
        <time>2020-07-20T12:21:12Z</time>
      </trkpt>
      <trkpt lat="37.14045" lon="-8.59068">
        <ele>11.19</ele>
        <time>2020-07-20T12:21:23Z</time>
      </trkpt>
      <trkpt lat="37.1404" lon="-8.59065">
        <ele>11.19</ele>
        <time>2020-07-20T12:21:25Z</time>
      </trkpt>
      <trkpt lat="37.14032" lon="-8.59072">
        <ele>12.63</ele>
        <time>2020-07-20T12:21:28Z</time>
      </trkpt>
      <trkpt lat="37.14027" lon="-8.59092">
        <ele>12.15</ele>
        <time>2020-07-20T12:21:32Z</time>
      </trkpt>
      <trkpt lat="37.14024" lon="-8.59096">
        <ele>12.15</ele>
        <time>2020-07-20T12:21:33Z</time>
      </trkpt>
      <trkpt lat="37.14001" lon="-8.59128">
        <ele>11.19</ele>
        <time>2020-07-20T12:21:42Z</time>
      </trkpt>
      <trkpt lat="37.13982" lon="-8.59151">
        <ele>11.19</ele>
        <time>2020-07-20T12:21:50Z</time>
      </trkpt>
      <trkpt lat="37.13976" lon="-8.59155">
        <ele>12.63</ele>
        <time>2020-07-20T12:21:52Z</time>
      </trkpt>
      <trkpt lat="37.13952" lon="-8.59177">
        <ele>14.08</ele>
        <time>2020-07-20T12:22:01Z</time>
      </trkpt>
      <trkpt lat="37.13933" lon="-8.59187">
        <ele>15.52</ele>
        <time>2020-07-20T12:22:08Z</time>
      </trkpt>
      <trkpt lat="37.13912" lon="-8.59201">
        <ele>16</ele>
        <time>2020-07-20T12:22:16Z</time>
      </trkpt>
      <trkpt lat="37.13891" lon="-8.59213">
        <ele>18.4</ele>
        <time>2020-07-20T12:22:25Z</time>
      </trkpt>
      <trkpt lat="37.13873" lon="-8.59229">
        <ele>20.32</ele>
        <time>2020-07-20T12:22:33Z</time>
      </trkpt>
      <trkpt lat="37.13853" lon="-8.59255">
        <ele>22.73</ele>
        <time>2020-07-20T12:22:44Z</time>
      </trkpt>
      <trkpt lat="37.13848" lon="-8.59273">
        <ele>22.25</ele>
        <time>2020-07-20T12:22:51Z</time>
      </trkpt>
      <trkpt lat="37.13839" lon="-8.59294">
        <ele>22.25</ele>
        <time>2020-07-20T12:23:00Z</time>
      </trkpt>
      <trkpt lat="37.13824" lon="-8.59317">
        <ele>22.25</ele>
        <time>2020-07-20T12:23:09Z</time>
      </trkpt>
      <trkpt lat="37.13817" lon="-8.59327">
        <ele>21.29</ele>
        <time>2020-07-20T12:23:12Z</time>
      </trkpt>
      <trkpt lat="37.13813" lon="-8.59331">
        <ele>21.29</ele>
        <time>2020-07-20T12:23:13Z</time>
      </trkpt>
      <trkpt lat="37.13806" lon="-8.59337">
        <ele>20.32</ele>
        <time>2020-07-20T12:23:15Z</time>
      </trkpt>
      <trkpt lat="37.13776" lon="-8.59351">
        <ele>16</ele>
        <time>2020-07-20T12:23:20Z</time>
      </trkpt>
      <trkpt lat="37.13751" lon="-8.59367">
        <ele>14.08</ele>
        <time>2020-07-20T12:23:24Z</time>
      </trkpt>
      <trkpt lat="37.13747" lon="-8.59373">
        <ele>14.08</ele>
        <time>2020-07-20T12:23:25Z</time>
      </trkpt>
      <trkpt lat="37.13744" lon="-8.59379">
        <ele>14.08</ele>
        <time>2020-07-20T12:23:26Z</time>
      </trkpt>
      <trkpt lat="37.13741" lon="-8.59385">
        <ele>14.08</ele>
        <time>2020-07-20T12:23:27Z</time>
      </trkpt>
      <trkpt lat="37.13734" lon="-8.59394">
        <ele>12.63</ele>
        <time>2020-07-20T12:23:29Z</time>
      </trkpt>
      <trkpt lat="37.1373" lon="-8.59397">
        <ele>12.15</ele>
        <time>2020-07-20T12:23:30Z</time>
      </trkpt>
      <trkpt lat="37.13726" lon="-8.59397">
        <ele>12.15</ele>
        <time>2020-07-20T12:23:31Z</time>
      </trkpt>
      <trkpt lat="37.13721" lon="-8.59396">
        <ele>12.15</ele>
        <time>2020-07-20T12:23:33Z</time>
      </trkpt>
      <trkpt lat="37.13719" lon="-8.59397">
        <ele>13.6</ele>
        <time>2020-07-20T12:23:34Z</time>
      </trkpt>
      <trkpt lat="37.13715" lon="-8.59399">
        <ele>13.6</ele>
        <time>2020-07-20T12:23:35Z</time>
      </trkpt>
      <trkpt lat="37.13705" lon="-8.59399">
        <ele>15.04</ele>
        <time>2020-07-20T12:23:39Z</time>
      </trkpt>
      <trkpt lat="37.13702" lon="-8.59401">
        <ele>15.04</ele>
        <time>2020-07-20T12:23:40Z</time>
      </trkpt>
      <trkpt lat="37.13697" lon="-8.59403">
        <ele>15.04</ele>
        <time>2020-07-20T12:23:42Z</time>
      </trkpt>
      <trkpt lat="37.13676" lon="-8.59407">
        <ele>16.96</ele>
        <time>2020-07-20T12:23:51Z</time>
      </trkpt>
      <trkpt lat="37.13662" lon="-8.59417">
        <ele>16.96</ele>
        <time>2020-07-20T12:23:56Z</time>
      </trkpt>
      <trkpt lat="37.13649" lon="-8.59433">
        <ele>17.92</ele>
        <time>2020-07-20T12:24:03Z</time>
      </trkpt>
      <trkpt lat="37.13636" lon="-8.59444">
        <ele>20.32</ele>
        <time>2020-07-20T12:24:11Z</time>
      </trkpt>
      <trkpt lat="37.1362" lon="-8.59452">
        <ele>22.73</ele>
        <time>2020-07-20T12:24:20Z</time>
      </trkpt>
      <trkpt lat="37.13607" lon="-8.59464">
        <ele>24.65</ele>
        <time>2020-07-20T12:24:28Z</time>
      </trkpt>
      <trkpt lat="37.136" lon="-8.5947">
        <ele>25.13</ele>
        <time>2020-07-20T12:24:33Z</time>
      </trkpt>
      <trkpt lat="37.13588" lon="-8.59474">
        <ele>26.09</ele>
        <time>2020-07-20T12:24:40Z</time>
      </trkpt>
      <trkpt lat="37.13587" lon="-8.59474">
        <ele>26.09</ele>
        <time>2020-07-20T12:24:41Z</time>
      </trkpt>
      <trkpt lat="37.13581" lon="-8.59477">
        <ele>27.05</ele>
        <time>2020-07-20T12:24:50Z</time>
      </trkpt>
      <trkpt lat="37.13581" lon="-8.59477">
        <ele>27.05</ele>
        <time>2020-07-20T12:25:01Z</time>
      </trkpt>
      <trkpt lat="37.13581" lon="-8.59476">
        <ele>25.61</ele>
        <time>2020-07-20T12:25:05Z</time>
      </trkpt>
      <trkpt lat="37.1358" lon="-8.59476">
        <ele>25.61</ele>
        <time>2020-07-20T12:25:24Z</time>
      </trkpt>
      <trkpt lat="37.1358" lon="-8.59476">
        <ele>25.61</ele>
        <time>2020-07-20T12:25:42Z</time>
      </trkpt>
      <trkpt lat="37.13581" lon="-8.59476">
        <ele>26.57</ele>
        <time>2020-07-20T12:26:03Z</time>
      </trkpt>
      <trkpt lat="37.13581" lon="-8.59478">
        <ele>27.05</ele>
        <time>2020-07-20T12:26:16Z</time>
      </trkpt>
      <trkpt lat="37.13576" lon="-8.59484">
        <ele>27.05</ele>
        <time>2020-07-20T12:26:23Z</time>
      </trkpt>
      <trkpt lat="37.13562" lon="-8.59495">
        <ele>25.61</ele>
        <time>2020-07-20T12:26:28Z</time>
      </trkpt>
      <trkpt lat="37.13559" lon="-8.59498">
        <ele>25.61</ele>
        <time>2020-07-20T12:26:29Z</time>
      </trkpt>
      <trkpt lat="37.13546" lon="-8.59493">
        <ele>24.65</ele>
        <time>2020-07-20T12:26:33Z</time>
      </trkpt>
      <trkpt lat="37.13545" lon="-8.59486">
        <ele>24.65</ele>
        <time>2020-07-20T12:26:35Z</time>
      </trkpt>
      <trkpt lat="37.13542" lon="-8.59481">
        <ele>24.65</ele>
        <time>2020-07-20T12:26:38Z</time>
      </trkpt>
      <trkpt lat="37.1353" lon="-8.59484">
        <ele>21.77</ele>
        <time>2020-07-20T12:26:43Z</time>
      </trkpt>
      <trkpt lat="37.13522" lon="-8.59487">
        <ele>20.32</ele>
        <time>2020-07-20T12:26:45Z</time>
      </trkpt>
      <trkpt lat="37.13502" lon="-8.59491">
        <ele>17.44</ele>
        <time>2020-07-20T12:26:49Z</time>
      </trkpt>
      <trkpt lat="37.13481" lon="-8.595">
        <ele>16</ele>
        <time>2020-07-20T12:26:53Z</time>
      </trkpt>
      <trkpt lat="37.13463" lon="-8.59505">
        <ele>19.36</ele>
        <time>2020-07-20T12:26:59Z</time>
      </trkpt>
      <trkpt lat="37.13451" lon="-8.59504">
        <ele>20.32</ele>
        <time>2020-07-20T12:27:04Z</time>
      </trkpt>
      <trkpt lat="37.13433" lon="-8.59503">
        <ele>21.77</ele>
        <time>2020-07-20T12:27:13Z</time>
      </trkpt>
      <trkpt lat="37.13422" lon="-8.59514">
        <ele>21.77</ele>
        <time>2020-07-20T12:27:19Z</time>
      </trkpt>
      <trkpt lat="37.13418" lon="-8.59519">
        <ele>20.32</ele>
        <time>2020-07-20T12:27:20Z</time>
      </trkpt>
      <trkpt lat="37.13402" lon="-8.59528">
        <ele>19.84</ele>
        <time>2020-07-20T12:27:25Z</time>
      </trkpt>
      <trkpt lat="37.13398" lon="-8.59528">
        <ele>21.29</ele>
        <time>2020-07-20T12:27:27Z</time>
      </trkpt>
      <trkpt lat="37.1338" lon="-8.59533">
        <ele>22.73</ele>
        <time>2020-07-20T12:27:36Z</time>
      </trkpt>
      <trkpt lat="37.13366" lon="-8.59527">
        <ele>23.21</ele>
        <time>2020-07-20T12:27:43Z</time>
      </trkpt>
      <trkpt lat="37.13358" lon="-8.5952">
        <ele>24.17</ele>
        <time>2020-07-20T12:27:48Z</time>
      </trkpt>
      <trkpt lat="37.13346" lon="-8.59512">
        <ele>24.65</ele>
        <time>2020-07-20T12:27:53Z</time>
      </trkpt>
      <trkpt lat="37.13334" lon="-8.59499">
        <ele>24.65</ele>
        <time>2020-07-20T12:28:00Z</time>
      </trkpt>
      <trkpt lat="37.13323" lon="-8.59488">
        <ele>22.73</ele>
        <time>2020-07-20T12:28:04Z</time>
      </trkpt>
      <trkpt lat="37.13315" lon="-8.59486">
        <ele>21.29</ele>
        <time>2020-07-20T12:28:07Z</time>
      </trkpt>
      <trkpt lat="37.13306" lon="-8.59479">
        <ele>19.36</ele>
        <time>2020-07-20T12:28:10Z</time>
      </trkpt>
      <trkpt lat="37.13295" lon="-8.59464">
        <ele>17.44</ele>
        <time>2020-07-20T12:28:13Z</time>
      </trkpt>
      <trkpt lat="37.13283" lon="-8.59444">
        <ele>16.96</ele>
        <time>2020-07-20T12:28:17Z</time>
      </trkpt>
      <trkpt lat="37.13269" lon="-8.59442">
        <ele>16</ele>
        <time>2020-07-20T12:28:20Z</time>
      </trkpt>
      <trkpt lat="37.13267" lon="-8.59459">
        <ele>14.56</ele>
        <time>2020-07-20T12:28:25Z</time>
      </trkpt>
      <trkpt lat="37.13271" lon="-8.59472">
        <ele>13.6</ele>
        <time>2020-07-20T12:28:28Z</time>
      </trkpt>
      <trkpt lat="37.13273" lon="-8.59476">
        <ele>13.6</ele>
        <time>2020-07-20T12:28:29Z</time>
      </trkpt>
      <trkpt lat="37.13288" lon="-8.595">
        <ele>13.12</ele>
        <time>2020-07-20T12:28:35Z</time>
      </trkpt>
      <trkpt lat="37.13298" lon="-8.59519">
        <ele>11.67</ele>
        <time>2020-07-20T12:28:39Z</time>
      </trkpt>
      <trkpt lat="37.13298" lon="-8.59524">
        <ele>11.67</ele>
        <time>2020-07-20T12:28:40Z</time>
      </trkpt>
      <trkpt lat="37.13297" lon="-8.59528">
        <ele>11.19</ele>
        <time>2020-07-20T12:28:41Z</time>
      </trkpt>
      <trkpt lat="37.13296" lon="-8.5953">
        <ele>11.19</ele>
        <time>2020-07-20T12:28:42Z</time>
      </trkpt>
      <trkpt lat="37.13294" lon="-8.59532">
        <ele>11.19</ele>
        <time>2020-07-20T12:28:43Z</time>
      </trkpt>
      <trkpt lat="37.13292" lon="-8.59534">
        <ele>11.19</ele>
        <time>2020-07-20T12:28:44Z</time>
      </trkpt>
      <trkpt lat="37.1329" lon="-8.59536">
        <ele>11.19</ele>
        <time>2020-07-20T12:28:45Z</time>
      </trkpt>
      <trkpt lat="37.13288" lon="-8.59538">
        <ele>11.19</ele>
        <time>2020-07-20T12:28:46Z</time>
      </trkpt>
      <trkpt lat="37.13286" lon="-8.59541">
        <ele>11.19</ele>
        <time>2020-07-20T12:28:47Z</time>
      </trkpt>
      <trkpt lat="37.13283" lon="-8.59543">
        <ele>11.19</ele>
        <time>2020-07-20T12:28:48Z</time>
      </trkpt>
      <trkpt lat="37.13266" lon="-8.59565">
        <ele>11.19</ele>
        <time>2020-07-20T12:28:55Z</time>
      </trkpt>
      <trkpt lat="37.13242" lon="-8.59594">
        <ele>11.19</ele>
        <time>2020-07-20T12:29:04Z</time>
      </trkpt>
      <trkpt lat="37.13208" lon="-8.59619">
        <ele>12.15</ele>
        <time>2020-07-20T12:29:14Z</time>
      </trkpt>
      <trkpt lat="37.13187" lon="-8.59632">
        <ele>12.15</ele>
        <time>2020-07-20T12:29:21Z</time>
      </trkpt>
      <trkpt lat="37.13156" lon="-8.59651">
        <ele>12.15</ele>
        <time>2020-07-20T12:29:31Z</time>
      </trkpt>
      <trkpt lat="37.13127" lon="-8.5966">
        <ele>12.15</ele>
        <time>2020-07-20T12:29:40Z</time>
      </trkpt>
      <trkpt lat="37.13098" lon="-8.59652">
        <ele>12.15</ele>
        <time>2020-07-20T12:29:50Z</time>
      </trkpt>
      <trkpt lat="37.13076" lon="-8.59647">
        <ele>12.15</ele>
        <time>2020-07-20T12:29:57Z</time>
      </trkpt>
      <trkpt lat="37.13055" lon="-8.5964">
        <ele>11.19</ele>
        <time>2020-07-20T12:30:04Z</time>
      </trkpt>
      <trkpt lat="37.13051" lon="-8.5964">
        <ele>11.19</ele>
        <time>2020-07-20T12:30:06Z</time>
      </trkpt>
      <trkpt lat="37.13049" lon="-8.59642">
        <ele>11.19</ele>
        <time>2020-07-20T12:30:07Z</time>
      </trkpt>
      <trkpt lat="37.13046" lon="-8.59642">
        <ele>11.19</ele>
        <time>2020-07-20T12:30:08Z</time>
      </trkpt>
      <trkpt lat="37.13044" lon="-8.59642">
        <ele>11.19</ele>
        <time>2020-07-20T12:30:09Z</time>
      </trkpt>
      <trkpt lat="37.13042" lon="-8.59642">
        <ele>11.19</ele>
        <time>2020-07-20T12:30:10Z</time>
      </trkpt>
      <trkpt lat="37.13039" lon="-8.59642">
        <ele>10.71</ele>
        <time>2020-07-20T12:30:11Z</time>
      </trkpt>
      <trkpt lat="37.13036" lon="-8.59642">
        <ele>10.71</ele>
        <time>2020-07-20T12:30:12Z</time>
      </trkpt>
      <trkpt lat="37.13032" lon="-8.59643">
        <ele>10.23</ele>
        <time>2020-07-20T12:30:13Z</time>
      </trkpt>
      <trkpt lat="37.13013" lon="-8.59655">
        <ele>11.19</ele>
        <time>2020-07-20T12:30:20Z</time>
      </trkpt>
      <trkpt lat="37.13005" lon="-8.59666">
        <ele>11.19</ele>
        <time>2020-07-20T12:30:27Z</time>
      </trkpt>
      <trkpt lat="37.12993" lon="-8.59669">
        <ele>11.19</ele>
        <time>2020-07-20T12:30:33Z</time>
      </trkpt>
      <trkpt lat="37.12971" lon="-8.59668">
        <ele>11.19</ele>
        <time>2020-07-20T12:30:41Z</time>
      </trkpt>
      <trkpt lat="37.12945" lon="-8.59665">
        <ele>11.67</ele>
        <time>2020-07-20T12:30:51Z</time>
      </trkpt>
      <trkpt lat="37.12922" lon="-8.59652">
        <ele>11.67</ele>
        <time>2020-07-20T12:31:00Z</time>
      </trkpt>
      <trkpt lat="37.129" lon="-8.5964">
        <ele>11.67</ele>
        <time>2020-07-20T12:31:08Z</time>
      </trkpt>
      <trkpt lat="37.12873" lon="-8.59627">
        <ele>10.23</ele>
        <time>2020-07-20T12:31:17Z</time>
      </trkpt>
      <trkpt lat="37.1287" lon="-8.59625">
        <ele>10.23</ele>
        <time>2020-07-20T12:31:18Z</time>
      </trkpt>
      <trkpt lat="37.12845" lon="-8.59612">
        <ele>10.23</ele>
        <time>2020-07-20T12:31:27Z</time>
      </trkpt>
      <trkpt lat="37.12817" lon="-8.59596">
        <ele>11.67</ele>
        <time>2020-07-20T12:31:37Z</time>
      </trkpt>
      <trkpt lat="37.12794" lon="-8.59578">
        <ele>11.67</ele>
        <time>2020-07-20T12:31:46Z</time>
      </trkpt>
      <trkpt lat="37.12781" lon="-8.59554">
        <ele>11.67</ele>
        <time>2020-07-20T12:31:53Z</time>
      </trkpt>
      <trkpt lat="37.12766" lon="-8.59542">
        <ele>11.67</ele>
        <time>2020-07-20T12:31:59Z</time>
      </trkpt>
      <trkpt lat="37.12758" lon="-8.59537">
        <ele>11.67</ele>
        <time>2020-07-20T12:32:02Z</time>
      </trkpt>
      <trkpt lat="37.12754" lon="-8.59538">
        <ele>11.67</ele>
        <time>2020-07-20T12:32:03Z</time>
      </trkpt>
      <trkpt lat="37.12752" lon="-8.5954">
        <ele>11.67</ele>
        <time>2020-07-20T12:32:04Z</time>
      </trkpt>
      <trkpt lat="37.12749" lon="-8.59542">
        <ele>11.67</ele>
        <time>2020-07-20T12:32:05Z</time>
      </trkpt>
      <trkpt lat="37.12747" lon="-8.59546">
        <ele>11.67</ele>
        <time>2020-07-20T12:32:06Z</time>
      </trkpt>
      <trkpt lat="37.12735" lon="-8.59553">
        <ele>11.67</ele>
        <time>2020-07-20T12:32:11Z</time>
      </trkpt>
      <trkpt lat="37.12711" lon="-8.59564">
        <ele>11.19</ele>
        <time>2020-07-20T12:32:19Z</time>
      </trkpt>
      <trkpt lat="37.12685" lon="-8.5958">
        <ele>11.19</ele>
        <time>2020-07-20T12:32:29Z</time>
      </trkpt>
      <trkpt lat="37.12685" lon="-8.5958">
        <ele>11.19</ele>
        <time>2020-07-20T12:32:41Z</time>
      </trkpt>
      <trkpt lat="37.12684" lon="-8.59581">
        <ele>11.67</ele>
        <time>2020-07-20T12:32:58Z</time>
      </trkpt>
      <trkpt lat="37.12683" lon="-8.59581">
        <ele>11.67</ele>
        <time>2020-07-20T12:33:03Z</time>
      </trkpt>
      <trkpt lat="37.12682" lon="-8.59581">
        <ele>11.67</ele>
        <time>2020-07-20T12:33:04Z</time>
      </trkpt>
      <trkpt lat="37.12681" lon="-8.59582">
        <ele>11.67</ele>
        <time>2020-07-20T12:33:05Z</time>
      </trkpt>
      <trkpt lat="37.12679" lon="-8.59584">
        <ele>11.67</ele>
        <time>2020-07-20T12:33:06Z</time>
      </trkpt>
      <trkpt lat="37.12678" lon="-8.59586">
        <ele>11.67</ele>
        <time>2020-07-20T12:33:07Z</time>
      </trkpt>
      <trkpt lat="37.12676" lon="-8.59587">
        <ele>11.67</ele>
        <time>2020-07-20T12:33:08Z</time>
      </trkpt>
      <trkpt lat="37.12675" lon="-8.59587">
        <ele>11.67</ele>
        <time>2020-07-20T12:33:09Z</time>
      </trkpt>
      <trkpt lat="37.12673" lon="-8.59587">
        <ele>11.67</ele>
        <time>2020-07-20T12:33:10Z</time>
      </trkpt>
      <trkpt lat="37.12657" lon="-8.59592">
        <ele>11.67</ele>
        <time>2020-07-20T12:33:16Z</time>
      </trkpt>
      <trkpt lat="37.12647" lon="-8.59596">
        <ele>11.67</ele>
        <time>2020-07-20T12:33:20Z</time>
      </trkpt>
      <trkpt lat="37.12645" lon="-8.59595">
        <ele>11.67</ele>
        <time>2020-07-20T12:33:21Z</time>
      </trkpt>
      <trkpt lat="37.12644" lon="-8.59593">
        <ele>11.67</ele>
        <time>2020-07-20T12:33:22Z</time>
      </trkpt>
      <trkpt lat="37.12642" lon="-8.5959">
        <ele>11.67</ele>
        <time>2020-07-20T12:33:25Z</time>
      </trkpt>
      <trkpt lat="37.1264" lon="-8.59589">
        <ele>11.67</ele>
        <time>2020-07-20T12:33:26Z</time>
      </trkpt>
      <trkpt lat="37.12638" lon="-8.5959">
        <ele>11.67</ele>
        <time>2020-07-20T12:33:27Z</time>
      </trkpt>
      <trkpt lat="37.12637" lon="-8.59593">
        <ele>11.67</ele>
        <time>2020-07-20T12:33:28Z</time>
      </trkpt>
      <trkpt lat="37.12636" lon="-8.59596">
        <ele>11.67</ele>
        <time>2020-07-20T12:33:29Z</time>
      </trkpt>
      <trkpt lat="37.12634" lon="-8.596">
        <ele>11.67</ele>
        <time>2020-07-20T12:33:30Z</time>
      </trkpt>
      <trkpt lat="37.12632" lon="-8.59604">
        <ele>11.67</ele>
        <time>2020-07-20T12:33:31Z</time>
      </trkpt>
      <trkpt lat="37.1263" lon="-8.59607">
        <ele>11.67</ele>
        <time>2020-07-20T12:33:32Z</time>
      </trkpt>
      <trkpt lat="37.12628" lon="-8.5961">
        <ele>11.67</ele>
        <time>2020-07-20T12:33:33Z</time>
      </trkpt>
      <trkpt lat="37.12626" lon="-8.59613">
        <ele>11.67</ele>
        <time>2020-07-20T12:33:34Z</time>
      </trkpt>
      <trkpt lat="37.12624" lon="-8.59617">
        <ele>11.67</ele>
        <time>2020-07-20T12:33:35Z</time>
      </trkpt>
      <trkpt lat="37.12622" lon="-8.59621">
        <ele>11.67</ele>
        <time>2020-07-20T12:33:36Z</time>
      </trkpt>
      <trkpt lat="37.12619" lon="-8.5963">
        <ele>11.67</ele>
        <time>2020-07-20T12:33:38Z</time>
      </trkpt>
      <trkpt lat="37.12605" lon="-8.59674">
        <ele>11.67</ele>
        <time>2020-07-20T12:33:47Z</time>
      </trkpt>
      <trkpt lat="37.12584" lon="-8.59721">
        <ele>11.67</ele>
        <time>2020-07-20T12:33:58Z</time>
      </trkpt>
      <trkpt lat="37.1255" lon="-8.59756">
        <ele>11.67</ele>
        <time>2020-07-20T12:34:09Z</time>
      </trkpt>
      <trkpt lat="37.12509" lon="-8.59787">
        <ele>11.67</ele>
        <time>2020-07-20T12:34:21Z</time>
      </trkpt>
      <trkpt lat="37.12475" lon="-8.59812">
        <ele>11.67</ele>
        <time>2020-07-20T12:34:31Z</time>
      </trkpt>
      <trkpt lat="37.12472" lon="-8.59815">
        <ele>11.67</ele>
        <time>2020-07-20T12:34:32Z</time>
      </trkpt>
      <trkpt lat="37.12468" lon="-8.59817">
        <ele>11.67</ele>
        <time>2020-07-20T12:34:33Z</time>
      </trkpt>
      <trkpt lat="37.12465" lon="-8.5982">
        <ele>11.67</ele>
        <time>2020-07-20T12:34:34Z</time>
      </trkpt>
      <trkpt lat="37.12462" lon="-8.59823">
        <ele>11.67</ele>
        <time>2020-07-20T12:34:35Z</time>
      </trkpt>
      <trkpt lat="37.12459" lon="-8.59826">
        <ele>11.67</ele>
        <time>2020-07-20T12:34:36Z</time>
      </trkpt>
      <trkpt lat="37.12445" lon="-8.59854">
        <ele>11.67</ele>
        <time>2020-07-20T12:34:43Z</time>
      </trkpt>
      <trkpt lat="37.12437" lon="-8.59898">
        <ele>11.67</ele>
        <time>2020-07-20T12:34:52Z</time>
      </trkpt>
      <trkpt lat="37.1243" lon="-8.59935">
        <ele>11.67</ele>
        <time>2020-07-20T12:35:00Z</time>
      </trkpt>
      <trkpt lat="37.12424" lon="-8.59961">
        <ele>11.19</ele>
        <time>2020-07-20T12:35:06Z</time>
      </trkpt>
      <trkpt lat="37.12421" lon="-8.59962">
        <ele>11.19</ele>
        <time>2020-07-20T12:35:07Z</time>
      </trkpt>
      <trkpt lat="37.12418" lon="-8.59961">
        <ele>11.19</ele>
        <time>2020-07-20T12:35:08Z</time>
      </trkpt>
      <trkpt lat="37.12417" lon="-8.59959">
        <ele>11.19</ele>
        <time>2020-07-20T12:35:09Z</time>
      </trkpt>
      <trkpt lat="37.12415" lon="-8.59955">
        <ele>11.19</ele>
        <time>2020-07-20T12:35:10Z</time>
      </trkpt>
      <trkpt lat="37.12412" lon="-8.59952">
        <ele>11.19</ele>
        <time>2020-07-20T12:35:11Z</time>
      </trkpt>
      <trkpt lat="37.12395" lon="-8.59913">
        <ele>11.19</ele>
        <time>2020-07-20T12:35:21Z</time>
      </trkpt>
      <trkpt lat="37.1238" lon="-8.59865">
        <ele>12.15</ele>
        <time>2020-07-20T12:35:33Z</time>
      </trkpt>
      <trkpt lat="37.12372" lon="-8.59824">
        <ele>12.63</ele>
        <time>2020-07-20T12:35:43Z</time>
      </trkpt>
      <trkpt lat="37.12367" lon="-8.59794">
        <ele>12.63</ele>
        <time>2020-07-20T12:35:50Z</time>
      </trkpt>
      <trkpt lat="37.12361" lon="-8.59736">
        <ele>12.63</ele>
        <time>2020-07-20T12:36:03Z</time>
      </trkpt>
      <trkpt lat="37.12357" lon="-8.59702">
        <ele>12.63</ele>
        <time>2020-07-20T12:36:11Z</time>
      </trkpt>
      <trkpt lat="37.12353" lon="-8.59665">
        <ele>12.63</ele>
        <time>2020-07-20T12:36:19Z</time>
      </trkpt>
      <trkpt lat="37.12351" lon="-8.59659">
        <ele>11.19</ele>
        <time>2020-07-20T12:36:21Z</time>
      </trkpt>
      <trkpt lat="37.12352" lon="-8.59636">
        <ele>11.19</ele>
        <time>2020-07-20T12:36:28Z</time>
      </trkpt>
      <trkpt lat="37.12365" lon="-8.59628">
        <ele>11.19</ele>
        <time>2020-07-20T12:36:34Z</time>
      </trkpt>
      <trkpt lat="37.1237" lon="-8.59626">
        <ele>11.19</ele>
        <time>2020-07-20T12:36:40Z</time>
      </trkpt>
      <trkpt lat="37.12371" lon="-8.59625">
        <ele>10.23</ele>
        <time>2020-07-20T12:36:54Z</time>
      </trkpt>
      <trkpt lat="37.12371" lon="-8.59626">
        <ele>11.67</ele>
        <time>2020-07-20T12:37:03Z</time>
      </trkpt>
    </trkseg>
  </trk>
</gpx>